[[{"header":{"parameterUnit":"m.s-1","parameterCategory":1,"la1":30.6,"la2":29.2853,"lo1":-89.7004,"lo2":-87.6739,"dy":0.0162,"dx":0.0183,"nx":112,"ny":82,"refTime":"2024-04-17T12:00:00:Z","depth":0,"parameterNumber":2,"parameterNumberName":"U-component_of_WINDS"},"data":[0.0,0.0,0.0,0.0,0.0,0.0,0.0,0.0,0.0,0.0,0.0,0.0,0.0,0.0,0.0,0.0,0.0,0.0,0.0,0.0,0.0,0.0,0.0,0.0,0.0,0.0,0.0,0.0,0.0,0.0,0.0,0.0,0.0,0.0,0.0,0.0,0.0,0.0,0.0,0.0,0.0,0.0,0.0,0.0,0.0,0.0,0.0,0.0,0.0,0.0,0.0,0.0,0.0,0.0,0.0,0.0,0.0,0.0,0.0,0.0,0.0,0.0,0.0,0.0,0.0,0.0,0.0,0.0,0.0,0.0,0.0,0.0,0.0,0.0,0.0,0.0,0.0,0.0,0.0,0.0,0.0,0.0,0.0,0.0,0.0,0.0,0.0,0.0,0.0,0.0,-2.5275,-2.9932,-3.3698,-3.5841,-3.5646,-3.614,-3.3574,-2.675,0.0,0.0,0.0,0.0,0.0,0.0,0.0,0.0,0.0,0.0,0.0,0.0,0.0,0.0,0.0,0.0,0.0,0.0,0.0,0.0,0.0,0.0,0.0,0.0,0.0,0.0,0.0,0.0,0.0,0.0,0.0,0.0,0.0,0.0,0.0,0.0,0.0,0.0,0.0,0.0,0.0,0.0,0.0,0.0,0.0,0.0,0.0,0.0,0.0,0.0,0.0,0.0,0.0,0.0,0.0,0.0,0.0,0.0,0.0,0.0,0.0,0.0,0.0,0.0,0.0,0.0,0.0,0.0,0.0,0.0,0.0,0.0,0.0,0.0,0.0,0.0,0.0,0.0,0.0,0.0,0.0,0.0,0.0,0.0,0.0,0.0,0.0,0.0,0.0,0.0,0.0,0.0,0.0,0.0,0.0,0.0,0.0,0.0,0.0,0.0,0.0,0.0,0.0,0.0,-2.6672,-3.2559,-3.3793,-3.4715,-3.6057,-3.46,-3.1698,-2.7174,0.0,0.0,0.0,0.0,0.0,0.0,0.0,0.0,0.0,0.0,0.0,0.0,0.0,0.0,0.0,0.0,0.0,0.0,0.0,0.0,0.0,0.0,0.0,0.0,0.0,0.0,0.0,0.0,0.0,0.0,0.0,0.0,0.0,0.0,0.0,0.0,0.0,0.0,0.0,0.0,0.0,0.0,0.0,0.0,0.0,0.0,0.0,0.0,0.0,0.0,0.0,0.0,0.0,0.0,0.0,0.0,0.0,0.0,0.0,0.0,0.0,0.0,0.0,0.0,0.0,0.0,0.0,0.0,0.0,0.0,0.0,0.0,0.0,0.0,0.0,0.0,0.0,0.0,0.0,0.0,0.0,0.0,0.0,0.0,0.0,0.0,0.0,0.0,0.0,0.0,0.0,0.0,0.0,0.0,0.0,0.0,0.0,0.0,0.0,0.0,0.0,0.0,0.0,-2.6574,-3.0352,-3.4055,-3.5257,-3.5752,-3.5624,-3.4,-3.1094,-2.6631,-2.5917,0.0,0.0,0.0,0.0,0.0,0.0,0.0,0.0,0.0,0.0,0.0,0.0,0.0,0.0,0.0,0.0,0.0,0.0,0.0,0.0,0.0,0.0,0.0,0.0,0.0,0.0,0.0,0.0,0.0,0.0,0.0,0.0,0.0,0.0,0.0,0.0,0.0,0.0,0.0,0.0,0.0,0.0,0.0,0.0,0.0,0.0,0.0,0.0,0.0,0.0,0.0,0.0,0.0,0.0,0.0,0.0,0.0,0.0,0.0,0.0,0.0,0.0,0.0,0.0,0.0,0.0,0.0,0.0,0.0,0.0,0.0,0.0,0.0,0.0,0.0,0.0,0.0,0.0,0.0,0.0,0.0,0.0,0.0,0.0,0.0,0.0,0.0,0.0,0.0,0.0,0.0,0.0,0.0,0.0,0.0,0.0,0.0,0.0,0.0,0.0,0.0,0.0,-2.9741,-3.2547,-3.4513,-3.5862,-3.6101,-3.4821,-3.329,-3.0524,-2.6068,-2.4353,0.0,0.0,0.0,0.0,0.0,0.0,0.0,0.0,0.0,0.0,0.0,0.0,0.0,0.0,0.0,0.0,0.0,0.0,0.0,0.0,0.0,0.0,0.0,0.0,0.0,0.0,0.0,0.0,0.0,0.0,0.0,0.0,0.0,0.0,0.0,0.0,0.0,0.0,0.0,0.0,0.0,0.0,0.0,0.0,0.0,0.0,0.0,0.0,0.0,0.0,0.0,0.0,0.0,0.0,0.0,0.0,0.0,0.0,0.0,0.0,0.0,0.0,0.0,0.0,0.0,0.0,0.0,0.0,0.0,0.0,0.0,0.0,0.0,0.0,0.0,0.0,0.0,0.0,0.0,0.0,0.0,0.0,0.0,0.0,0.0,0.0,0.0,0.0,0.0,0.0,0.0,0.0,0.0,0.0,0.0,0.0,0.0,0.0,0.0,0.0,0.0,0.0,-2.7783,-3.0592,-3.357,-3.399,-3.4009,-3.3899,-3.191,-2.9285,-2.6014,-2.3786,0.0,0.0,0.0,0.0,0.0,0.0,0.0,0.0,0.0,0.0,0.0,0.0,0.0,0.0,0.0,0.0,0.0,0.0,0.0,0.0,0.0,0.0,0.0,0.0,0.0,0.0,0.0,0.0,0.0,0.0,0.0,0.0,0.0,0.0,0.0,0.0,0.0,0.0,0.0,0.0,0.0,0.0,0.0,0.0,0.0,0.0,0.0,0.0,0.0,0.0,0.0,0.0,0.0,0.0,0.0,0.0,0.0,0.0,0.0,0.0,0.0,0.0,0.0,0.0,0.0,0.0,0.0,0.0,0.0,0.0,0.0,0.0,0.0,0.0,0.0,0.0,0.0,0.0,0.0,0.0,0.0,0.0,0.0,0.0,0.0,0.0,0.0,0.0,0.0,0.0,0.0,0.0,0.0,0.0,0.0,0.0,0.0,0.0,0.0,0.0,0.0,0.0,-2.8205,-3.1165,0.0,-3.4252,-3.4142,-3.3146,-3.1378,-2.8807,-2.5279,0.0,0.0,0.0,0.0,0.0,0.0,0.0,0.0,0.0,0.0,0.0,0.0,0.0,0.0,0.0,0.0,0.0,0.0,0.0,0.0,0.0,0.0,0.0,0.0,0.0,0.0,0.0,0.0,0.0,0.0,0.0,0.0,0.0,0.0,0.0,0.0,0.0,0.0,0.0,0.0,0.0,0.0,0.0,0.0,0.0,0.0,0.0,0.0,0.0,0.0,0.0,0.0,0.0,0.0,0.0,0.0,0.0,0.0,0.0,0.0,0.0,0.0,0.0,0.0,0.0,0.0,0.0,0.0,0.0,0.0,0.0,0.0,0.0,0.0,0.0,0.0,0.0,0.0,0.0,0.0,0.0,0.0,0.0,0.0,0.0,0.0,0.0,0.0,0.0,0.0,0.0,0.0,0.0,0.0,0.0,0.0,0.0,0.0,0.0,0.0,0.0,0.0,-2.4639,-2.8511,-3.1704,0.0,-3.4215,-3.4069,-3.2711,-3.0962,-2.8393,-2.4825,0.0,0.0,0.0,0.0,0.0,0.0,0.0,0.0,0.0,0.0,0.0,0.0,0.0,0.0,0.0,0.0,0.0,0.0,0.0,0.0,0.0,0.0,0.0,0.0,0.0,0.0,0.0,0.0,0.0,0.0,0.0,0.0,0.0,0.0,0.0,0.0,0.0,0.0,0.0,0.0,0.0,0.0,0.0,0.0,0.0,0.0,0.0,0.0,0.0,0.0,0.0,0.0,0.0,0.0,0.0,0.0,0.0,0.0,0.0,0.0,0.0,0.0,0.0,0.0,0.0,0.0,0.0,0.0,0.0,0.0,0.0,0.0,0.0,0.0,0.0,0.0,0.0,0.0,0.0,0.0,0.0,0.0,0.0,0.0,0.0,0.0,0.0,0.0,0.0,0.0,0.0,0.0,0.0,0.0,0.0,0.0,0.0,0.0,0.0,0.0,0.0,0.0,-2.4,-2.8363,-3.1838,-3.3046,-3.355,-3.3445,-3.2619,-3.0531,-2.7919,0.0,0.0,0.0,0.0,0.0,0.0,0.0,0.0,0.0,0.0,0.0,0.0,0.0,0.0,0.0,0.0,0.0,0.0,0.0,0.0,0.0,0.0,0.0,0.0,0.0,0.0,0.0,0.0,0.0,0.0,0.0,0.0,0.0,0.0,0.0,0.0,0.0,0.0,0.0,0.0,0.0,0.0,0.0,0.0,0.0,0.0,0.0,0.0,0.0,0.0,0.0,0.0,0.0,0.0,0.0,0.0,0.0,0.0,0.0,0.0,0.0,0.0,0.0,0.0,0.0,0.0,0.0,0.0,0.0,0.0,0.0,0.0,0.0,0.0,0.0,0.0,0.0,0.0,0.0,0.0,0.0,0.0,0.0,0.0,0.0,0.0,0.0,0.0,0.0,0.0,0.0,0.0,0.0,0.0,0.0,0.0,0.0,0.0,0.0,0.0,0.0,0.0,0.0,-2.3964,-2.7644,-3.0579,-3.1805,-3.2049,-3.1368,-2.9511,-2.8407,-2.6315,-2.2776,0.0,0.0,0.0,0.0,0.0,0.0,0.0,0.0,0.0,0.0,0.0,0.0,0.0,0.0,0.0,0.0,0.0,0.0,0.0,0.0,0.0,0.0,0.0,0.0,0.0,0.0,0.0,0.0,0.0,0.0,0.0,0.0,0.0,0.0,0.0,0.0,0.0,0.0,0.0,0.0,0.0,0.0,0.0,0.0,0.0,0.0,0.0,0.0,0.0,0.0,0.0,0.0,0.0,0.0,0.0,0.0,0.0,0.0,0.0,0.0,0.0,0.0,0.0,0.0,0.0,0.0,0.0,0.0,0.0,0.0,0.0,0.0,0.0,0.0,0.0,0.0,0.0,0.0,0.0,0.0,0.0,0.0,0.0,0.0,0.0,0.0,0.0,0.0,0.0,0.0,0.0,0.0,0.0,0.0,0.0,0.0,0.0,0.0,0.0,0.0,0.0,0.0,-2.3749,-2.7468,-3.0332,-3.1035,-3.1283,-3.0597,-2.8621,-2.758,-2.5778,-2.28,0.0,0.0,0.0,0.0,0.0,0.0,0.0,0.0,0.0,0.0,0.0,0.0,0.0,0.0,0.0,0.0,0.0,0.0,0.0,0.0,0.0,0.0,0.0,0.0,0.0,0.0,0.0,0.0,0.0,0.0,0.0,0.0,0.0,0.0,0.0,0.0,0.0,0.0,0.0,0.0,0.0,0.0,0.0,0.0,0.0,0.0,0.0,0.0,0.0,0.0,0.0,0.0,0.0,0.0,0.0,0.0,0.0,0.0,0.0,0.0,0.0,0.0,0.0,0.0,0.0,0.0,0.0,0.0,0.0,0.0,0.0,0.0,0.0,0.0,0.0,0.0,0.0,0.0,0.0,0.0,0.0,0.0,0.0,0.0,0.0,0.0,0.0,0.0,0.0,0.0,0.0,0.0,0.0,0.0,0.0,0.0,0.0,0.0,0.0,0.0,0.0,0.0,-2.3471,-2.7555,-3.0456,-3.0525,-3.0864,-3.0419,-2.8824,-2.7409,-2.5821,-2.3858,0.0,0.0,0.0,0.0,0.0,0.0,0.0,0.0,0.0,0.0,0.0,0.0,0.0,0.0,0.0,0.0,0.0,0.0,0.0,0.0,0.0,0.0,0.0,0.0,0.0,0.0,0.0,0.0,0.0,0.0,0.0,0.0,0.0,0.0,0.0,0.0,0.0,0.0,0.0,0.0,0.0,0.0,0.0,0.0,0.0,0.0,0.0,0.0,0.0,0.0,0.0,0.0,0.0,0.0,0.0,0.0,0.0,0.0,0.0,0.0,-2.2893,0.0,0.0,0.0,0.0,0.0,0.0,0.0,0.0,0.0,0.0,0.0,0.0,0.0,0.0,0.0,0.0,0.0,0.0,0.0,0.0,0.0,0.0,0.0,0.0,0.0,0.0,0.0,0.0,0.0,0.0,0.0,0.0,0.0,0.0,0.0,0.0,0.0,0.0,0.0,0.0,0.0,-2.3372,-2.6385,-2.8661,-2.9309,-2.8903,-2.7741,-2.5666,-2.5423,-2.4365,-2.1945,-2.1531,0.0,0.0,0.0,0.0,0.0,0.0,0.0,0.0,0.0,0.0,0.0,0.0,0.0,0.0,0.0,0.0,0.0,0.0,0.0,0.0,0.0,0.0,0.0,0.0,0.0,0.0,0.0,0.0,0.0,0.0,0.0,0.0,0.0,0.0,0.0,0.0,0.0,0.0,0.0,0.0,0.0,0.0,0.0,0.0,0.0,0.0,0.0,0.0,0.0,0.0,0.0,0.0,0.0,0.0,0.0,0.0,0.0,0.0,0.0,0.0,-2.3892,0.0,0.0,0.0,0.0,0.0,0.0,0.0,0.0,0.0,0.0,0.0,0.0,0.0,0.0,0.0,0.0,0.0,0.0,0.0,0.0,0.0,0.0,0.0,0.0,0.0,0.0,0.0,0.0,0.0,0.0,0.0,0.0,0.0,0.0,0.0,0.0,0.0,0.0,0.0,0.0,-2.3794,-2.6212,-2.8094,-2.8908,-2.8281,-2.7046,-2.5186,-2.4863,-2.4037,-2.2372,-2.172,0.0,0.0,0.0,0.0,0.0,0.0,0.0,0.0,0.0,0.0,0.0,0.0,0.0,0.0,0.0,0.0,0.0,0.0,0.0,0.0,0.0,0.0,0.0,0.0,0.0,0.0,0.0,0.0,0.0,0.0,0.0,0.0,0.0,0.0,0.0,0.0,0.0,0.0,0.0,0.0,0.0,0.0,0.0,0.0,0.0,0.0,0.0,0.0,0.0,0.0,0.0,0.0,0.0,-2.9499,-2.9651,-3.0144,-2.9447,-2.9159,-2.9145,-2.8945,-2.8165,-2.693,-2.5656,0.0,0.0,0.0,0.0,0.0,0.0,0.0,0.0,0.0,0.0,0.0,0.0,0.0,0.0,0.0,0.0,0.0,0.0,0.0,0.0,0.0,0.0,0.0,0.0,-2.5998,-2.5338,-2.3632,0.0,0.0,0.0,0.0,0.0,0.0,0.0,0.0,0.0,0.0,0.0,-2.3798,-2.6039,-2.7749,-2.8451,-2.7971,-2.6961,-2.5411,-2.4799,-2.4135,-2.3257,-2.207,-2.1326,0.0,0.0,0.0,0.0,0.0,0.0,0.0,0.0,0.0,0.0,0.0,0.0,0.0,0.0,0.0,0.0,0.0,0.0,0.0,0.0,0.0,0.0,0.0,0.0,0.0,0.0,0.0,0.0,0.0,0.0,0.0,0.0,-2.4446,-2.6066,0.0,0.0,0.0,0.0,0.0,0.0,0.0,0.0,0.0,0.0,0.0,0.0,0.0,-2.8656,-3.0641,-3.1989,-3.273,-3.2848,-3.473,-3.5301,-3.4721,-3.4619,-3.4568,-3.4484,-3.3243,0.0,-2.8612,-2.7677,0.0,0.0,0.0,0.0,0.0,0.0,0.0,0.0,0.0,0.0,0.0,0.0,0.0,0.0,0.0,0.0,0.0,0.0,0.0,0.0,0.0,0.0,-2.9597,-2.8738,-2.7537,-2.6657,0.0,-2.3705,-2.0719,-2.0867,-1.9742,0.0,0.0,0.0,0.0,0.0,0.0,0.0,-2.1939,-2.4475,-2.6336,-2.6636,-2.6774,-2.6068,-2.4116,-2.4289,-2.3915,-2.2533,-2.2245,-2.187,-2.1224,-2.21,0.0,0.0,0.0,0.0,0.0,0.0,0.0,0.0,0.0,0.0,0.0,0.0,0.0,0.0,0.0,0.0,0.0,0.0,0.0,0.0,0.0,0.0,0.0,0.0,0.0,0.0,0.0,0.0,0.0,-2.5171,-2.6781,-2.6346,-2.7843,-2.7811,0.0,0.0,0.0,0.0,0.0,0.0,0.0,0.0,0.0,-3.0863,-3.1743,-3.2658,-3.3656,-3.5182,-3.6146,-3.6569,-3.755,-3.8058,-3.8108,-3.7702,-3.7516,-3.7449,-3.64,-3.4962,-3.3194,-3.0684,-2.9334,-2.8613,0.0,0.0,0.0,0.0,-2.5386,-2.6019,-2.6504,-2.7471,-2.839,-2.7725,0.0,0.0,0.0,0.0,0.0,0.0,0.0,-2.6123,0.0,0.0,-2.9827,-3.0664,-3.0025,-2.9194,-2.9108,-2.6603,-2.423,0.0,-2.2247,-2.0904,-2.0431,0.0,0.0,0.0,0.0,-2.2313,-2.3132,-2.4585,-2.5743,-2.6254,-2.5717,-2.4855,-2.3786,-2.3568,-2.3152,-2.235,-2.2296,-2.2175,-2.1837,-2.2392,-2.2134,0.0,0.0,0.0,0.0,0.0,0.0,0.0,0.0,0.0,0.0,0.0,0.0,0.0,0.0,0.0,0.0,0.0,0.0,0.0,0.0,0.0,0.0,0.0,0.0,0.0,0.0,0.0,0.0,-2.6958,-2.8573,-2.7036,-2.9719,-3.0294,0.0,0.0,0.0,0.0,0.0,0.0,-3.0666,-3.2239,-3.3173,-3.3186,-3.5334,-3.6546,-3.6755,-3.7889,-3.8734,-3.9276,-3.9276,-3.9571,-4.0079,-3.9537,-3.9276,-3.9242,-3.87,-3.8041,-3.71,-3.3508,-3.1497,-3.0492,-2.9183,-2.8235,-2.7621,-2.7589,-2.7807,-2.8315,-2.9651,-3.0717,-3.1326,-3.0431,-3.0008,-2.9467,-2.7385,0.0,0.0,0.0,0.0,-2.7358,-2.8957,-2.9389,-2.9886,-3.1844,-3.1887,-3.1275,-3.0548,-2.8883,-2.7228,0.0,-2.4554,-2.3021,-2.1866,0.0,0.0,0.0,0.0,-2.2978,-2.3696,-2.4492,-2.514,-2.5577,-2.4767,-2.3965,-2.338,-2.2851,-2.2417,-2.2125,-2.212,-2.2163,-2.2296,-2.2487,-2.2279,-2.1608,0.0,0.0,0.0,0.0,0.0,0.0,0.0,0.0,0.0,0.0,0.0,0.0,0.0,0.0,0.0,0.0,0.0,0.0,0.0,0.0,0.0,0.0,0.0,0.0,0.0,0.0,0.0,0.0,0.0,-2.9094,-3.3196,0.0,0.0,0.0,0.0,-3.2124,-3.273,-3.3795,-3.5194,-3.5363,-3.6417,-3.8531,-3.8751,-3.9157,-3.9876,-3.996,-4.0011,-4.0045,-4.0045,-4.0062,-4.0096,-4.0062,-4.0045,-4.0045,-4.0011,-3.9571,-3.865,-3.5588,-3.4307,-3.402,-3.187,-3.1413,-3.1822,-3.0429,-3.0818,-3.1836,-3.0548,-3.1038,-3.2361,-3.2983,-3.2696,-3.1853,-3.0328,-2.903,0.0,0.0,-2.8622,-2.934,-3.019,-3.1247,-3.2138,-3.2276,-3.2276,-3.2039,-3.1292,-2.9618,-2.7957,0.0,-2.538,-2.3952,-2.3297,0.0,-2.3309,-2.0989,-2.2298,-2.3128,-2.1994,-2.3371,-2.4261,-2.379,-2.4002,-2.3708,-2.2474,-2.2223,-2.1989,-2.1646,-2.1643,-2.184,-2.2282,-2.2307,-2.2422,-2.2617,-2.1712,0.0,0.0,0.0,0.0,0.0,0.0,0.0,0.0,0.0,0.0,0.0,0.0,0.0,0.0,0.0,0.0,0.0,0.0,0.0,0.0,0.0,0.0,0.0,0.0,0.0,0.0,0.0,0.0,-3.1295,-3.4034,0.0,-3.2344,-3.3705,-3.4524,-3.4008,-3.543,-3.6738,-3.7736,-3.8244,-3.8853,-3.969,-3.9723,-3.9842,-4.0096,-4.0096,-4.0096,-4.0096,-4.0096,-4.0096,-4.0096,-4.0096,-4.0096,-4.0096,-4.0096,-3.996,-3.9605,-3.8024,-3.711,-3.6569,-3.5306,-3.4967,-3.5069,-3.4032,-3.396,-3.4353,-3.3808,-3.3977,-3.4238,-3.3117,-3.2232,-3.1418,-3.0442,-3.0486,-3.0838,-3.0858,-3.1732,-3.2719,-3.2992,-3.3389,-3.3613,-3.3119,-3.2666,-3.2107,-3.136,-3.0653,-2.9951,-2.923,-2.6893,-2.5233,-2.5837,-2.5487,-2.4708,-2.34,-2.3797,-2.4081,-2.3618,-2.3752,-2.3815,-2.3616,-2.3386,-2.2994,-2.2358,-2.1866,-2.1476,-2.123,-2.1213,-2.1291,-2.1462,-2.1462,-2.1627,-2.1991,-2.2109,-2.1437,0.0,0.0,0.0,0.0,0.0,0.0,0.0,0.0,0.0,0.0,0.0,0.0,0.0,0.0,0.0,0.0,0.0,0.0,0.0,0.0,0.0,0.0,0.0,0.0,0.0,0.0,-3.2193,-3.2507,-3.4993,-3.6149,-3.482,-3.5687,-3.6523,-3.6993,-3.8023,-3.8853,-3.9368,-3.9842,-4.0096,-4.0096,-4.0096,-3.9978,-3.9705,-3.9952,-3.9952,-3.9705,-3.9978,-4.0096,-4.0096,-4.0096,-3.9842,-3.9402,-3.9893,-3.9825,-3.9343,-3.9385,-3.9073,-3.8531,-3.755,-3.7161,-3.7094,-3.6586,-3.6377,-3.6326,-3.6096,-3.6011,-3.574,-3.4034,-3.3115,-3.2596,-3.2162,-3.25,-3.3089,-3.3339,-3.3761,-3.4235,-3.4742,-3.4692,-3.4303,-3.3592,-3.3034,-3.2412,-3.141,-3.0853,-3.0516,-3.0344,-2.859,-2.7105,-2.7111,-2.6614,-2.5795,-2.447,-2.4282,-2.4154,-2.3733,-2.3445,-2.3223,-2.3044,-2.2822,-2.2541,-2.2125,-2.133,-2.0811,-2.0763,-2.0633,-2.0682,-2.0991,-2.0655,-2.0591,-2.0855,-2.0987,-2.0524,-1.946,0.0,0.0,0.0,0.0,0.0,0.0,0.0,0.0,0.0,0.0,0.0,0.0,0.0,0.0,0.0,0.0,0.0,0.0,0.0,0.0,0.0,0.0,0.0,-2.6534,-3.1255,-3.4202,-3.2733,-3.6269,-3.8795,-3.8838,-3.9517,-4.0287,-4.1152,-4.051,-4.0096,-4.0096,-4.0037,-4.0003,-4.0003,-4.0003,-3.9621,-3.8842,-3.9671,-3.9705,-3.8908,-3.9731,-4.007,-4.007,-4.007,-3.9334,-3.8058,-3.9486,-3.9276,-3.8091,-3.952,-4.0096,-3.996,-3.8531,-3.7973,-3.7973,-3.7915,-3.7858,-3.7746,-3.7009,-3.6738,-3.6597,-3.5791,-3.5554,-3.5554,-3.5554,-3.5053,-3.4653,-3.538,-3.4568,-3.3791,-3.5228,-3.5081,-3.4336,-3.3609,-3.3423,-3.3,-3.1546,-3.0246,-2.9551,-3.0182,-3.0293,-2.9517,-2.698,-2.71,-2.6626,-2.4123,-2.3766,0.0,-2.2171,-2.2452,-2.256,-2.204,-2.2425,-2.2443,-2.1784,-2.0611,-2.0024,-2.0275,-1.9851,-2.0008,-2.0926,-1.9956,-1.9421,-1.9452,-1.8407,-1.873,-2.0436,0.0,0.0,0.0,0.0,0.0,0.0,0.0,0.0,0.0,0.0,0.0,0.0,0.0,0.0,0.0,0.0,0.0,0.0,0.0,0.0,0.0,-2.8985,-3.112,-3.159,-3.2524,-3.3884,-3.5936,-3.778,-3.9047,-3.9546,-4.0348,-4.0935,-4.1178,-4.051,-4.0096,-4.0096,-3.8656,-3.7853,-3.7853,-3.7853,-3.7752,-3.7514,-3.9236,-3.9705,-3.8908,-3.9731,-3.9782,-3.9262,-3.9833,-3.9893,-3.9537,-3.9926,-3.9876,-3.9537,-3.9943,-4.0096,-4.0062,-3.9656,-3.9503,-3.9361,-3.8244,-3.716,-3.6198,-3.5996,-3.5618,-3.5089,-3.4391,-3.4153,-3.4153,-3.4153,-3.4348,-3.4715,-3.5419,-3.5312,-3.5092,-3.5481,-3.5447,-3.5115,-3.437,-3.3795,-3.3136,-3.2209,-3.1294,-3.0587,-3.0344,-3.0293,-2.9783,-2.8232,-2.7752,-2.7342,-2.6606,-2.6093,0.0,-2.469,-2.4296,-2.4022,-2.3867,-2.3164,-2.2636,-2.2437,-2.1234,-2.0298,-1.9896,-1.9749,-1.9803,-2.005,-1.9765,-2.0026,-2.0916,-2.0065,-2.0142,0.0,0.0,0.0,0.0,0.0,0.0,0.0,0.0,0.0,0.0,0.0,0.0,0.0,0.0,0.0,0.0,0.0,0.0,0.0,0.0,0.0,0.0,-3.1171,-3.3458,-3.4712,-3.4485,-3.5049,-3.7247,-3.796,-3.8779,-4.0103,-4.0745,-4.1221,-4.1598,-4.1266,-4.1027,-4.1027,-3.9874,-3.867,-3.7509,-3.832,-3.8033,-3.6509,-3.8874,-3.9705,-3.8908,-3.9731,-3.9876,-3.9411,-3.9901,-3.9774,-3.9208,-3.9842,-3.9757,-3.9249,-3.9859,-4.0096,0.0,0.0,0.0,0.0,0.0,-3.8022,-3.6898,-3.6311,-3.5662,-3.4908,-3.3902,-3.3582,-3.3582,-3.3582,-3.3467,-3.3475,-3.4159,-3.4106,-3.3946,-3.4273,-3.4532,-3.4547,-3.3822,-3.3311,-3.2787,-3.2035,-3.1106,-3.0312,-2.9994,-2.9496,0.0,-2.8249,-2.7799,-2.7379,-2.6831,-2.6213,-2.5475,-2.4583,-2.433,-2.4027,-2.3504,-2.2996,-2.259,-2.2288,-2.1102,0.0,0.0,0.0,-1.9269,-1.904,-1.9025,0.0,0.0,0.0,-1.9831,-2.1284,0.0,0.0,0.0,-2.0628,-2.0007,0.0,0.0,0.0,0.0,0.0,0.0,0.0,0.0,0.0,0.0,0.0,0.0,0.0,0.0,0.0,0.0,-3.323,-3.4487,-3.6327,-3.6744,-3.7013,-3.7462,-3.7518,-3.8364,-4.0483,-4.0926,-4.1376,-4.2144,-4.2266,-4.2286,-4.2286,0.0,0.0,0.0,0.0,-3.9418,-3.6206,-3.887,-3.9822,-3.9023,-3.9764,-4.0045,-3.9969,-4.0045,-3.9402,-3.8227,-3.9537,-3.9368,-3.8261,-3.9571,-4.0045,-3.9978,-4.007,-4.0045,-3.9952,-3.9868,-3.9347,-3.8444,-3.7133,0.0,0.0,-3.3979,-3.3507,-3.3391,-3.3453,-3.2668,-3.1846,-3.2528,-3.2236,-3.1888,-3.253,-3.3113,-3.3361,-3.2763,-3.2464,-3.2134,-3.1462,-3.0267,-2.9312,-2.9317,-2.8378,-2.7619,-2.7605,-2.7548,-2.7126,-2.6008,-2.5364,-2.4592,-2.3358,-2.3624,-2.3484,-2.2338,0.0,0.0,-2.1859,-2.0684,-1.99,-1.9717,-1.9244,-1.8807,-1.84,-1.8389,-1.8252,-1.7969,-1.804,-1.9108,-2.1184,-2.1257,-2.2428,-2.453,-2.162,-2.0887,0.0,0.0,0.0,0.0,0.0,0.0,0.0,0.0,0.0,0.0,0.0,0.0,0.0,0.0,0.0,-3.2856,-3.4745,-3.6222,-3.7105,-3.7862,-3.8275,-3.8197,-3.8354,-3.9038,-4.0551,-4.1452,-4.2026,-4.2173,-4.2266,-4.2286,-4.2286,-4.0709,-3.9548,-3.8984,-3.9398,-3.9252,-3.8539,-4.0158,-4.0611,-3.9869,0.0,0.0,-3.9139,-3.9808,-3.9943,-3.9706,-3.9977,-3.9943,-3.9706,-3.9994,-3.9731,-3.9209,-3.985,-3.9688,-3.9073,-3.8467,-3.7785,-3.6998,-3.6135,-3.4999,-3.3883,-3.3606,-3.2782,-3.202,-3.2614,-3.26,0.0,-3.323,-3.3308,-3.3214,-3.3361,-3.3492,-3.3523,-3.3346,-3.2456,-3.1625,-3.1407,-3.0326,-2.9246,-2.8764,-2.8474,-2.8165,-2.7695,-2.7605,-2.7494,-2.725,-2.7111,-2.656,-2.525,-2.5167,-2.4944,-2.4171,-2.3245,-2.2644,-2.2527,-2.1307,-2.0297,-1.9746,-1.9603,-1.9726,-2.0191,-2.0206,-2.0406,-2.0882,-2.1421,-2.1921,-2.2355,-2.2861,-2.3612,-2.459,-2.3947,-2.3797,0.0,0.0,0.0,0.0,0.0,0.0,0.0,0.0,0.0,0.0,0.0,-2.4845,-2.6329,0.0,-3.1279,-3.3413,-3.5537,-3.7335,-3.8412,-3.8827,-3.8884,-3.8447,-3.8855,-3.9408,-3.9989,-4.0899,-4.1627,-4.2079,-4.2534,-4.2998,-4.3436,-4.2465,-4.1237,-3.9806,-4.0775,-4.0625,-3.9226,-4.0538,-4.103,-4.0635,-4.0272,-3.9901,-3.9516,-3.9927,-4.0096,-4.0096,-4.0096,-4.0096,-4.007,-3.9662,-3.9262,-3.8908,-3.8941,-3.8707,-3.8298,-3.7957,-3.7319,-3.656,-3.5839,-3.4692,-3.3451,-3.3116,-3.2324,-3.1553,-3.1923,-3.1591,-3.1228,-3.1871,-3.181,-3.164,-3.1964,-3.2279,-3.2421,-3.2075,-3.1476,-3.0882,-3.052,-2.9902,-2.9225,-2.863,-2.8487,-2.831,-2.771,-2.76,-2.76,-2.76,-2.7315,-2.6746,-2.5734,-2.5307,-2.4829,-2.4156,-2.326,-2.2545,-2.2233,-2.1286,-2.0696,-2.0688,-2.0711,-2.0842,-2.1201,-2.1201,-2.1515,-2.2194,-2.2523,-2.2853,-2.3152,-2.3445,-2.4118,-2.5098,-2.5098,-2.5098,0.0,0.0,0.0,0.0,0.0,0.0,0.0,0.0,-2.5024,-2.536,-2.5563,-2.6146,-2.7755,-2.9804,-3.1966,-3.4045,-3.601,-3.7828,-3.9422,-3.9656,-3.9399,-3.8682,-3.9203,-3.9635,-3.9616,-4.0368,-4.1203,-4.1933,-4.2947,-4.38,-4.4559,-4.4615,-4.3558,-4.12,-4.2751,-4.2526,-4.0267,-4.1011,-4.1407,-4.1407,-4.0536,-4.0096,-4.0096,-4.0096,-4.0096,-4.0096,-4.0096,-4.0096,-4.002,-3.9059,-3.869,-3.8608,-3.7719,-3.7354,-3.7383,-3.7515,-3.716,-3.6507,-3.5814,-3.4653,-3.341,-3.2886,-3.2138,-3.1511,-3.1511,-3.0763,-3.0058,-3.0567,-3.0303,-3.0,-3.0556,-3.0955,-3.1087,-3.0631,-3.0316,-2.9966,-2.9438,-2.9171,-2.8904,-2.8415,-2.8334,-2.8165,-2.7685,-2.76,-2.76,-2.76,-2.7151,-2.6497,-2.5704,-2.5128,-2.4485,-2.3684,-2.3167,-2.2613,-2.1934,-2.1276,-2.1126,-2.1665,-2.1695,-2.1754,-2.1874,-2.1889,-2.2188,-2.2868,-2.3002,-2.3295,-2.3804,-2.3924,-2.4612,-2.5794,-2.5794,-2.5794,-2.7433,-2.6915,0.0,-2.8223,-2.7871,-2.7796,0.0,0.0,-2.7795,-2.7367,-2.7906,-2.8633,-2.9192,-3.0738,-3.2752,-3.5339,-3.6396,-3.747,-3.9185,-4.0069,-4.0243,-3.9376,-3.9361,-3.9667,-4.0217,-4.1102,-4.17,-4.1981,-4.3372,-4.4301,-4.4575,-4.4615,-4.4451,-4.4142,-4.435,-4.4316,-4.4007,-4.2784,-4.2168,-4.2151,-4.0773,-4.0096,-4.0096,-4.0096,-4.0096,-4.0096,-4.0096,-4.0096,-3.9995,-3.8513,-3.7921,-3.7777,-3.6305,-3.5765,-3.5861,-3.6477,-3.6676,-3.6492,-3.574,-3.461,-3.3484,-3.341,-3.2512,-3.1511,-3.1511,-3.1406,-3.1301,-3.1376,-3.1329,-3.1282,-3.1375,-3.0984,-3.0591,-3.0519,-2.9646,-2.8787,-2.8645,-2.8186,-2.7785,-2.771,-2.7685,-2.7685,-2.761,-2.76,-2.76,-2.76,-2.754,-2.7031,-2.5764,-2.5516,-2.5016,-2.3744,-2.3535,-2.3236,-2.2643,-2.1964,-2.162,-2.1695,-2.1695,-2.1984,-2.2568,-2.2583,-2.2882,-2.349,-2.4081,-2.4425,-2.4485,-2.5083,-2.5764,-2.6482,-2.6482,-2.6482,-2.9564,0.0,0.0,0.0,-3.0058,-2.9929,-3.0283,-2.9254,-2.826,-2.8349,-2.8657,-2.9164,-2.9985,-3.1173,-3.2787,0.0,-3.6294,-3.758,-3.9818,-4.036,-4.0416,-4.0196,-3.9702,-3.9364,-3.9245,-4.0266,-4.1025,-4.1227,-4.307,-4.4265,-4.4421,-4.4937,-4.5026,-4.4615,-4.4615,-4.4615,-4.4615,-4.3504,-4.2726,-4.2286,-4.1238,-4.0536,-4.0096,-4.0096,-3.9833,-3.9385,-3.8941,-3.8778,-3.8695,-3.7557,-3.7084,-3.701,-3.5926,-3.5504,-3.5537,-3.5846,-3.5943,-3.5926,-3.5619,-3.4876,-3.4039,-3.3619,-3.2871,-3.2004,-3.1615,-3.1511,-3.1511,-3.1511,-3.1511,-3.1511,-3.1511,-3.1286,-3.0893,-3.0167,-2.9569,-2.8955,-2.8162,-2.7785,-2.76,-2.76,-2.76,-2.76,-2.76,-2.76,-2.76,-2.76,-2.727,-2.6662,-2.5734,-2.5247,-2.4649,-2.3699,-2.3302,-2.3122,-2.3227,-2.2643,-2.2433,-2.2772,-2.2802,-2.2921,-2.3206,-2.3206,-2.3535,-2.4156,-2.4455,-2.4784,-2.5173,-2.5457,-2.5944,-2.6587,-2.6587,-2.6821,-3.0503,0.0,0.0,-3.1511,-3.1616,-3.1309,-3.0703,-2.953,-2.8687,-2.9089,-2.9126,-2.9415,-3.0244,-3.1162,-3.2644,-3.506,-3.6117,-3.7556,-4.0252,-4.0323,-4.0037,-3.9814,-3.9234,-3.8527,-3.7674,-3.929,-4.0559,-4.0947,-4.3092,-4.438,-4.4333,-4.5215,-4.5449,-4.4936,-4.4716,-4.4615,-4.4615,-4.3606,-4.2929,-4.2591,-4.1441,-4.0713,-4.0375,-3.996,-3.9463,-3.8854,-3.8121,-3.7793,-3.7719,-3.6934,-3.6615,-3.6523,-3.5782,-3.5504,-3.5504,-3.5504,-3.5504,-3.5504,-3.5504,-3.5055,-3.4399,-3.3709,-3.3051,-3.2363,-3.1705,-3.1511,-3.1511,-3.1511,-3.1511,-3.1511,-3.1511,-3.1241,-3.0746,-2.9804,-2.9322,-2.8783,-2.7809,-2.76,-2.76,-2.76,-2.76,-2.76,-2.76,-2.76,-2.76,-2.76,-2.7195,-2.6581,-2.5719,-2.4844,-2.4126,-2.3655,-2.3212,-2.3137,-2.3565,-2.3212,-2.3206,-2.3849,-2.3879,-2.3879,-2.3879,-2.4059,-2.4298,-2.459,-2.4963,-2.5382,-2.5884,-2.6063,-2.6393,-2.6881,-2.6881,-2.7151,0.0,0.0,-3.0073,-3.2003,-3.1553,-3.0959,-3.2226,-3.1066,-2.9741,-2.9767,-2.9767,-2.9779,-2.9817,-3.0698,-3.2323,-3.5129,-3.5928,-3.719,-4.0025,-3.9828,-3.896,-3.7648,-3.7464,-3.6985,0.0,-3.8512,-4.0755,-4.1623,-4.3785,-4.4847,-4.4426,-4.5244,-4.5703,-4.5669,-4.4959,-4.4615,-4.4615,-4.3081,-4.2675,-4.3325,-4.1153,-4.0519,-4.1127,-3.9621,-3.8908,-3.8854,-3.8121,-3.7793,-3.7719,-3.6934,-3.6615,-3.6523,-3.5782,-3.5504,-3.5504,-3.5504,-3.5504,-3.5504,-3.5504,-3.5055,-3.4399,-3.3709,-3.3051,-3.2363,-3.1705,-3.1511,-3.1511,-3.1511,-3.1511,-3.1511,-3.1511,-3.0597,-2.9651,-2.9621,-2.8618,-2.7645,-2.76,-2.76,-2.76,-2.76,-2.76,-2.76,-2.76,-2.76,-2.76,-2.76,-2.7585,-2.7091,-2.5779,-2.4448,-2.3625,-2.3595,-2.358,-2.358,-2.3595,-2.358,-2.3864,-2.453,-2.4575,-2.4575,-2.4575,-2.5187,-2.5232,-2.4619,-2.5884,-2.6542,-2.6557,-2.7225,-2.754,-2.757,-2.757,-2.757,0.0,0.0,-3.1794,-3.2886,-3.3001,-3.2973,-3.3433,-3.2083,-3.0733,-3.0733,-2.9347,-2.8247,-2.8612,-2.8674,-2.9576,-3.2316,-3.3731,-3.5442,-3.8298,-3.8322,-3.7913,-3.7464,-3.7045,0.0,0.0,0.0,0.0,-3.9496,-4.2437,-4.3745,-4.2667,-4.3896,-4.4501,-4.4125,-4.3331,-4.3152,-4.3726,-4.266,-4.1983,-4.1708,-4.0029,-3.9128,-3.89,-3.7841,-3.7379,-3.732,-3.6585,-3.6258,-3.6258,-3.599,-3.5863,-3.5846,-3.5587,-3.5504,-3.5504,-3.5504,-3.5504,-3.5504,-3.5504,-3.5355,-3.504,-3.4367,-3.3709,-3.3036,-3.2377,-3.1854,-3.1511,-3.1511,-3.1182,-3.0851,-3.0851,-3.0223,-2.9502,-2.9026,-2.8592,-2.8128,-2.7705,-2.76,-2.76,-2.76,-2.76,-2.76,-2.76,-2.76,-2.745,-2.7001,-2.6941,-2.6752,-2.6318,-2.5091,-2.4261,-2.4261,-2.3879,-2.3595,-2.3595,-2.4007,-2.435,-2.459,-2.5008,-2.5247,-2.5247,-2.5495,-2.5704,-2.5929,-2.6363,-2.6811,-2.727,-2.748,-2.76,-2.76,-2.76,-2.76,0.0,-3.1913,-3.308,-3.3993,-3.4094,-3.3993,-3.3993,-3.2558,-3.1225,-3.1328,-2.9742,-2.8324,-2.8237,-2.8145,-2.8766,-3.1003,-3.2468,-3.4397,-3.7451,-3.7803,-3.7674,-3.7434,-3.706,-3.6881,0.0,0.0,0.0,-3.8377,-4.1316,-4.257,-4.1453,-4.2635,-4.3347,-4.3239,-4.2413,-4.2252,-4.2816,-4.2011,-4.1134,-4.0144,-3.9519,-3.8704,-3.7793,-3.7501,-3.6858,-3.5933,-3.6215,-3.5748,-3.488,-3.5918,-3.6005,-3.5537,-3.5782,-3.5718,-3.5504,-3.5504,-3.5504,-3.5504,-3.5504,-3.5504,-3.5355,-3.4427,-3.3844,-3.332,-3.2437,-3.1839,-3.1511,-3.1511,-3.1182,-3.0866,-3.0866,-3.0387,-2.9804,-2.9385,-2.8936,-2.8472,-2.8064,-2.7764,-2.766,-2.7885,-2.776,-2.7675,-2.787,-2.7735,-2.745,-2.7031,-2.6971,-2.6767,-2.6303,-2.5495,-2.4963,-2.4963,-2.456,-2.4313,-2.4313,-2.4694,-2.5053,-2.5292,-2.5734,-2.5959,-2.5959,-2.6183,-2.6393,-2.6587,-2.6851,-2.718,-2.76,-2.76,-2.76,-2.76,-2.76,-2.76,-3.2706,-3.3453,-3.3841,-3.519,-3.4758,-3.4061,-3.4061,-3.265,-3.1359,-3.157,-3.0769,-2.9671,0.0,0.0,-2.9623,-3.1017,-3.206,-3.387,-3.7345,-3.8082,-3.8073,0.0,0.0,0.0,0.0,0.0,0.0,-3.8347,0.0,-4.1453,-4.0758,-4.1543,-4.2317,-4.2941,-4.2269,-4.1901,-4.1933,-4.1199,-4.0148,-3.8794,-3.9508,-3.9093,-3.7756,-3.8439,-3.7291,-3.4905,-3.6901,-3.6201,-3.3863,-3.6566,-3.6814,-3.5554,-3.6275,-3.6117,-3.5504,-3.5504,-3.5504,-3.5504,-3.5504,-3.5504,-3.5295,-3.4023,-3.3559,-3.326,-3.1989,-3.1555,-3.1511,-3.1511,-3.1481,-3.1451,-3.1451,-3.0943,-3.0447,-3.0447,-2.9505,-2.8607,-2.8637,-2.8135,-2.7825,-2.8438,-2.8073,-2.781,-2.8359,-2.7968,-2.76,-2.76,-2.76,-2.7151,-2.5869,-2.5674,-2.5659,-2.5659,-2.563,-2.5615,-2.5615,-2.5621,-2.5929,-2.6557,-2.6617,-2.6632,-2.6632,-2.727,-2.73,-2.6647,-2.7285,-2.76,-2.76,-2.76,-2.76,-2.76,-2.76,-2.76,-3.1404,-3.2826,-3.412,-3.5237,-3.5326,-3.5133,-3.5133,-3.3811,-3.2478,-3.2042,-2.9821,-2.7561,0.0,0.0,0.0,-2.761,-2.9587,0.0,-3.4896,-3.6004,0.0,-3.7316,0.0,-3.7345,-3.7195,-3.7764,0.0,0.0,-3.9871,-4.0468,-3.9788,-4.0426,-4.0977,-4.1312,-4.0505,-4.0378,-4.1013,-4.0209,-3.9356,-3.8488,-3.8689,-3.8095,-3.6863,-3.7576,-3.725,-3.6149,-3.6673,-3.6474,-3.583,-3.6011,-3.5846,-3.5537,-3.5701,-3.5668,-3.5504,-3.5504,-3.5504,-3.5504,-3.5504,-3.5504,-3.5444,-3.51,-3.4307,-3.344,-3.3095,-3.2273,-3.1511,-3.1511,-3.1137,-3.0761,-3.0761,-3.0298,-2.9846,-2.9846,-2.919,-2.8742,-2.922,-2.8768,-2.8473,-2.9128,-2.8722,-2.8189,-2.7885,-2.771,-2.76,-2.76,-2.76,-2.748,-2.7136,-2.6632,-2.6348,-2.6348,-2.5899,-2.5615,-2.5615,-2.6063,-2.6408,-2.6572,-2.7076,-2.7345,-2.7345,-2.751,-2.7525,-2.7345,-2.751,-2.76,-2.76,-2.76,-2.76,-2.76,-2.76,-2.76,-3.149,-3.2892,-3.4129,-3.4691,-3.5166,-3.528,-3.4397,-3.3167,-3.1985,-3.1155,-2.9185,0.0,0.0,0.0,0.0,0.0,0.0,0.0,-3.368,-3.5127,-3.6496,0.0,-3.8287,0.0,-3.9095,-3.9484,-3.9574,0.0,-3.9424,-3.9499,-3.9388,-3.9484,-3.9706,-4.0115,-3.9646,-3.9646,-4.0115,-3.9329,-3.8631,-3.7958,-3.7958,-3.7285,-3.6091,-3.7498,-3.7064,-3.534,0.0,-3.6693,-3.5324,-3.6168,-3.6116,-3.5537,-3.5863,-3.5782,-3.5504,-3.5504,-3.5504,-3.5504,-3.5504,-3.5504,-3.5459,-3.516,-3.4337,-3.344,-3.3155,-3.2318,-3.1511,-3.1511,-3.1227,-3.0956,-3.0956,-3.0702,-3.0432,-3.0432,-2.9924,-2.9642,-3.0327,-2.9659,-2.8952,-2.9045,-2.8974,-2.8614,-2.776,-2.76,-2.76,-2.76,-2.76,-2.76,-2.76,-2.727,-2.7046,-2.7046,-2.6692,-2.6467,-2.6467,-2.6811,-2.7046,-2.7046,-2.739,-2.76,-2.76,-2.76,-2.76,-2.76,-2.76,-2.76,-2.76,-2.76,-2.76,-2.76,-2.76,-2.76,-3.2083,-3.3157,-3.3908,-3.3973,-3.4699,-3.4891,-3.3066,-3.1792,-3.0757,-2.9801,0.0,-2.7908,-2.7445,-2.7286,-2.7319,-2.7615,0.0,-3.0465,-3.3165,-3.4981,-3.6816,-3.8996,-3.9364,-3.9933,-4.125,-4.122,-4.0995,-4.0681,-3.9499,-3.9005,-3.9529,-3.8975,-3.8886,-3.9373,-3.9388,-3.9388,-3.9388,-3.8736,-3.8108,-3.7539,-3.7449,-3.6791,-3.5719,-3.7731,-3.6905,-3.4091,-3.723,-3.6813,-3.4091,-3.6495,-3.6723,-3.5554,-3.6196,-3.6054,-3.5504,-3.5504,-3.5504,-3.5504,-3.5504,-3.5504,-3.54,-3.4801,-3.4098,-3.341,-3.2916,-3.2168,-3.1525,-3.1615,-3.157,-3.1511,-3.1511,-3.1511,-3.1524,-3.1611,-3.1142,-3.0867,-3.1688,-3.0822,-2.9621,-2.877,-2.9111,-2.9111,-2.782,-2.7675,-2.7685,-2.761,-2.76,-2.76,-2.76,-2.76,-2.76,-2.76,-2.76,-2.76,-2.76,-2.76,-2.76,-2.76,-2.76,-2.76,-2.76,-2.76,-2.76,-2.76,-2.76,-2.76,-2.76,-2.76,-2.76,-2.76,-2.76,-2.76,-3.1296,-3.2459,-3.3589,-3.3902,-3.4347,-3.4459,-3.3529,-3.1916,0.0,0.0,-2.8576,-2.7484,-2.6804,-2.6995,0.0,-2.7865,0.0,0.0,0.0,0.0,-3.7121,0.0,0.0,0.0,0.0,0.0,0.0,0.0,-4.1332,-4.0681,-4.0247,-4.0113,-3.9858,-3.9388,-3.9388,-3.9388,-3.9388,-3.8736,-3.8332,-3.8212,-3.7659,-3.703,-3.6345,-3.7353,-3.7157,-3.6107,-3.6734,0.0,-3.6045,-3.5947,-3.5733,-3.5504,-3.5636,-3.5619,-3.5504,-3.5504,-3.5504,-3.5504,-3.5504,-3.5504,-3.5489,-3.537,-3.4502,-3.3574,-3.4008,-3.2916,-3.1615,-3.2168,-3.1929,-3.1511,-3.1511,-3.1511,-3.1668,-3.2272,-3.1886,-3.1745,-3.2986,-3.2539,-3.1378,-2.9594,-2.9739,-2.9591,-2.7894,-2.8018,-2.8174,-2.7675,-2.76,-2.76,-2.76,-2.76,-2.76,-2.76,-2.76,-2.76,-2.76,-2.76,-2.76,-2.76,-2.76,-2.76,-2.76,-2.76,-2.76,-2.76,-2.76,-2.76,-2.76,-2.76,-2.76,-2.76,-2.76,-2.76,-3.042,-3.1354,-3.2422,-3.3101,-3.3274,-3.2958,-3.1751,0.0,0.0,0.0,-2.6752,-2.6445,-2.6085,0.0,0.0,0.0,0.0,0.0,0.0,0.0,0.0,0.0,0.0,0.0,0.0,0.0,0.0,0.0,-4.1369,-4.1384,-4.1452,-4.0771,-4.0247,-3.9933,-3.9568,-3.9388,-3.9388,-3.8736,-3.8212,-3.7868,-3.724,-3.6596,-3.6001,-3.6719,-3.6692,-3.6054,-3.6446,-3.6184,-3.5521,-3.5501,-3.5295,-3.4996,-3.537,-3.5504,-3.5504,-3.5504,-3.5504,-3.5504,-3.5504,-3.5504,-3.5504,-3.5504,-3.4831,-3.4039,-3.3978,-3.3066,-3.2004,-3.1989,-3.175,-3.1511,-3.1511,-3.1511,-3.1697,-3.2437,-3.2893,-3.3124,-3.3008,-3.2714,-3.1933,-3.019,-2.9848,-2.9451,-2.8271,-2.8567,-2.8662,-2.7735,-2.7885,-2.7944,-2.765,-2.76,-2.76,-2.76,-2.76,-2.76,-2.76,-2.76,-2.76,-2.76,-2.76,-2.76,-2.76,-2.76,-2.76,-2.76,-2.76,-2.76,-2.76,-2.76,-2.76,-2.76,-2.76,-2.76,-2.9905,-3.0675,-3.1585,-3.2384,-3.2345,-3.1678,-3.016,-2.8663,0.0,0.0,-2.5113,-2.5435,-2.5561,0.0,0.0,0.0,0.0,0.0,0.0,0.0,0.0,0.0,0.0,0.0,0.0,0.0,0.0,0.0,-4.1504,-4.1968,-4.2381,-4.125,-4.0546,-4.0397,-3.9768,-3.9313,-3.92,-3.8512,-3.7853,-3.721,-3.6567,-3.6013,-3.5537,-3.6117,-3.6054,-3.5537,-3.6102,-3.5658,-3.4563,-3.522,-3.51,-3.4578,-3.5235,-3.5504,-3.5504,-3.5504,-3.5504,-3.5504,-3.5504,-3.5504,-3.5504,-3.5504,-3.504,-3.4444,-3.4038,-3.3365,-3.2617,-3.2064,-3.1929,-3.1854,-3.157,-3.1615,-3.1891,-3.2645,-3.3836,-3.4402,-3.2916,-3.2663,-3.2216,-3.0615,-3.0021,-2.9563,-2.8826,-2.9088,-2.9042,-2.7944,-2.8091,-2.814,-2.766,-2.76,-2.76,-2.76,-2.76,-2.76,-2.76,-2.76,-2.76,-2.76,-2.76,-2.76,-2.76,-2.76,-2.76,-2.76,-2.76,-2.76,-2.76,-2.76,-2.7675,-2.7809,-2.7809,-2.7884,-3.0269,-3.1216,-3.2016,-3.2494,-3.2345,-3.1794,-3.0667,0.0,0.0,-2.5809,-2.5068,-2.4874,-2.5495,-2.618,-2.7086,0.0,0.0,-2.9692,0.0,0.0,0.0,0.0,0.0,0.0,0.0,0.0,0.0,0.0,-4.308,-4.2925,-4.2425,-4.1722,-4.101,-4.0427,-3.9768,-3.9125,-3.8497,-3.7823,-3.718,-3.6567,-3.5908,-3.5564,-3.5504,-3.5554,-3.5554,-3.5504,-3.5554,-3.5164,0.0,-3.522,-3.51,-3.4578,-3.5235,-3.5504,-3.5504,-3.5504,-3.5504,-3.5504,-3.5504,-3.5504,-3.5504,-3.5504,-3.504,-3.4608,-3.5145,-3.4427,-3.3395,-3.3335,-3.332,-3.3036,-3.1809,-3.1944,-3.2579,-3.3324,-3.452,-3.511,-3.3625,-3.3305,-3.2719,-3.0695,-3.0699,-3.0679,-2.9518,-2.9361,-2.918,-2.8511,-2.7993,-2.766,-2.7625,-2.76,-2.76,-2.76,-2.76,-2.76,-2.76,-2.76,-2.76,-2.76,-2.76,-2.76,-2.76,-2.76,-2.76,-2.76,-2.76,-2.76,-2.76,-2.76,-2.7914,-2.8502,-2.8502,-2.8831,-2.9302,-3.0521,-3.1681,-3.2412,-3.1763,-3.0736,-3.0088,0.0,-2.6019,-2.4672,-2.45,-2.456,-2.4418,-2.527,-2.6303,0.0,0.0,0.0,0.0,0.0,0.0,0.0,0.0,0.0,0.0,0.0,0.0,0.0,-4.2162,-4.2222,-4.2396,-4.1767,-4.107,-4.0427,-3.9768,-3.929,-3.9005,-3.7943,-3.7285,-3.703,-3.5998,-3.5504,-3.5504,-3.5504,-3.5504,-3.5504,-3.5504,-3.4891,0.0,-3.5055,-3.4861,-3.3993,-3.5085,-3.5504,-3.5504,-3.5504,-3.5504,-3.5504,-3.5504,-3.5504,-3.5504,-3.5504,-3.5325,-3.507,-3.4936,-3.4548,-3.4039,-3.3604,-3.3215,-3.2781,-3.2228,-3.2323,-3.2733,-3.3429,-3.4325,-3.4831,-3.4182,-3.3419,-3.2589,-3.1675,-3.1041,-3.0497,-3.0021,-3.0251,-3.0038,-2.8685,-2.8591,-2.8424,-2.7685,-2.76,-2.76,-2.76,-2.76,-2.76,-2.76,-2.76,-2.76,-2.76,-2.76,-2.76,-2.76,-2.76,-2.76,-2.76,-2.8004,-2.8004,-2.76,-2.8408,-2.8738,-2.8607,-2.9011,-2.9325,-2.8545,-3.0202,-3.1852,-3.2784,-3.1561,-2.9997,0.0,0.0,-2.5285,-2.4133,-2.4261,-2.4455,-2.3984,-2.4837,-2.5824,-2.6482,0.0,-2.7886,0.0,0.0,0.0,0.0,0.0,0.0,0.0,0.0,0.0,-4.1923,-4.1953,-4.2073,-4.2381,-4.1767,-4.107,-4.0427,-3.9768,-3.932,-3.9125,-3.8182,-3.7509,-3.712,-3.6222,-3.5594,-3.5205,-3.5415,-3.5385,-3.522,-3.5415,-3.4846,0.0,-3.504,-3.4831,-3.3903,-3.5055,-3.5504,-3.5504,-3.5504,-3.5504,-3.5504,-3.5504,-3.5504,-3.5504,-3.5504,-3.5504,-3.5415,-3.4936,-3.4786,-3.4668,-3.3963,-3.317,-3.2512,-3.2512,-3.2693,-3.3013,-3.3495,-3.426,-3.4765,-3.4298,-3.3445,-3.2623,-3.2102,-3.1241,-3.0576,-3.0576,-3.0621,-3.0309,-2.9203,-2.8927,-2.8638,-2.7944,-2.771,-2.76,-2.76,-2.76,-2.76,-2.76,-2.76,-2.76,-2.76,-2.76,-2.769,-2.7899,-2.7705,-2.769,-2.7899,-2.8353,-2.8368,-2.7899,-2.9052,-2.9445,-2.9175,-2.9639,-2.9968,-2.8391,-3.062,-3.282,-3.3739,-3.203,-2.9997,0.0,0.0,-2.5397,-2.4724,-2.4605,-2.4605,-2.459,-2.5128,-2.5824,-2.6482,-2.7709,0.0,0.0,0.0,0.0,0.0,0.0,0.0,0.0,0.0,0.0,-4.3275,-4.3275,0.0,-4.2425,-4.1767,-4.107,-4.0427,-3.9768,-3.9095,-3.8407,-3.8392,-3.7749,-3.6492,-3.6492,-3.5774,-3.4533,-3.519,-3.513,-3.4563,-3.5205,-3.5115,0.0,-3.522,-3.51,-3.4563,-3.5235,-3.5504,-3.5504,-3.5504,-3.5504,-3.5504,-3.5504,-3.5504,-3.5504,-3.5504,-3.5504,-3.5504,-3.5489,-3.5489,-3.5355,-3.4698,-3.3529,-3.2512,-3.2512,-3.3039,-3.3582,-3.3582,-3.4633,-3.5222,-3.3803,-3.3445,-3.298,-3.1577,-3.1241,-3.119,-3.119,-3.0208,-2.9607,-3.0187,-2.8764,-2.7835,-2.8415,-2.7968,-2.76,-2.76,-2.76,-2.76,-2.76,-2.76,-2.76,-2.76,-2.76,-2.7899,-2.8562,-2.7959,-2.7914,-2.8577,-2.8607,-2.8607,-2.8592,-2.9265,-2.9894,-3.0477,-3.0492,-3.0866,-2.6309,-2.7773,-2.9007,-2.972,-2.9102,-2.819,-2.7675,0.0,-2.4859,-2.4649,-2.4605,-2.4605,-2.4605,-2.5143,-2.5974,-2.7106,-2.8008,0.0,0.0,0.0,0.0,0.0,0.0,0.0,0.0,0.0,0.0,-4.326,-4.2506,-4.2102,-4.2396,-4.1347,-4.0621,-4.0412,-3.9768,-3.932,-3.9095,-3.8631,-3.7958,-3.7105,-3.6686,-3.5806,-3.4533,-3.519,-3.513,-3.4548,-3.5205,-3.5115,-3.4563,-3.522,-3.51,-3.4578,-3.5235,-3.5504,-3.5504,-3.5504,-3.5504,-3.5504,-3.5504,-3.5504,-3.5504,-3.5504,-3.5504,-3.5504,-3.5504,-3.5504,-3.5265,-3.4128,-3.3499,-3.2976,-3.2049,-3.2369,-3.3039,-3.3479,-3.3912,-3.4105,-3.367,-3.3137,-3.2453,-3.1539,-3.1282,-3.119,-3.119,-3.0878,-3.0576,-3.0335,-2.9457,-2.874,-2.8535,-2.7968,-2.76,-2.76,-2.76,-2.76,-2.76,-2.76,-2.76,-2.76,-2.8034,-2.8368,-2.8592,-2.8858,-2.9082,-2.9292,-2.9684,-2.9699,-2.9307,-3.0372,-3.0987,-3.1182,-3.1182,-3.1301,-2.4907,-2.6334,-2.7424,-2.779,-2.7172,0.0,0.0,0.0,-2.3938,-2.4212,-2.4647,-2.4978,-2.4978,-2.554,-2.6243,-2.7091,-2.8106,0.0,0.0,0.0,0.0,0.0,0.0,0.0,0.0,0.0,-4.2895,-4.326,-4.2581,-4.2297,-4.2701,-4.1489,-4.0771,-4.0771,-3.9888,-3.9388,-3.9388,-3.899,-3.8437,-3.7778,-3.7389,-3.6387,-3.4891,-3.5564,-3.5355,-3.4548,-3.5205,-3.5265,0.0,-3.5325,-3.525,-3.4906,-3.534,-3.5504,-3.5504,-3.5504,-3.5504,-3.5504,-3.5504,-3.5504,-3.5504,-3.5504,-3.5504,-3.5504,-3.5504,-3.5504,-3.5175,-3.3574,-3.3305,-3.3185,-3.1854,-3.2228,-3.3013,-3.3182,-3.3608,-3.3843,-3.3298,-3.2777,-3.2186,-3.1512,-3.1262,-3.119,-3.119,-3.1015,-3.074,-3.0372,-2.9783,-2.918,-2.8583,-2.8165,-2.786,-2.7625,-2.76,-2.76,-2.76,-2.76,-2.7705,-2.7974,-2.8368,-2.8816,-2.9295,-2.949,-2.9726,-2.9924,-3.0313,-3.0313,-2.9924,-3.0972,-3.1511,-3.1511,-3.1511,-3.1351,0.0,-2.5827,-2.7266,-2.7324,-2.5911,-2.4535,-2.4546,0.0,0.0,-2.362,-2.4708,-2.5544,-2.5604,-2.6234,-2.6712,-2.6599,0.0,0.0,0.0,0.0,0.0,0.0,0.0,0.0,0.0,0.0,-4.321,-4.329,-4.329,-4.3275,-4.323,-4.2073,-4.1392,-4.1347,-4.0083,-3.9388,-3.9388,-3.9388,-3.9035,-3.8257,-3.8302,-3.7285,-3.5385,-3.6088,-3.5699,0.0,-3.5205,-3.5504,-3.5504,-3.5504,-3.5504,-3.5504,-3.5504,-3.5504,-3.5504,-3.5504,-3.5504,-3.5504,-3.5504,-3.5504,-3.5504,-3.5504,-3.5504,-3.5489,-3.5444,-3.5474,-3.5115,-3.3185,-3.3066,-3.3215,-3.1959,-3.2578,-3.3365,-3.2796,-3.3563,-3.4088,-3.2743,-3.2353,-3.2073,-3.1358,-3.1179,-3.1151,-3.119,-3.0699,-3.0314,-3.0372,-2.9805,-2.9203,-2.8654,-2.8535,-2.8286,-2.766,-2.7645,-2.766,-2.766,-2.766,-2.7944,-2.8562,-2.8682,-2.9265,-3.0447,-2.9998,-2.9998,-3.0567,-3.0567,-3.0567,-3.0582,-3.1197,-3.1511,-3.1511,-3.1438,-3.0999,-2.1586,0.0,-2.3076,-2.3536,-2.3298,-2.2964,0.0,0.0,0.0,0.0,0.0,0.0,0.0,0.0,0.0,0.0,0.0,0.0,0.0,0.0,0.0,0.0,0.0,0.0,0.0,0.0,-4.2371,-4.325,-4.329,-4.312,-4.2626,-4.1818,-4.1145,-4.0651,-3.9843,-3.9388,-3.9388,-3.9388,-3.8586,-3.6941,-3.7404,-3.6342,-3.4008,-3.519,-3.528,-3.4548,-3.5205,-3.5504,-3.5504,-3.5504,-3.5504,-3.5504,-3.5504,-3.5504,-3.5504,-3.5504,-3.5504,-3.5504,-3.5504,-3.5504,-3.5504,-3.5504,-3.5504,-3.54,-3.4876,-3.5085,-3.5295,-3.4292,-3.3769,-3.3425,-3.311,-3.2924,-3.2912,-3.3234,-3.3174,-3.2824,-3.1993,-3.1356,-3.0898,-3.066,-3.0571,-3.0658,-3.1131,-3.0699,-3.0456,-3.0918,-3.0064,-2.9361,-2.9203,-2.8779,-2.8286,-2.766,-2.8064,-2.8353,-2.8353,-2.8353,-2.8427,-2.8592,-2.952,-3.0193,-3.0492,-3.0866,-3.1122,-3.1256,-3.1256,-3.1256,-3.1271,-3.1421,-3.1511,-3.1511,-3.0866,-3.0494,-2.0795,-2.0759,-2.1017,-2.2285,-2.1877,-2.1472,-2.245,0.0,0.0,0.0,0.0,0.0,0.0,0.0,0.0,0.0,0.0,0.0,0.0,0.0,0.0,0.0,0.0,0.0,0.0,0.0,-4.2644,-4.325,-4.3045,-4.252,-4.1701,-4.1201,-4.0569,-3.9679,-3.9009,-3.8671,-3.8671,-3.8671,-3.7652,-3.5644,-3.6658,-3.5972,-3.3873,-3.5297,-3.5579,-3.4951,-3.5011,-3.522,-3.5489,-3.516,-3.522,-3.5504,-3.5504,-3.5504,-3.5504,-3.5504,-3.5504,-3.5504,-3.5504,-3.5504,-3.5504,-3.5504,-3.5504,-3.5429,-3.5055,-3.5205,-3.5295,-3.4307,-3.3978,-3.3799,-3.32,-3.3025,-3.294,-3.2665,-3.2573,-3.2307,-3.1316,-3.1009,-3.0788,-3.0426,-3.0552,-3.0818,-3.1151,-3.0918,-3.0754,-3.0802,-3.0511,-3.009,-2.9566,-2.9441,-2.9183,-2.8591,-2.8858,-2.9056,-2.9056,-2.931,-2.9475,-2.9475,-3.0118,-3.0642,-3.0943,-3.1316,-3.1511,-3.1511,-3.1511,-3.1511,-3.1511,-3.1511,-3.1511,-3.1511,-3.1058,-3.0419,-2.066,-2.0297,-2.0384,-2.2141,-2.1314,-2.0511,-2.222,0.0,0.0,0.0,0.0,0.0,0.0,0.0,0.0,0.0,0.0,0.0,0.0,0.0,0.0,0.0,0.0,0.0,-3.9348,-4.1699,-4.3036,-4.3036,-4.2465,-4.1627,-4.0426,-4.0066,-3.9455,-3.8427,-3.7859,-3.7472,-3.7319,-3.7472,-3.6486,-3.4418,-3.5801,-3.5518,-3.3863,-3.5402,-3.58,-3.5249,0.0,0.0,-3.5459,-3.4876,-3.4981,-3.5504,-3.5504,-3.5504,-3.5504,-3.5504,-3.5504,-3.5504,-3.5504,-3.5504,-3.5504,-3.5504,-3.5504,-3.5504,-3.5504,-3.5504,-3.5265,-3.4128,-3.4128,-3.4279,-3.323,-3.315,-3.3087,-3.203,-3.2131,-3.2083,-3.0792,-3.0892,-3.107,-3.0446,-3.0704,-3.1089,-3.1187,-3.1143,-3.0954,-3.0603,-3.0923,-3.083,-2.9875,-3.0184,-3.0273,-2.966,-2.9696,-2.9756,-2.9756,-3.0298,-3.0657,-3.0657,-3.0657,-3.0898,-3.1481,-3.1511,-3.1511,-3.1511,-3.1511,-3.1511,-3.1511,-3.1511,-3.1511,-3.1511,-3.1248,-3.0359,-1.9952,-2.0254,-2.0731,-2.1511,-2.1466,-2.1322,-2.1625,0.0,0.0,0.0,0.0,0.0,0.0,0.0,0.0,0.0,0.0,0.0,0.0,0.0,0.0,0.0,0.0,-3.7731,-3.7779,-4.0277,-4.185,-4.185,-4.1352,-4.0285,-3.8505,-3.7985,-3.7342,-3.664,-3.6489,-3.6027,-3.5183,-3.6027,-3.5495,-3.3583,-3.44,-3.3807,-3.2069,-3.3631,-3.4332,-3.4279,0.0,-3.54,-3.5489,-3.5385,-3.5415,-3.5504,-3.5504,-3.5504,-3.5504,-3.5504,-3.5504,-3.5504,-3.5504,-3.5504,-3.5504,-3.5504,-3.5504,-3.5504,-3.5504,-3.5504,-3.5459,-3.525,-3.4846,-3.4593,-3.4951,-3.383,-3.2721,-3.3111,-3.2421,-3.1443,-3.0689,-3.0566,-3.0595,-3.0423,-3.0402,-3.0634,-3.1203,-3.0869,-3.0688,-3.1158,-3.0881,-3.0569,-3.0387,-3.0438,-3.0273,-2.966,-3.0058,-3.0357,-3.0357,-3.0957,-3.1346,-3.1346,-3.1346,-3.1391,-3.1511,-3.1511,-3.1511,-3.1511,-3.1511,-3.1511,-3.1511,-3.1511,-3.1511,-3.1467,-3.0042,-2.9254,-1.9053,-1.9476,-2.0186,-2.0459,-2.0809,-2.1405,-2.276,0.0,0.0,0.0,0.0,0.0,0.0,0.0,0.0,0.0,0.0,0.0,0.0,0.0,0.0,0.0,0.0,-3.7725,-3.7812,-4.0377,-4.1909,-4.1614,-4.0418,-3.8989,-3.7294,-3.6866,-3.6276,-3.5413,-3.54,-3.517,-3.4705,-3.4568,-3.3618,-3.1886,-3.2722,-3.2354,-3.1015,-3.3077,-3.3993,-3.4047,0.0,-3.516,-3.5474,-3.51,-3.5175,-3.5504,-3.5504,-3.5504,-3.5504,-3.5504,-3.5504,-3.5504,-3.5504,-3.5504,-3.5504,-3.5504,-3.5504,-3.5504,-3.5504,-3.5504,-3.5429,-3.5055,-3.4758,-3.4578,-3.4861,-3.3739,-3.2587,-3.2901,-3.2198,-3.1316,-3.0657,-3.0744,-3.0858,-3.0473,-3.0638,-3.0942,-3.1249,-3.1092,-3.103,-3.1338,-3.1156,-3.0997,-3.1034,-3.1025,-3.093,-3.067,-3.0853,-3.1032,-3.1032,-3.1316,-3.1511,-3.1511,-3.1511,-3.1511,-3.1511,-3.1511,-3.1511,-3.1511,-3.1511,-3.1511,-3.1511,-3.1511,-3.1511,-3.1467,-3.0269,-2.969,-1.8255,-1.8605,-1.9231,-1.9376,-1.9799,-2.0874,-2.3485,0.0,0.0,0.0,0.0,0.0,0.0,0.0,0.0,0.0,0.0,0.0,0.0,0.0,0.0,0.0,-3.5414,-3.7621,-3.8339,-4.0579,-4.1704,-4.1037,-3.9384,-3.7682,-3.5995,-3.5636,-3.5116,-3.4345,-3.4304,-3.4304,-3.4304,-3.3373,-3.224,-3.0984,-3.1576,-3.1355,-3.049,-3.2469,-3.3449,-3.3711,-3.4182,-3.4803,-3.5459,-3.4936,-3.5026,-3.5504,-3.5504,-3.5504,-3.5472,-3.5246,-3.5133,-3.5133,-3.4887,-3.4953,-3.5133,-3.5133,-3.5326,-3.5504,-3.5504,-3.5385,-3.516,-3.4653,-3.4279,-3.4084,-3.4234,-3.338,-3.2512,-3.2512,-3.1989,-3.1271,-3.0462,-3.0856,-3.115,-3.0336,-3.0918,-3.1495,-3.135,-3.1515,-3.1611,-3.1443,-3.1416,-3.1439,-3.1478,-3.1511,-3.1511,-3.1511,-3.1511,-3.1511,-3.1511,-3.1511,-3.1511,-3.1511,-3.1511,-3.1511,-3.1511,-3.1511,-3.1511,-3.1511,-3.1511,-3.1511,-3.1511,-3.1511,-3.1511,-3.1467,-3.0673,-3.0299,-1.7848,-1.7926,-1.8034,-1.8482,-1.8623,0.0,-2.2499,-2.1719,0.0,0.0,0.0,0.0,0.0,0.0,0.0,0.0,0.0,0.0,0.0,0.0,0.0,-3.3709,-3.5877,-3.7732,-3.8848,-4.0035,-4.0283,-3.927,-3.802,-3.6358,-3.4199,-3.3599,-3.3283,-3.324,-3.324,-3.324,-3.324,-3.2583,-3.2215,-3.2089,-3.1656,-3.1155,-3.0588,-3.1168,-3.1888,-3.2735,-3.3662,-3.4599,-3.5504,-3.5444,-3.5459,-3.5504,-3.5504,-3.5504,-3.5392,-3.4461,-3.4095,-3.3993,-3.3101,-3.3394,-3.4095,-3.4095,-3.4725,-3.5504,-3.5504,-3.5055,-3.4578,-3.4518,-3.3589,-3.2796,-3.341,-3.3036,-3.2512,-3.2512,-3.1989,-3.1152,-2.9924,-3.0572,-3.1031,-2.9719,-3.0967,-3.2064,-3.15,-3.1965,-3.2226,-3.1587,-3.1478,-3.1493,-3.1496,-3.1511,-3.1511,-3.1511,-3.1511,-3.1511,-3.1511,-3.1511,-3.1511,-3.1511,-3.1511,-3.1511,-3.1511,-3.1511,-3.1511,-3.1511,-3.1511,-3.1511,-3.1511,-3.1511,-3.1511,-3.1467,-3.0673,-3.0299,-1.6108,-1.6221,-1.6863,-1.7928,-1.7579,0.0,0.0,0.0,0.0,0.0,0.0,0.0,0.0,0.0,0.0,0.0,0.0,0.0,0.0,0.0,-3.3671,-3.3872,-3.5919,-3.7618,-3.8393,-3.8824,-3.8879,-3.8463,-3.6715,-3.4993,-3.3469,-3.3194,-3.2918,-3.2554,-3.288,-3.3124,-3.3124,-3.2503,-3.2215,-3.2202,-3.1323,-3.0809,-3.0595,-3.1018,-3.1389,-3.1815,-3.3345,-3.3891,-3.3788,-3.5001,-3.4787,-3.3685,-3.3685,-3.3685,-3.365,-3.3276,-3.3136,-3.3066,-3.2713,-3.282,-3.3241,-3.3808,-3.4245,-3.4618,-3.4805,-3.4713,-3.4339,-3.3484,-3.2901,-3.2662,-3.332,-3.2706,-3.1974,-3.2392,-3.1989,-3.1256,-3.0357,-3.0512,-3.0573,-2.9641,-3.0061,-3.0623,-3.0804,-3.1057,-3.1311,-3.1492,-3.1511,-3.1511,-3.1511,-3.1511,-3.1511,-3.1511,-3.1511,-3.1511,-3.1511,-3.1511,-3.1511,-3.1511,-3.1511,-3.1511,-3.1511,-3.1511,-3.1511,-3.1511,-3.1511,-3.1511,-3.1511,-3.1511,-3.1511,-3.1467,-3.0673,-3.0584,-1.4844,-1.4924,-1.5708,0.0,0.0,0.0,0.0,0.0,0.0,0.0,0.0,0.0,0.0,0.0,0.0,0.0,0.0,0.0,0.0,-3.2792,-3.3633,-3.3633,-3.5166,-3.6507,-3.7232,-3.7288,-3.7302,-3.7302,-3.5676,-3.4155,-3.289,-3.2805,-3.2541,-3.1976,-3.2503,-3.2717,-3.2541,-3.2315,-3.2127,-3.1938,-3.1047,-3.062,-3.0595,-3.0701,-3.0932,-3.1278,-3.2558,-3.2925,-3.2713,-3.4056,-3.3788,-3.2593,-3.2593,-3.2593,-3.2558,-3.2285,-3.2177,-3.2105,-3.1829,-3.1901,-3.2249,-3.2925,-3.3218,-3.3402,-3.3888,-3.3765,-3.3309,-3.2661,-3.2333,-3.2273,-3.2766,-3.2183,-3.1615,-3.2064,-3.1824,-3.1256,-3.0402,-3.0373,-3.0227,-2.9354,-2.9526,-2.9942,-3.0417,-3.0693,-3.1011,-3.142,-3.1511,-3.1511,-3.1511,-3.1511,-3.1511,-3.1511,-3.1511,-3.1511,-3.1511,-3.1511,-3.1511,-3.1511,-3.1511,-3.1511,-3.1511,-3.1511,-3.1511,-3.1511,-3.1511,-3.1511,-3.1511,-3.1511,-3.1511,-3.1511,-3.094,-3.097,-1.432,-1.4245,-1.4515,0.0,0.0,0.0,0.0,0.0,0.0,0.0,0.0,0.0,0.0,0.0,0.0,0.0,0.0,0.0,0.0,-3.2704,-3.3111,-3.3111,-3.3558,-3.4354,-3.5479,-3.5534,-3.5521,-3.5606,-3.5035,-3.3973,-3.2269,-3.2215,-3.1951,-3.1399,-3.1913,-3.1938,-3.1399,-3.1926,-3.1926,-3.1373,-3.0859,-3.0608,-3.0595,-3.0043,-3.0317,-3.118,-3.1217,-3.1706,-3.2558,-3.2558,-3.2558,-3.2593,-3.2558,-3.2558,-3.2464,-3.1536,-3.118,-3.1044,-3.0101,-3.0419,-3.118,-3.1204,-3.1447,-3.195,-3.2792,-3.2198,-3.1393,-3.2243,-3.2004,-3.1511,-3.1511,-3.1511,-3.1511,-3.1511,-3.1511,-3.1137,-2.9864,-3.0053,-3.0088,-2.875,-2.9572,-3.0489,-3.0493,-3.1088,-3.157,-3.1506,-3.1511,-3.1511,-3.1511,-3.1511,-3.1511,-3.1511,-3.1511,-3.1511,-3.1511,-3.1511,-3.1511,-3.1511,-3.1511,-3.1511,-3.1511,-3.1511,-3.1511,-3.1511,-3.1511,-3.1511,-3.1511,-3.1511,-3.1511,-3.1511,-3.1511,-3.1511,-1.432,-1.4124,0.0,0.0,0.0,0.0,0.0,0.0,0.0,0.0,0.0,0.0,0.0,0.0,0.0,0.0,0.0,0.0,-3.1007,-3.1888,-3.2466,-3.2466,-3.3319,-3.4201,-3.4884,-3.4602,-3.4551,-3.4954,-3.4085,-3.3009,-3.1729,-3.2001,-3.1788,-3.0871,-3.1361,-3.1549,-3.1386,-3.1185,-3.1009,-3.0834,-3.0294,-3.0231,-3.0595,-3.0043,-2.9934,-3.0241,-3.0895,-3.097,-3.0633,-3.0633,-3.102,-3.1536,-3.0884,-3.0633,-3.0608,-3.0317,-3.0216,-3.0177,-2.9895,-2.996,-3.0253,-3.0561,-3.0734,-3.0818,-3.0915,-3.1052,-3.1168,-3.1007,-3.1205,-3.1511,-3.1511,-3.1511,-3.1511,-3.1511,-3.1137,-3.0582,-2.9786,-2.9365,-2.8919,-2.8026,-2.8566,-2.9312,-2.9777,-3.0401,-3.0983,-3.1435,-3.1511,-3.1511,-3.1511,-3.1511,-3.1511,-3.1511,-3.1511,-3.1511,-3.1511,-3.1511,-3.1511,-3.1511,-3.1511,-3.1511,-3.1511,-3.1511,-3.1511,-3.1511,-3.1511,-3.1511,-3.1511,-3.1511,-3.1511,-3.1511,-3.1511,-3.1511,-1.4283,0.0,0.0,0.0,0.0,0.0,0.0,0.0,0.0,0.0,0.0,0.0,0.0,0.0,0.0,0.0,0.0,-3.062,-3.062,-3.1348,-3.1964,-3.219,-3.2616,-3.314,-3.3646,-3.339,-3.3368,-3.3659,-3.3344,-3.2579,-3.1449,-3.17,-3.1399,-3.0319,-3.0796,-3.0972,-3.0758,-3.067,-3.0507,-3.0281,-2.9942,-2.9967,-3.0281,-2.9942,-2.9792,-2.983,-3.0381,-3.0317,-2.9792,-2.9792,-3.0139,-3.0595,-3.0037,-2.9792,-2.9792,-2.9792,-2.9641,-2.9453,-2.9453,-2.9302,-2.9177,-2.9426,-2.9336,-2.919,-2.9356,-2.9577,-2.9771,-2.9523,-3.0231,-3.097,-3.0733,-3.1084,-3.1436,-3.1167,-3.0806,-3.0328,-2.9714,-2.9265,-2.8786,-2.8139,-2.8558,-2.9116,-2.9532,-3.0088,-3.0731,-3.1406,-3.1511,-3.1511,-3.1511,-3.1511,-3.1511,-3.1511,-3.1511,-3.1511,-3.1511,-3.1511,-3.1511,-3.1511,-3.1511,-3.1511,-3.1511,-3.1511,-3.1511,-3.1511,-3.1511,-3.1511,-3.1511,-3.1511,-3.1511,-3.1511,-3.1511,-3.1645,-1.4329,0.0,0.0,0.0,0.0,0.0,0.0,0.0,0.0,0.0,0.0,0.0,0.0,0.0,0.0,0.0,-2.9312,-3.0361,-3.0361,-3.0904,-3.1499,-3.2001,-3.1675,-3.1587,-3.2089,-3.2139,-3.2139,-3.2139,-3.2629,-3.2453,-3.1386,-3.1323,-3.0846,-2.9829,-3.0281,-3.0306,-2.9792,-3.0281,-3.0281,-2.9792,-2.9792,-2.9792,-2.9792,-2.9792,-2.9792,-2.9792,-2.9792,-2.9792,-2.9792,-2.9792,-2.9792,-2.9792,-2.9792,-2.9792,-2.9792,-2.9792,-2.9428,-2.8888,-2.8888,-2.8561,-2.8097,-2.8047,-2.7695,-2.7432,-2.8105,-2.8031,-2.7735,-2.8023,-2.9102,-3.0036,-2.9376,-3.028,-3.1186,-3.0385,-3.0335,-3.0357,-2.9789,-2.9651,-2.94,-2.8801,-2.922,-2.9696,-2.9696,-3.0178,-3.0806,-3.1406,-3.1511,-3.1511,-3.1511,-3.1511,-3.1511,-3.1511,-3.1511,-3.1511,-3.1511,-3.1511,-3.1511,-3.1511,-3.1511,-3.1511,-3.1511,-3.1511,-3.1511,-3.1511,-3.1511,-3.1511,-3.1511,-3.1511,-3.1511,-3.1511,-3.157,-3.1914,0.0,-1.4856,0.0,0.0,0.0,0.0,0.0,0.0,0.0,0.0,0.0,0.0,0.0,0.0,0.0,0.0,-2.7869,-2.8646,-2.8646,-2.9865,-3.0821,-3.0947,-3.121,-3.1436,-3.1549,-3.1574,-3.1574,-3.1574,-3.1687,-3.1474,-3.0821,-3.0783,-3.0482,-2.9817,-2.9905,-2.9917,-2.9792,-2.9905,-2.9905,-2.9792,-2.9792,-2.9792,-2.9792,-2.9792,-2.9792,-2.9792,-2.9792,-2.9792,-2.9792,-2.9792,-2.9792,-2.9792,-2.9792,-2.9792,-2.9792,-2.9792,-2.9428,-2.8888,-2.8888,-2.8561,-2.8034,-2.7607,-2.7381,-2.7228,-2.7018,-2.7286,-2.7617,-2.728,-2.8188,-2.9052,-2.8024,-2.9154,-3.01,-2.8334,-2.9231,-3.0462,-3.0328,-2.9924,-2.9577,-2.9427,-2.9879,-3.0313,-3.0313,-3.0838,-3.1331,-3.1481,-3.1511,-3.1511,-3.1511,-3.1511,-3.1511,-3.1511,-3.1511,-3.1511,-3.1511,-3.1511,-3.1511,-3.1511,-3.1511,-3.1511,-3.1511,-3.1511,-3.1511,-3.1511,-3.1511,-3.1511,-3.1511,-3.1511,-3.1511,-3.1511,-3.2034,-3.2348,0.0,0.0,0.0,0.0,0.0,0.0,0.0,0.0,0.0,0.0,0.0,0.0,0.0,0.0,0.0,-2.5588,-2.6625,-2.7319,-2.7319,-2.8506,-2.9502,-2.9759,-3.0276,-3.0733,-3.0997,-3.1022,-3.1022,-3.1022,-3.1248,-3.1173,-3.0645,-3.062,-3.0357,-2.9817,-2.9792,-2.9792,-2.9792,-2.9792,-2.9792,-2.9792,-2.9792,-2.9792,-2.9792,-2.9792,-2.9792,-2.9792,-2.9792,-2.9792,-2.9792,-2.9792,-2.9792,-2.9792,-2.9792,-2.9792,-2.9754,-2.9478,-2.9026,-2.8461,-2.8235,-2.777,-2.7304,-2.7014,-2.6927,-2.6876,-2.6587,-2.6782,-2.6948,-2.6123,-2.7109,-2.8125,-2.7013,-2.8199,-2.9411,-2.8338,-2.9025,-2.9912,-2.9912,-2.9691,-2.9554,-2.9958,-3.0552,-3.0896,-3.0567,-3.1047,-3.1511,-3.1511,-3.1511,-3.1511,-3.1511,-3.1511,-3.1511,-3.1511,-3.1511,-3.1511,-3.1511,-3.1511,-3.1511,-3.1511,-3.1511,-3.1511,-3.1511,-3.1511,-3.1511,-3.1511,-3.1511,-3.1511,-3.1511,-3.1511,-3.1511,-3.1525,-3.2183,-3.2677,0.0,0.0,0.0,0.0,0.0,0.0,0.0,0.0,0.0,0.0,0.0,0.0,0.0,0.0,0.0,-2.45,-2.5462,-2.6224,-2.6224,-2.7157,-2.8009,-2.8433,-2.9086,-2.9669,-3.0129,-3.0351,-3.047,-3.047,-3.0871,-3.0922,-3.0495,-3.047,-3.0269,-2.9804,-2.9792,-2.9792,-2.9792,-2.9792,-2.9792,-2.9792,-2.9792,-2.9792,-2.9792,-2.9792,-2.9792,-2.9792,-2.9792,-2.9792,-2.9792,-2.9792,-2.9792,-2.9792,-2.9792,-2.9729,-2.9578,-2.9063,-2.8511,-2.7896,-2.7444,-2.6952,-2.6499,-2.6499,-2.6499,-2.6499,-2.6499,-2.6499,-2.626,-2.5134,-2.6037,-2.7099,-2.601,-2.718,-2.8598,-2.8457,-2.8733,-2.9121,-2.9402,-2.9462,-2.9726,-3.0531,-3.1122,-3.1316,-3.0776,-3.1122,-3.1511,-3.1511,-3.1511,-3.1511,-3.1511,-3.1511,-3.1511,-3.1511,-3.1511,-3.1511,-3.1511,-3.1511,-3.1511,-3.1511,-3.1511,-3.1511,-3.1511,-3.1511,-3.1511,-3.1511,-3.1511,-3.1511,-3.1511,-3.1511,-3.157,-3.169,-3.2348,-3.3036,0.0,0.0,0.0,0.0,0.0,0.0,0.0,0.0,0.0,0.0,0.0,0.0,0.0,0.0,0.0,-2.3343,-2.4296,-2.5041,-2.5041,-2.6005,-2.6741,-2.6809,-2.7689,-2.8371,-2.8443,-2.9347,-2.9905,-2.9905,-2.9967,-2.998,-2.9905,-2.9905,-2.9867,-2.9792,-2.9792,-2.9792,-2.9792,-2.9792,-2.9792,-2.9792,-2.9792,-2.9792,-2.9792,-2.9792,-2.9792,-2.9792,-2.9792,-2.9792,-2.9792,-2.9792,-2.9792,-2.9792,-2.9792,-2.949,-2.9001,-2.8913,-2.8285,-2.7381,-2.7306,-2.6952,-2.6499,-2.6499,-2.6499,-2.6499,-2.6499,-2.6499,-2.626,-2.5134,-2.5313,-2.5613,-2.4558,-2.5732,-2.6984,-2.6237,-2.7007,-2.8351,-2.9822,-3.0169,-3.0393,-3.1217,-3.1436,-3.1466,-3.1376,-3.1451,-3.1511,-3.1511,-3.1511,-3.1511,-3.1511,-3.1511,-3.1511,-3.1511,-3.1511,-3.1511,-3.1511,-3.1511,-3.1511,-3.1511,-3.1511,-3.1511,-3.1511,-3.1511,-3.1511,-3.1511,-3.1511,-3.1511,-3.1511,-3.1511,-3.1795,-3.2363,-3.3051,-3.3724,0.0,0.0,0.0,0.0,0.0,0.0,0.0,0.0,0.0,0.0,0.0,0.0,0.0,0.0,0.0,0.0,-2.3507,-2.3844,-2.3844,-2.484,-2.5546,-2.5546,-2.6543,-2.7197,-2.7197,-2.7666,-2.8211,-2.8806,-2.8858,-2.9118,-2.9753,-2.9792,-2.9792,-2.9792,-2.9792,-2.9792,-2.9792,-2.9792,-2.9792,-2.9792,-2.9792,-2.9792,-2.9792,-2.9792,-2.9792,-2.9792,-2.9792,-2.9792,-2.9792,-2.9792,-2.9792,-2.9767,-2.944,-2.9113,-2.8813,-2.8235,-2.7695,-2.7278,-2.6964,-2.67,-2.6499,-2.6499,-2.6499,-2.6499,-2.6499,-2.6499,-2.6323,-2.5485,-2.5649,-2.5933,-2.5109,-2.577,-2.6568,-2.6211,-2.657,-2.7351,-2.8588,-2.9223,-2.995,-3.1248,-3.1511,-3.1511,-3.1511,-3.1511,-3.1511,-3.1511,-3.1511,-3.1511,-3.1511,-3.1511,-3.1511,-3.1511,-3.1511,-3.1511,-3.1511,-3.1511,-3.1511,-3.1511,-3.1511,-3.1511,-3.1511,-3.1511,-3.1511,-3.1511,-3.1511,-3.1511,-3.1511,-3.1869,-3.2198,-3.2542,-3.3559,-3.4234,0.0,0.0,0.0,0.0,0.0,0.0,0.0,0.0,0.0,0.0,0.0,0.0,0.0,0.0,0.0,0.0,-2.2935,-2.2974,-2.3081,-2.3833,-2.4372,-2.4372,-2.5378,-2.6058,-2.6058,-2.6348,-2.6842,-2.7643,-2.7936,-2.8466,-2.9326,-2.9624,-2.9792,-2.9792,-2.9792,-2.9792,-2.9792,-2.9792,-2.9792,-2.9792,-2.9792,-2.9792,-2.9792,-2.9792,-2.9792,-2.9792,-2.9792,-2.9792,-2.9792,-2.9792,-2.9704,-2.9528,-2.9063,-2.8712,-2.8411,-2.7595,-2.7228,-2.7052,-2.6637,-2.6499,-2.6499,-2.6499,-2.6499,-2.6499,-2.6499,-2.6499,-2.6373,-2.5762,-2.59,-2.6172,-2.5711,-2.5912,-2.6311,-2.6461,-2.6499,-2.6714,-2.755,-2.8556,-2.969,-3.097,-3.1351,-3.1511,-3.1511,-3.1511,-3.1511,-3.1511,-3.1511,-3.1511,-3.1511,-3.1511,-3.1511,-3.1511,-3.1511,-3.1511,-3.1511,-3.166,-3.169,-3.1511,-3.166,-3.1675,-3.1511,-3.1511,-3.1511,-3.1511,-3.1511,-3.1511,-3.1511,-3.2168,-3.2602,-3.2796,-3.3933,-3.4593,0.0,0.0,0.0,0.0,0.0,0.0,0.0,0.0,0.0,0.0,0.0,0.0,0.0,0.0,0.0,0.0,0.0,-2.2643,-2.3042,-2.3135,-2.3178,-2.3178,-2.4168,-2.4872,-2.4872,-2.5891,-2.6513,-2.6595,-2.7522,-2.8136,-2.8176,-2.9197,-2.9792,-2.9792,-2.9792,-2.9792,-2.9792,-2.9792,-2.9792,-2.9792,-2.9792,-2.9792,-2.9792,-2.9792,-2.9792,-2.9792,-2.9792,-2.9792,-2.9792,-2.9792,-2.9465,-2.8938,-2.89,-2.8285,-2.7369,-2.7306,-2.6989,-2.6537,-2.6499,-2.6499,-2.6499,-2.6499,-2.6499,-2.6499,-2.6499,-2.6499,-2.6373,-2.5762,-2.5624,-2.5636,-2.5598,-2.5624,-2.5774,-2.6361,-2.6499,-2.6714,-2.755,-2.9034,-3.0269,-3.0359,-3.097,-3.1511,-3.1511,-3.1511,-3.1511,-3.1511,-3.1511,-3.1511,-3.1511,-3.1511,-3.1511,-3.1511,-3.1511,-3.1511,-3.1511,-3.2079,-3.2168,-3.154,-3.2093,-3.2153,-3.1525,-3.1511,-3.1511,-3.1511,-3.1511,-3.1511,-3.1511,-3.2168,-3.2841,-3.3455,-3.4189,-3.4831,0.0,0.0,0.0,0.0,0.0,0.0,0.0,0.0,0.0,0.0,0.0,0.0,0.0,0.0,0.0,0.0,0.0,-2.0875,-2.249,-2.2277,-2.2217,-2.3003,-2.3474,-2.3714,-2.3714,-2.4102,-2.4638,-2.5336,-2.5015,-2.5318,-2.656,-2.6227,-2.6385,-2.7218,-2.7945,-2.8813,-2.9792,-2.9792,-2.9792,-2.9792,-2.9792,-2.9792,-2.9792,-2.9792,-2.9792,-2.9792,-2.9792,-2.9792,-2.9767,-2.939,-2.9076,-2.8813,-2.8147,-2.7632,-2.7278,-2.6914,-2.6663,-2.6499,-2.6499,-2.6499,-2.6499,-2.6499,-2.6499,-2.6499,-2.6499,-2.6499,-2.6449,-2.6248,-2.6185,-2.6185,-2.6185,-2.6185,-2.6358,-2.7077,-2.7263,-2.7351,-2.7637,-2.9066,-3.0299,-3.0299,-3.097,-3.1511,-3.1511,-3.1511,-3.1511,-3.1511,-3.1511,-3.1511,-3.1511,-3.1511,-3.1511,-3.1511,-3.1511,-3.1511,-3.1511,-3.172,-3.175,-3.1525,-3.1735,-3.175,-3.1511,-3.1914,-3.2123,-3.2123,-3.2123,-3.1929,-3.1511,-3.2617,-3.326,-3.3529,-3.4622,-3.5265,0.0,0.0,0.0,0.0,0.0,0.0,0.0,0.0,0.0,0.0,0.0,0.0,0.0,0.0,0.0,0.0,0.0,0.0,-2.1114,-2.097,-2.098,-2.181,-2.2262,-2.2492,-2.2492,-2.2737,-2.3212,-2.3985,-2.3459,0.0,-2.4963,-2.4583,-2.4733,-2.5582,-2.6325,-2.7284,-2.8433,-2.8848,-2.8895,-2.8712,-2.9456,-2.9585,-2.9236,-2.9624,-2.9792,-2.9779,-2.9591,-2.9503,-2.9478,-2.9089,-2.8675,-2.8298,-2.757,-2.7203,-2.7002,-2.6625,-2.6499,-2.6499,-2.6499,-2.6499,-2.6499,-2.6499,-2.6499,-2.6499,-2.6499,-2.6499,-2.6499,-2.6499,-2.6499,-2.6499,-2.6499,-2.6499,-2.6624,-2.7162,-2.7284,-2.7384,-2.7637,-2.9066,-3.0133,-2.9535,-3.0329,-3.1087,-3.1087,-3.1087,-3.119,-3.1467,-3.1511,-3.1511,-3.1511,-3.1511,-3.1511,-3.1511,-3.1511,-3.1511,-3.1511,-3.1705,-3.1618,-3.1131,-3.1279,-3.1176,-3.0688,-3.1382,-3.1705,-3.1591,-3.1895,-3.1762,-3.1193,-3.2731,-3.3604,-3.3844,-3.4981,-3.5504,0.0,0.0,0.0,0.0,0.0,0.0,-1.0855,0.0,-1.3794,0.0,0.0,0.0,0.0,0.0,0.0,0.0,0.0,0.0,-1.8982,-1.9294,-1.9434,-1.9488,-2.0576,-2.1293,-2.1293,-2.2034,-2.251,-2.251,-2.3053,-2.34,-2.3431,-2.4473,-2.511,-2.511,-2.5121,-2.5357,-2.579,-2.6882,-2.7112,-2.6502,-2.8661,-2.9106,-2.8096,-2.9236,-2.9753,-2.9715,-2.9139,-2.8888,-2.8863,-2.885,-2.8247,-2.7281,-2.7268,-2.6964,-2.6499,-2.6499,-2.6499,-2.6499,-2.6499,-2.6499,-2.6499,-2.6499,-2.6499,-2.6499,-2.6499,-2.6499,-2.6499,-2.6499,-2.6499,-2.6499,-2.6499,-2.6499,-2.6499,-2.6521,-2.6521,-2.6748,-2.755,-2.9066,-2.9766,-2.8084,-2.9097,-3.0269,-3.0269,-3.0269,-3.0554,-3.1351,-3.1467,-3.1467,-3.1511,-3.1511,-3.1511,-3.1511,-3.1511,-3.1511,-3.1511,-3.2049,-3.1827,-3.0403,-3.0847,-3.0472,-2.9062,-2.9856,-3.0168,-2.9849,-3.0665,-3.0977,-3.065,-3.255,-3.3813,-3.4487,-3.5175,-3.5504,-1.6866,0.0,0.0,0.0,0.0,0.0,-1.261,-1.2333,-1.1987,0.0,0.0,0.0,0.0,0.0,0.0,0.0,0.0,0.0,-1.8297,-1.816,-1.8243,-1.9372,-2.0576,-2.1293,-2.1293,-2.2034,-2.251,0.0,-2.1491,-2.1181,-2.179,-2.214,-2.2675,-2.3515,-2.3799,-2.4432,-2.5374,-2.595,-2.616,-2.6026,-2.6967,-2.7261,-2.6964,-2.8068,-2.8557,-2.8573,-2.8796,-2.8662,-2.8298,-2.7896,-2.7557,-2.7278,-2.6876,-2.6625,-2.6499,-2.6499,-2.6499,-2.6499,-2.6499,-2.6499,-2.6499,-2.6499,-2.6499,-2.6499,-2.6499,-2.6499,-2.6499,-2.6499,-2.6499,-2.6499,-2.6499,-2.6499,-2.6658,-2.7229,-2.7384,-2.7417,-2.7637,-2.8556,-2.9223,-2.8716,-2.9034,-2.9348,-2.9348,-2.9348,-2.9659,-3.0494,-3.0614,-3.0837,-3.1438,-3.1511,-3.1511,-3.1511,-3.1511,-3.1511,-3.1511,-3.1131,-3.0728,-3.0343,-2.9876,-2.9422,-2.9016,-3.0072,-3.0615,-3.0516,-3.1146,-3.1673,-3.2061,-3.283,-3.3303,-3.3525,-3.4869,-3.5504,0.0,0.0,0.0,0.0,0.0,0.0,-1.3382,-1.352,-1.3422,0.0,-1.2297,0.0,0.0,0.0,0.0,0.0,0.0,0.0,0.0,-1.6507,-1.665,-1.7652,-1.8851,-1.9847,-2.0513,-2.1266,-2.1902,-2.2214,-2.1143,-2.0576,-2.0937,-2.0957,-2.1253,-2.1927,-2.2183,-2.2675,-2.3506,-2.4237,-2.4436,-2.4209,-2.5411,-2.5705,-2.53,-2.6542,-2.7406,-2.7881,-2.8137,-2.8299,-2.8386,-2.7607,-2.719,-2.6939,-2.6612,-2.6499,-2.6499,-2.6499,-2.6499,-2.6499,-2.6499,-2.6499,-2.6499,-2.6499,-2.6499,-2.6499,-2.6499,-2.6499,-2.6499,-2.6499,-2.6499,-2.6499,-2.6499,-2.6499,-2.6624,-2.7095,-2.7196,-2.7284,-2.7637,-2.7835,-2.7953,-2.7953,-2.8247,-2.846,-2.846,-2.846,-2.8748,-2.9628,-3.0072,-3.0464,-3.094,-3.1278,-3.1511,-3.1511,-3.1511,-3.1511,-3.1511,-3.0777,-3.0133,-2.9797,-2.8939,-2.8419,-2.8312,-2.906,-2.9551,-2.9683,-3.0331,-3.1121,-3.2033,-3.2326,-3.2631,-3.2919,-3.3849,-3.4308,0.0,0.0,0.0,0.0,0.0,0.0,-1.3986,-1.5293,-1.6255,-1.3633,-1.4629,0.0,0.0,0.0,0.0,0.0,0.0,0.0,0.0,-1.4639,-1.4997,-1.508,-1.6311,-1.7711,-1.9068,-2.0017,-2.09,-2.1646,-2.1393,-2.1035,-2.0625,-2.0605,-2.0605,-2.0605,-2.0605,-2.0752,-2.1112,-2.2193,-2.2418,-2.1858,-2.3862,-2.4331,-2.3426,-2.4931,-2.6285,-2.7379,-2.7347,-2.7914,-2.8813,-2.7733,-2.7027,-2.6575,-2.6512,-2.6499,-2.6499,-2.6499,-2.6499,-2.6499,-2.6499,-2.6499,-2.6499,-2.6499,-2.6499,-2.6499,-2.6499,-2.6499,-2.6499,-2.6499,-2.6499,-2.6499,-2.6499,-2.6499,-2.6499,-2.6499,-2.6499,-2.6679,-2.7417,-2.7007,-2.6499,-2.6499,-2.7061,-2.7571,-2.7571,-2.7571,-2.7855,-2.8716,-2.9504,-3.0072,-3.0269,-3.0925,-3.1409,-3.1511,-3.1511,-3.1511,-3.1511,-3.0777,-2.9919,-2.9066,-2.8182,-2.7551,-2.7238,-2.755,-2.7855,-2.8084,-2.8983,-2.9984,-3.1044,-3.1397,-3.1907,-3.2593,-3.2593,-3.2593,0.0,0.0,0.0,0.0,0.0,0.0,-1.7145,-1.6025,-1.5288,0.0,-1.4658,0.0,0.0,0.0,0.0,0.0,0.0,0.0,0.0,0.0,-1.4268,-1.3417,-1.5399,-1.7016,-1.7297,-1.8846,-1.9993,-2.0499,-2.0957,-2.1035,-2.0625,-2.0605,-2.0605,-2.0605,-2.0605,-2.0644,-2.0732,-2.1243,-2.147,-2.1367,-2.2149,-2.2621,-2.2752,-2.396,-2.5295,-2.6723,-2.7136,-2.7914,-2.8813,-2.7733,-2.7253,-2.7115,-2.6663,-2.6499,-2.6499,-2.6499,-2.6499,-2.6499,-2.6499,-2.6499,-2.6499,-2.6499,-2.6499,-2.6499,-2.6499,-2.6499,-2.6499,-2.6499,-2.6499,-2.6499,-2.6499,-2.6499,-2.6499,-2.6499,-2.6499,-2.6521,-2.6679,-2.6624,-2.6499,-2.6499,-2.6624,-2.6714,-2.6714,-2.6714,-2.7007,-2.7835,-2.8117,-2.8716,-3.0103,-3.0419,-3.0777,-3.1438,-3.1511,-3.1511,-3.1511,-3.0777,-2.9919,-2.9066,-2.8182,-2.7403,-2.6684,-2.7546,-2.8052,-2.8097,-2.9176,-2.9859,-3.0062,-3.0865,-3.1744,-3.2593,-3.2593,-3.2593,0.0,0.0,0.0,-1.7604,0.0,0.0,0.0,-1.6523,-1.6443,-1.6961,-1.6047,0.0,0.0,0.0,0.0,0.0,0.0,0.0,0.0,0.0,0.0,-1.412,-1.5526,-1.6539,-1.6784,-1.7642,-1.8684,-1.9823,-2.0512,-2.0801,-2.0615,-2.0605,-2.0605,-2.0605,-2.0605,-2.0605,-2.0605,-2.0791,-2.0898,-2.0908,-2.1123,-2.1378,-2.1593,-2.2582,-2.408,-2.5886,-2.6605,-2.7651,-2.8825,-2.8034,-2.7532,-2.7266,-2.6713,-2.6499,-2.6499,-2.6499,-2.6499,-2.6499,-2.6499,-2.6164,-2.5734,-2.5734,-2.5734,-2.5652,-2.517,-2.5358,-2.5664,-2.5134,-2.5721,-2.6383,-2.5873,-2.6129,-2.6499,-2.6499,-2.6499,-2.6499,-2.6499,-2.6499,-2.6499,-2.6499,-2.6499,-2.6499,-2.6499,-2.6499,-2.6658,-2.704,-2.7451,-2.8019,-2.8907,-2.938,-2.9981,-3.0807,-3.0896,-3.1058,-3.1467,-3.0777,-3.0103,-2.9659,-2.8427,-2.7766,-2.7954,-2.7782,-2.7959,-2.8511,-2.9076,-2.9503,-2.9792,-3.0279,-3.0733,-3.1206,-3.1206,-3.1206,0.0,0.0,0.0,0.0,0.0,-1.625,0.0,0.0,0.0,0.0,0.0,0.0,0.0,0.0,0.0,0.0,0.0,0.0,0.0,0.0,0.0,-1.4652,-1.5065,-1.5524,-1.6147,-1.656,-1.7542,-1.9353,-2.0267,-2.0693,-2.0605,-2.0605,-2.0605,-2.0605,-2.0605,-2.0605,-2.0605,-2.0605,-2.0605,-2.0605,-2.0605,-2.0644,-2.0723,-2.1523,-2.3102,-2.5216,-2.5986,-2.7261,-2.8687,-2.7976,-2.7526,-2.7266,-2.6713,-2.6499,-2.6499,-2.6499,-2.6499,-2.6452,-2.628,-2.5804,-2.5229,-2.4862,-2.4826,-2.4826,-2.3818,-2.4192,-2.4791,-2.3781,-2.4803,-2.6025,-2.5194,-2.5734,-2.6499,-2.6499,-2.6499,-2.6499,-2.6499,-2.6499,-2.6499,-2.6499,-2.6499,-2.6499,-2.6499,-2.6499,-2.6499,-2.6499,-2.704,-2.7517,-2.767,-2.8298,-2.9097,-2.995,-3.0208,-3.0554,-3.1219,-3.0807,-3.045,-3.0299,-2.8971,-2.8519,-2.9205,-2.8183,-2.8072,-2.9038,-2.9051,-2.9327,-2.9792,-2.9792,-2.9792,-2.9792,-2.9792,-2.9792,0.0,0.0,0.0,0.0,-1.6736,0.0,0.0,0.0,-1.7626,-1.8521,0.0,0.0,0.0,0.0,0.0,0.0,0.0,0.0,-1.4206,0.0,0.0,-1.2288,-1.2203,-1.2755,-1.3948,-1.5659,-1.7364,-1.8935,-2.0351,-2.0986,-2.0625,-2.0605,-2.0605,-2.0605,-2.0605,-2.0605,-2.0605,-2.0605,-2.0605,-2.0605,-2.0605,-2.0771,-2.1132,-2.166,-2.3062,-2.5066,-2.5485,-2.6632,-2.8074,-2.6664,-2.6565,-2.7266,-2.6713,-2.6499,-2.6499,-2.6499,-2.6499,-2.6383,-2.5476,-2.5699,-2.606,-2.4253,-2.4264,-2.4826,-2.3818,-2.4192,-2.4791,-2.3781,-2.4301,-2.5146,-2.5052,-2.5734,-2.6499,-2.6499,-2.6499,-2.6499,-2.6499,-2.6499,-2.6499,-2.6499,-2.6499,-2.6499,-2.6499,-2.6499,-2.6499,-2.6499,-2.6589,-2.6871,-2.7604,-2.7802,-2.8182,-2.9066,-2.9858,-3.0329,-3.0419,-3.0999,-3.1058,-3.0359,-3.0103,-2.9579,-2.8654,-2.8684,-2.9038,-2.9679,-2.9691,-2.9729,-2.9792,-2.9792,-2.9792,-2.9792,-2.9792,-2.9792,0.0,0.0,0.0,0.0,0.0,0.0,-1.8502,0.0,-1.7618,0.0,0.0,0.0,0.0,0.0,0.0,0.0,-1.4856,0.0,0.0,0.0,0.0,0.0,0.0,0.0,-1.4722,-1.5576,-1.6482,-1.7413,-1.9127,-1.9912,-1.9473,-2.0194,-2.0605,-2.0605,-2.0605,-2.0605,-2.0605,-2.0605,-2.0605,-2.0605,-2.0605,-2.0703,-2.0859,-2.1309,-2.262,-2.4628,-2.5044,-2.6145,-2.7535,-2.6299,-2.5877,-2.5898,-2.5076,-2.5464,-2.6499,-2.6499,-2.6499,-2.6452,-2.6025,-2.5769,-2.5476,-2.4636,-2.3854,-2.3294,-2.3441,-2.3368,-2.3073,-2.2075,-2.3342,-2.4862,-2.4264,-2.5323,-2.6349,-2.5769,-2.5629,-2.5629,-2.5629,-2.5629,-2.5804,-2.6383,-2.6499,-2.6499,-2.6499,-2.6499,-2.6499,-2.6499,-2.6499,-2.6624,-2.6973,-2.7007,-2.7317,-2.8149,-2.8556,-2.9002,-2.9504,-3.0329,-3.0789,-3.082,-3.0956,-3.062,-2.9654,-2.95,-2.9541,-2.9792,-2.9792,-2.9792,-2.9792,-2.9792,-2.9792,-2.9792,-2.9792,-2.9792,-1.8357,0.0,0.0,0.0,0.0,0.0,0.0,0.0,0.0,0.0,0.0,0.0,0.0,0.0,0.0,0.0,0.0,-1.5696,0.0,0.0,0.0,0.0,0.0,0.0,0.0,-1.565,-1.6108,-1.6265,0.0,-1.9102,-1.8627,-1.9863,-2.0605,-2.0605,-2.0605,-2.0605,-2.0605,-2.0605,-2.0605,-2.0605,-2.0605,-2.0605,-2.0615,-2.1283,-2.2522,-2.4112,-2.4846,-2.5742,-2.6606,-2.5576,-2.4952,-2.4492,-2.3478,-2.4325,-2.6094,-2.6094,-2.6267,-2.6452,-2.6164,-2.5441,-2.4636,-2.4898,-2.3818,-2.2515,-2.2962,-2.259,-2.1811,-2.0857,-2.2349,-2.4,-2.3294,-2.4576,-2.5908,-2.5182,-2.5004,-2.5004,-2.5004,-2.4779,-2.4886,-2.5873,-2.6094,-2.6176,-2.6452,-2.6499,-2.6499,-2.6499,-2.6499,-2.6499,-2.6499,-2.6679,-2.704,-2.7637,-2.8149,-2.8556,-2.8971,-3.0011,-3.0906,-3.1518,-3.1589,-3.1326,-3.0766,-3.0136,-2.9792,-2.9792,-2.9792,-2.9792,-2.9792,-2.9792,-2.9792,-2.9792,-2.9792,-2.9792,0.0,0.0,0.0,-1.607,0.0,0.0,0.0,0.0,-1.5953,0.0,0.0,0.0,0.0,0.0,0.0,0.0,0.0,0.0,0.0,0.0,0.0,0.0,0.0,0.0,0.0,-1.5809,-1.6684,0.0,-1.8039,-1.9102,-1.8627,-1.9863,-2.0605,-2.0605,-2.0605,-2.0605,-2.0605,-2.0605,-2.0605,-2.0605,-2.0605,-2.0605,-2.0654,-2.2027,-2.2976,-2.3607,-2.4966,-2.5395,-2.4993,-2.3986,-2.3573,-2.3441,-2.244,-2.3294,-2.504,-2.504,-2.5652,-2.6349,-2.537,-2.4373,-2.3708,-2.4671,-2.4301,-2.3294,-2.2328,-2.2027,-2.1811,-2.0857,-2.1336,-2.2103,-2.2065,-2.3551,-2.504,-2.5004,-2.5004,-2.5004,-2.5004,-2.4228,-2.3854,-2.4862,-2.504,-2.537,-2.6349,-2.6499,-2.6499,-2.6499,-2.6499,-2.6499,-2.6499,-2.7196,-2.767,-2.7703,-2.9223,-2.9889,-2.9066,-3.0524,-3.175,-3.2408,-3.1914,-3.1592,-3.1557,-3.0448,-2.9792,-2.9792,-2.9792,-2.9792,-2.9792,-2.9792,-2.9792,-2.9792,-2.9792,-2.9792,0.0,0.0,-1.8627,-1.8521,0.0,0.0,0.0,0.0,0.0,0.0,0.0,0.0,0.0,0.0,0.0,0.0,0.0,0.0,0.0,0.0,0.0,0.0,0.0,0.0,0.0,0.0,0.0,0.0,0.0,0.0,-1.7144,-1.8513,-1.9424,-1.9744,-2.0312,-2.0605,-2.0605,-2.0605,-2.0605,-2.0605,-2.1221,-2.1517,-2.1555,-2.2724,-2.3682,-2.4528,-2.5003,-2.5135,-2.4933,-2.3927,-2.311,-2.2478,-2.214,-2.2813,-2.4084,-2.4743,-2.5629,-2.6465,-2.6094,-2.5756,-2.5534,-2.5873,-2.5288,-2.4301,-2.3294,-2.2515,-2.1924,-2.1631,-2.1773,-2.214,-2.2813,-2.4,-2.4826,-2.4156,-2.4,-2.4,-2.4,-2.3745,-2.3818,-2.4791,-2.5558,-2.6094,-2.6452,-2.6499,-2.6499,-2.6499,-2.6499,-2.6499,-2.6499,-2.7196,-2.7703,-2.7703,-2.8748,-2.9317,-2.9034,-3.0831,-3.1797,-3.1411,-3.1935,-3.1984,-3.1338,-3.0354,-2.9792,-2.9792,-2.9792,-2.9603,-2.9227,-2.9603,-2.9591,-2.9189,-2.9616,-2.9792,-1.9212,-1.9533,0.0,-1.9267,-1.9123,0.0,-1.8253,0.0,0.0,0.0,0.0,0.0,0.0,0.0,0.0,0.0,0.0,0.0,0.0,-2.0348,0.0,0.0,0.0,0.0,0.0,0.0,0.0,0.0,0.0,0.0,0.0,-1.7588,-1.8901,-1.957,-2.0256,-2.0934,-2.1642,-2.127,-2.126,-2.1642,-2.2253,-2.2553,-2.259,-2.3551,-2.4373,-2.5016,-2.537,-2.5335,-2.4933,-2.4301,-2.3441,-2.2515,-2.214,-2.2627,-2.3635,-2.4636,-2.5629,-2.6499,-2.6499,-2.6499,-2.6499,-2.6499,-2.5804,-2.4826,-2.3818,-2.3036,-2.2403,-2.1707,-2.1735,-2.2065,-2.2376,-2.3184,-2.3854,-2.3551,-2.3514,-2.3588,-2.3963,-2.3745,-2.3818,-2.4791,-2.5692,-2.6305,-2.649,-2.6663,-2.6713,-2.6524,-2.6499,-2.6499,-2.6499,-2.7196,-2.7835,-2.8149,-2.8939,-2.9473,-2.9473,-3.0821,-3.1443,-3.0831,-3.1615,-3.1815,-3.1217,-3.0317,-2.9792,-2.9792,-2.9792,-2.9616,-2.9239,-2.9616,-2.9603,-2.9252,-2.9616,-2.9792]},{"header":{"parameterUnit":"m.s-1","parameterCategory":1,"la1":30.6,"la2":29.2853,"lo1":-89.7004,"lo2":-87.6739,"dy":0.0162,"dx":0.0183,"nx":112,"ny":82,"refTime":"2024-04-17T12:00:00:Z","depth":0,"parameterNumber":3,"parameterNumberName":"V-component_of_WINDS"},"data":[0.0,0.0,0.0,0.0,0.0,0.0,0.0,0.0,0.0,0.0,0.0,0.0,0.0,0.0,0.0,0.0,0.0,0.0,0.0,0.0,0.0,0.0,0.0,0.0,0.0,0.0,0.0,0.0,0.0,0.0,0.0,0.0,0.0,0.0,0.0,0.0,0.0,0.0,0.0,0.0,0.0,0.0,0.0,0.0,0.0,0.0,0.0,0.0,0.0,0.0,0.0,0.0,0.0,0.0,0.0,0.0,0.0,0.0,0.0,0.0,0.0,0.0,0.0,0.0,0.0,0.0,0.0,0.0,0.0,0.0,0.0,0.0,0.0,0.0,0.0,0.0,0.0,0.0,0.0,0.0,0.0,0.0,0.0,0.0,0.0,0.0,0.0,0.0,0.0,0.0,1.2602,1.1942,1.2599,1.2648,1.1582,1.0577,1.0025,1.0101,0.0,0.0,0.0,0.0,0.0,0.0,0.0,0.0,0.0,0.0,0.0,0.0,0.0,0.0,0.0,0.0,0.0,0.0,0.0,0.0,0.0,0.0,0.0,0.0,0.0,0.0,0.0,0.0,0.0,0.0,0.0,0.0,0.0,0.0,0.0,0.0,0.0,0.0,0.0,0.0,0.0,0.0,0.0,0.0,0.0,0.0,0.0,0.0,0.0,0.0,0.0,0.0,0.0,0.0,0.0,0.0,0.0,0.0,0.0,0.0,0.0,0.0,0.0,0.0,0.0,0.0,0.0,0.0,0.0,0.0,0.0,0.0,0.0,0.0,0.0,0.0,0.0,0.0,0.0,0.0,0.0,0.0,0.0,0.0,0.0,0.0,0.0,0.0,0.0,0.0,0.0,0.0,0.0,0.0,0.0,0.0,0.0,0.0,0.0,0.0,0.0,0.0,0.0,0.0,1.1494,1.2133,1.2342,1.255,1.2857,1.1326,1.0644,1.136,0.0,0.0,0.0,0.0,0.0,0.0,0.0,0.0,0.0,0.0,0.0,0.0,0.0,0.0,0.0,0.0,0.0,0.0,0.0,0.0,0.0,0.0,0.0,0.0,0.0,0.0,0.0,0.0,0.0,0.0,0.0,0.0,0.0,0.0,0.0,0.0,0.0,0.0,0.0,0.0,0.0,0.0,0.0,0.0,0.0,0.0,0.0,0.0,0.0,0.0,0.0,0.0,0.0,0.0,0.0,0.0,0.0,0.0,0.0,0.0,0.0,0.0,0.0,0.0,0.0,0.0,0.0,0.0,0.0,0.0,0.0,0.0,0.0,0.0,0.0,0.0,0.0,0.0,0.0,0.0,0.0,0.0,0.0,0.0,0.0,0.0,0.0,0.0,0.0,0.0,0.0,0.0,0.0,0.0,0.0,0.0,0.0,0.0,0.0,0.0,0.0,0.0,0.0,1.2006,1.1727,1.2479,1.2832,1.3013,1.2966,1.1459,1.0782,1.1441,0.9819,0.0,0.0,0.0,0.0,0.0,0.0,0.0,0.0,0.0,0.0,0.0,0.0,0.0,0.0,0.0,0.0,0.0,0.0,0.0,0.0,0.0,0.0,0.0,0.0,0.0,0.0,0.0,0.0,0.0,0.0,0.0,0.0,0.0,0.0,0.0,0.0,0.0,0.0,0.0,0.0,0.0,0.0,0.0,0.0,0.0,0.0,0.0,0.0,0.0,0.0,0.0,0.0,0.0,0.0,0.0,0.0,0.0,0.0,0.0,0.0,0.0,0.0,0.0,0.0,0.0,0.0,0.0,0.0,0.0,0.0,0.0,0.0,0.0,0.0,0.0,0.0,0.0,0.0,0.0,0.0,0.0,0.0,0.0,0.0,0.0,0.0,0.0,0.0,0.0,0.0,0.0,0.0,0.0,0.0,0.0,0.0,0.0,0.0,0.0,0.0,0.0,0.0,1.2662,1.2331,1.2647,1.3053,1.314,1.2717,1.1301,1.0697,1.1267,0.9901,0.0,0.0,0.0,0.0,0.0,0.0,0.0,0.0,0.0,0.0,0.0,0.0,0.0,0.0,0.0,0.0,0.0,0.0,0.0,0.0,0.0,0.0,0.0,0.0,0.0,0.0,0.0,0.0,0.0,0.0,0.0,0.0,0.0,0.0,0.0,0.0,0.0,0.0,0.0,0.0,0.0,0.0,0.0,0.0,0.0,0.0,0.0,0.0,0.0,0.0,0.0,0.0,0.0,0.0,0.0,0.0,0.0,0.0,0.0,0.0,0.0,0.0,0.0,0.0,0.0,0.0,0.0,0.0,0.0,0.0,0.0,0.0,0.0,0.0,0.0,0.0,0.0,0.0,0.0,0.0,0.0,0.0,0.0,0.0,0.0,0.0,0.0,0.0,0.0,0.0,0.0,0.0,0.0,0.0,0.0,0.0,0.0,0.0,0.0,0.0,0.0,0.0,1.2698,1.2907,1.2384,1.2371,1.2378,1.2338,1.0871,1.0334,1.1244,0.9792,0.0,0.0,0.0,0.0,0.0,0.0,0.0,0.0,0.0,0.0,0.0,0.0,0.0,0.0,0.0,0.0,0.0,0.0,0.0,0.0,0.0,0.0,0.0,0.0,0.0,0.0,0.0,0.0,0.0,0.0,0.0,0.0,0.0,0.0,0.0,0.0,0.0,0.0,0.0,0.0,0.0,0.0,0.0,0.0,0.0,0.0,0.0,0.0,0.0,0.0,0.0,0.0,0.0,0.0,0.0,0.0,0.0,0.0,0.0,0.0,0.0,0.0,0.0,0.0,0.0,0.0,0.0,0.0,0.0,0.0,0.0,0.0,0.0,0.0,0.0,0.0,0.0,0.0,0.0,0.0,0.0,0.0,0.0,0.0,0.0,0.0,0.0,0.0,0.0,0.0,0.0,0.0,0.0,0.0,0.0,0.0,0.0,0.0,0.0,0.0,0.0,0.0,1.2521,1.275,0.0,1.2509,1.2469,1.2064,1.115,1.0735,1.1024,0.0,0.0,0.0,0.0,0.0,0.0,0.0,0.0,0.0,0.0,0.0,0.0,0.0,0.0,0.0,0.0,0.0,0.0,0.0,0.0,0.0,0.0,0.0,0.0,0.0,0.0,0.0,0.0,0.0,0.0,0.0,0.0,0.0,0.0,0.0,0.0,0.0,0.0,0.0,0.0,0.0,0.0,0.0,0.0,0.0,0.0,0.0,0.0,0.0,0.0,0.0,0.0,0.0,0.0,0.0,0.0,0.0,0.0,0.0,0.0,0.0,0.0,0.0,0.0,0.0,0.0,0.0,0.0,0.0,0.0,0.0,0.0,0.0,0.0,0.0,0.0,0.0,0.0,0.0,0.0,0.0,0.0,0.0,0.0,0.0,0.0,0.0,0.0,0.0,0.0,0.0,0.0,0.0,0.0,0.0,0.0,0.0,0.0,0.0,0.0,0.0,0.0,1.269,1.3031,1.3132,0.0,1.2665,1.2442,1.1946,1.104,1.0616,1.0891,0.0,0.0,0.0,0.0,0.0,0.0,0.0,0.0,0.0,0.0,0.0,0.0,0.0,0.0,0.0,0.0,0.0,0.0,0.0,0.0,0.0,0.0,0.0,0.0,0.0,0.0,0.0,0.0,0.0,0.0,0.0,0.0,0.0,0.0,0.0,0.0,0.0,0.0,0.0,0.0,0.0,0.0,0.0,0.0,0.0,0.0,0.0,0.0,0.0,0.0,0.0,0.0,0.0,0.0,0.0,0.0,0.0,0.0,0.0,0.0,0.0,0.0,0.0,0.0,0.0,0.0,0.0,0.0,0.0,0.0,0.0,0.0,0.0,0.0,0.0,0.0,0.0,0.0,0.0,0.0,0.0,0.0,0.0,0.0,0.0,0.0,0.0,0.0,0.0,0.0,0.0,0.0,0.0,0.0,0.0,0.0,0.0,0.0,0.0,0.0,0.0,0.0,1.4208,1.4374,1.43,1.3772,1.2879,1.2214,1.1913,1.0438,0.9921,0.0,0.0,0.0,0.0,0.0,0.0,0.0,0.0,0.0,0.0,0.0,0.0,0.0,0.0,0.0,0.0,0.0,0.0,0.0,0.0,0.0,0.0,0.0,0.0,0.0,0.0,0.0,0.0,0.0,0.0,0.0,0.0,0.0,0.0,0.0,0.0,0.0,0.0,0.0,0.0,0.0,0.0,0.0,0.0,0.0,0.0,0.0,0.0,0.0,0.0,0.0,0.0,0.0,0.0,0.0,0.0,0.0,0.0,0.0,0.0,0.0,0.0,0.0,0.0,0.0,0.0,0.0,0.0,0.0,0.0,0.0,0.0,0.0,0.0,0.0,0.0,0.0,0.0,0.0,0.0,0.0,0.0,0.0,0.0,0.0,0.0,0.0,0.0,0.0,0.0,0.0,0.0,0.0,0.0,0.0,0.0,0.0,0.0,0.0,0.0,0.0,0.0,0.0,1.4116,1.4698,1.4873,1.4327,1.4018,1.3477,1.2603,1.1441,1.0833,1.0955,0.0,0.0,0.0,0.0,0.0,0.0,0.0,0.0,0.0,0.0,0.0,0.0,0.0,0.0,0.0,0.0,0.0,0.0,0.0,0.0,0.0,0.0,0.0,0.0,0.0,0.0,0.0,0.0,0.0,0.0,0.0,0.0,0.0,0.0,0.0,0.0,0.0,0.0,0.0,0.0,0.0,0.0,0.0,0.0,0.0,0.0,0.0,0.0,0.0,0.0,0.0,0.0,0.0,0.0,0.0,0.0,0.0,0.0,0.0,0.0,0.0,0.0,0.0,0.0,0.0,0.0,0.0,0.0,0.0,0.0,0.0,0.0,0.0,0.0,0.0,0.0,0.0,0.0,0.0,0.0,0.0,0.0,0.0,0.0,0.0,0.0,0.0,0.0,0.0,0.0,0.0,0.0,0.0,0.0,0.0,0.0,0.0,0.0,0.0,0.0,0.0,0.0,1.4625,1.5226,1.5413,1.5095,1.4712,1.4105,1.3119,1.2243,1.168,1.1523,0.0,0.0,0.0,0.0,0.0,0.0,0.0,0.0,0.0,0.0,0.0,0.0,0.0,0.0,0.0,0.0,0.0,0.0,0.0,0.0,0.0,0.0,0.0,0.0,0.0,0.0,0.0,0.0,0.0,0.0,0.0,0.0,0.0,0.0,0.0,0.0,0.0,0.0,0.0,0.0,0.0,0.0,0.0,0.0,0.0,0.0,0.0,0.0,0.0,0.0,0.0,0.0,0.0,0.0,0.0,0.0,0.0,0.0,0.0,0.0,0.0,0.0,0.0,0.0,0.0,0.0,0.0,0.0,0.0,0.0,0.0,0.0,0.0,0.0,0.0,0.0,0.0,0.0,0.0,0.0,0.0,0.0,0.0,0.0,0.0,0.0,0.0,0.0,0.0,0.0,0.0,0.0,0.0,0.0,0.0,0.0,0.0,0.0,0.0,0.0,0.0,0.0,1.5425,1.5789,1.5939,1.5975,1.5179,1.4347,1.3517,1.2854,1.242,1.2287,0.0,0.0,0.0,0.0,0.0,0.0,0.0,0.0,0.0,0.0,0.0,0.0,0.0,0.0,0.0,0.0,0.0,0.0,0.0,0.0,0.0,0.0,0.0,0.0,0.0,0.0,0.0,0.0,0.0,0.0,0.0,0.0,0.0,0.0,0.0,0.0,0.0,0.0,0.0,0.0,0.0,0.0,0.0,0.0,0.0,0.0,0.0,0.0,0.0,0.0,0.0,0.0,0.0,0.0,0.0,0.0,0.0,0.0,0.0,0.0,0.8759,0.0,0.0,0.0,0.0,0.0,0.0,0.0,0.0,0.0,0.0,0.0,0.0,0.0,0.0,0.0,0.0,0.0,0.0,0.0,0.0,0.0,0.0,0.0,0.0,0.0,0.0,0.0,0.0,0.0,0.0,0.0,0.0,0.0,0.0,0.0,0.0,0.0,0.0,0.0,0.0,0.0,1.5433,1.5853,1.6174,1.6498,1.6062,1.5258,1.4045,1.334,1.2751,1.2258,1.1509,0.0,0.0,0.0,0.0,0.0,0.0,0.0,0.0,0.0,0.0,0.0,0.0,0.0,0.0,0.0,0.0,0.0,0.0,0.0,0.0,0.0,0.0,0.0,0.0,0.0,0.0,0.0,0.0,0.0,0.0,0.0,0.0,0.0,0.0,0.0,0.0,0.0,0.0,0.0,0.0,0.0,0.0,0.0,0.0,0.0,0.0,0.0,0.0,0.0,0.0,0.0,0.0,0.0,0.0,0.0,0.0,0.0,0.0,0.0,0.0,1.0296,0.0,0.0,0.0,0.0,0.0,0.0,0.0,0.0,0.0,0.0,0.0,0.0,0.0,0.0,0.0,0.0,0.0,0.0,0.0,0.0,0.0,0.0,0.0,0.0,0.0,0.0,0.0,0.0,0.0,0.0,0.0,0.0,0.0,0.0,0.0,0.0,0.0,0.0,0.0,0.0,1.5786,1.6063,1.6261,1.6648,1.6328,1.5654,1.4541,1.3924,1.3358,1.2852,1.2101,0.0,0.0,0.0,0.0,0.0,0.0,0.0,0.0,0.0,0.0,0.0,0.0,0.0,0.0,0.0,0.0,0.0,0.0,0.0,0.0,0.0,0.0,0.0,0.0,0.0,0.0,0.0,0.0,0.0,0.0,0.0,0.0,0.0,0.0,0.0,0.0,0.0,0.0,0.0,0.0,0.0,0.0,0.0,0.0,0.0,0.0,0.0,0.0,0.0,0.0,0.0,0.0,0.0,1.7031,1.7119,1.736,1.7044,1.6877,1.6785,1.4908,1.3851,1.3353,1.176,0.0,0.0,0.0,0.0,0.0,0.0,0.0,0.0,0.0,0.0,0.0,0.0,0.0,0.0,0.0,0.0,0.0,0.0,0.0,0.0,0.0,0.0,0.0,0.0,1.501,1.4629,1.3678,0.0,0.0,0.0,0.0,0.0,0.0,0.0,0.0,0.0,0.0,0.0,1.6166,1.6231,1.6386,1.6927,1.6394,1.5684,1.4931,1.439,1.3899,1.3428,1.271,1.2281,0.0,0.0,0.0,0.0,0.0,0.0,0.0,0.0,0.0,0.0,0.0,0.0,0.0,0.0,0.0,0.0,0.0,0.0,0.0,0.0,0.0,0.0,0.0,0.0,0.0,0.0,0.0,0.0,0.0,0.0,0.0,0.0,1.4944,1.5125,0.0,0.0,0.0,0.0,0.0,0.0,0.0,0.0,0.0,0.0,0.0,0.0,0.0,1.642,1.7513,1.8422,1.8896,1.8965,2.0001,2.0381,2.0096,2.0038,2.0008,1.9959,1.8904,0.0,1.6023,1.3912,0.0,0.0,0.0,0.0,0.0,0.0,0.0,0.0,0.0,0.0,0.0,0.0,0.0,0.0,0.0,0.0,0.0,0.0,0.0,0.0,0.0,0.0,1.7174,1.6592,1.5859,1.5391,0.0,1.4208,1.2728,1.2139,1.1892,0.0,0.0,0.0,0.0,0.0,0.0,0.0,1.6123,1.6315,1.6859,1.7966,1.6528,1.5393,1.518,1.4486,1.3773,1.3042,1.2876,1.2627,1.2223,1.1813,0.0,0.0,0.0,0.0,0.0,0.0,0.0,0.0,0.0,0.0,0.0,0.0,0.0,0.0,0.0,0.0,0.0,0.0,0.0,0.0,0.0,0.0,0.0,0.0,0.0,0.0,0.0,0.0,0.0,1.5997,1.6775,1.6105,1.5954,1.5694,0.0,0.0,0.0,0.0,0.0,0.0,0.0,0.0,0.0,1.724,1.8143,1.8903,1.948,2.0312,2.0869,2.1113,2.168,2.1973,2.2002,2.1768,2.166,2.1621,2.1016,2.0185,1.9068,1.6877,1.5844,1.5536,0.0,0.0,0.0,0.0,1.4108,1.4497,1.5187,1.5621,1.5859,1.5846,0.0,0.0,0.0,0.0,0.0,0.0,0.0,1.6244,0.0,0.0,1.7745,1.7748,1.7291,1.6855,1.6848,1.5945,1.4848,0.0,1.3969,1.41,1.3684,0.0,0.0,0.0,0.0,1.6929,1.7431,1.7295,1.7405,1.8213,1.7022,1.5911,1.5263,1.462,1.3877,1.2969,1.2905,1.2803,1.2607,1.2094,1.1707,0.0,0.0,0.0,0.0,0.0,0.0,0.0,0.0,0.0,0.0,0.0,0.0,0.0,0.0,0.0,0.0,0.0,0.0,0.0,0.0,0.0,0.0,0.0,0.0,0.0,0.0,0.0,0.0,1.7299,1.8291,1.7141,1.7506,1.749,0.0,0.0,0.0,0.0,0.0,0.0,1.7705,1.8613,1.9104,1.916,2.04,2.1153,2.1221,2.1875,2.2363,2.2676,2.2676,2.2789,2.3081,2.2769,2.2676,2.2656,2.2344,2.1963,2.1366,1.9346,1.7865,1.6902,1.6679,1.6015,1.5232,1.5729,1.6055,1.6348,1.7119,1.7734,1.8086,1.7525,1.7282,1.697,1.5811,0.0,0.0,0.0,0.0,1.6847,1.7185,1.7528,1.7913,1.8478,1.8364,1.8057,1.7637,1.7269,1.6685,0.0,1.5946,1.6157,1.5525,0.0,0.0,0.0,0.0,1.7953,1.843,1.8123,1.8098,1.8626,1.7544,1.6509,1.5807,1.5053,1.4213,1.3196,1.3128,1.3055,1.2905,1.2369,1.2097,1.2101,0.0,0.0,0.0,0.0,0.0,0.0,0.0,0.0,0.0,0.0,0.0,0.0,0.0,0.0,0.0,0.0,0.0,0.0,0.0,0.0,0.0,0.0,0.0,0.0,0.0,0.0,0.0,0.0,0.0,1.849,1.8829,0.0,0.0,0.0,0.0,1.85,1.8896,1.9512,2.037,2.0468,2.1025,2.2246,2.2373,2.2607,2.2964,2.3013,2.3042,2.3062,2.3062,2.3071,2.3091,2.3071,2.3062,2.3062,2.3042,2.2789,2.2314,2.0547,1.9757,1.9592,1.8354,1.8091,1.828,1.7568,1.7793,1.8334,1.7637,1.792,1.8637,1.9043,1.8877,1.8344,1.751,1.7443,0.0,0.0,1.7885,1.8467,1.8728,1.8682,1.8555,1.8588,1.8588,1.8451,1.8066,1.7753,1.7512,0.0,1.6999,1.7006,1.7796,0.0,1.8417,1.7495,1.8669,1.9321,1.8333,1.8465,1.8912,1.9655,1.7964,1.6911,1.7168,1.5998,1.4832,1.3823,1.3755,1.3515,1.2929,1.2847,1.2525,1.1837,1.2035,0.0,0.0,0.0,0.0,0.0,0.0,0.0,0.0,0.0,0.0,0.0,0.0,0.0,0.0,0.0,0.0,0.0,0.0,0.0,0.0,0.0,0.0,0.0,0.0,0.0,0.0,0.0,0.0,2.1258,2.1422,0.0,2.1055,2.0052,1.9732,2.0535,2.0818,2.1211,2.1787,2.208,2.2432,2.2857,2.2877,2.2945,2.3091,2.3091,2.3091,2.3091,2.3091,2.3091,2.3091,2.3091,2.3091,2.3091,2.3091,2.3013,2.2808,2.1953,2.1426,2.1113,2.0333,2.0138,2.0196,1.9648,1.9656,1.9834,1.9568,1.9666,1.9917,2.0195,1.9319,1.8277,1.8655,1.8545,1.8301,1.8267,1.8785,1.9417,1.9531,1.9472,1.9358,1.9121,1.8812,1.849,1.8105,1.7921,1.7996,1.8532,1.8526,1.8501,1.86,1.969,2.0323,1.9635,2.0013,2.0251,1.9862,1.9579,1.9501,1.9773,1.8853,1.7965,1.7351,1.6515,1.5532,1.4455,1.4376,1.4294,1.4071,1.4071,1.3745,1.3116,1.3449,1.3201,0.0,0.0,0.0,0.0,0.0,0.0,0.0,0.0,0.0,0.0,0.0,0.0,0.0,0.0,0.0,0.0,0.0,0.0,0.0,0.0,0.0,0.0,0.0,0.0,0.0,0.0,2.3443,2.3509,2.405,2.4154,2.3542,2.2462,2.1999,2.2392,2.2342,2.2432,2.2672,2.2945,2.3091,2.3091,2.3091,2.3256,2.3681,2.3299,2.3299,2.3681,2.3256,2.3091,2.3091,2.3091,2.2945,2.2691,2.2974,2.2935,2.2715,2.2682,2.2559,2.2246,2.168,2.1455,2.1416,2.1123,2.1055,2.1026,2.084,2.0791,2.0791,2.0754,1.9897,1.901,1.9661,1.948,1.9056,1.9248,1.9492,1.9766,2.0059,2.0029,1.9805,1.9394,1.9072,1.8666,1.8135,1.8083,1.8381,1.9145,1.933,1.9379,1.9338,2.0468,2.1122,2.0487,2.0739,2.0859,2.045,2.0246,2.0054,1.9813,1.9321,1.8622,1.7678,1.7234,1.6443,1.5085,1.5163,1.5096,1.4732,1.4665,1.4451,1.4034,1.4256,1.4172,1.3785,0.0,0.0,0.0,0.0,0.0,0.0,0.0,0.0,0.0,0.0,0.0,0.0,0.0,0.0,0.0,0.0,0.0,0.0,0.0,0.0,0.0,0.0,0.0,2.073,2.2708,2.4396,2.523,2.6472,2.6725,2.5221,2.5357,2.5052,2.3879,2.3389,2.3091,2.3091,2.3115,2.3096,2.3096,2.3096,2.3631,2.4745,2.3661,2.3681,2.4787,2.3637,2.3135,2.3135,2.3135,2.2652,2.1973,2.274,2.2676,2.1992,2.276,2.3091,2.3013,2.2246,2.1924,2.1924,2.1946,2.1967,2.1848,2.1367,2.1211,2.1182,2.082,2.0683,2.0683,2.0683,2.034,2.0057,2.0478,2.0008,1.9558,2.039,2.0254,1.9824,1.9404,1.9297,1.9053,1.8213,1.8263,1.8645,1.9182,1.9299,1.949,2.0147,2.0701,2.0803,2.0019,2.0888,0.0,2.0007,2.0394,2.0537,1.9889,1.9365,1.8832,1.8279,1.8235,1.7483,1.5734,1.6111,1.5915,1.4789,1.4633,1.4568,1.4559,1.4414,1.4666,1.533,0.0,0.0,0.0,0.0,0.0,0.0,0.0,0.0,0.0,0.0,0.0,0.0,0.0,0.0,0.0,0.0,0.0,0.0,0.0,0.0,0.0,2.2191,2.3771,2.4185,2.5468,2.6772,2.7762,2.7449,2.7151,2.7116,2.5396,2.4173,2.3834,2.3389,2.3091,2.3091,2.3112,2.3083,2.3083,2.3083,2.3248,2.3556,2.3285,2.3681,2.4787,2.3637,2.3551,2.4296,2.3464,2.2974,2.2769,2.2994,2.2964,2.2769,2.3003,2.3091,2.3071,2.2838,2.275,2.284,2.3379,2.3164,2.2455,2.1204,2.1191,2.1873,2.2494,2.2713,2.2713,2.2713,2.2093,2.1326,2.076,2.0439,2.0312,2.0537,2.0517,2.0273,1.9844,1.9512,1.9131,1.8549,1.8296,1.8378,1.9145,1.9299,1.976,2.1178,2.2025,2.2439,2.2226,2.2138,0.0,2.1134,2.0843,2.0653,2.0474,2.0359,1.9895,1.8869,1.8828,1.8117,1.6365,1.6389,1.6324,1.602,1.597,1.5894,1.5797,1.5431,1.5491,0.0,0.0,0.0,0.0,0.0,0.0,0.0,0.0,0.0,0.0,0.0,0.0,0.0,0.0,0.0,0.0,0.0,0.0,0.0,0.0,0.0,0.0,2.4628,2.6554,2.755,2.7677,2.8193,2.976,2.9326,2.9024,2.927,2.7225,2.5695,2.5118,2.4187,2.3627,2.3627,2.3664,2.3581,2.3381,2.3368,2.3536,2.3823,2.3358,2.3681,2.4787,2.3637,2.343,2.4092,2.3387,2.2906,2.2637,2.2945,2.2896,2.2604,2.2955,2.3091,0.0,0.0,0.0,0.0,0.0,2.3701,2.3507,2.2197,2.2392,2.327,2.3464,2.3514,2.3514,2.3514,2.2787,2.1895,2.1553,2.09,2.0447,2.1261,2.1213,2.0964,2.1135,2.0513,1.9798,1.9344,1.869,1.853,1.9618,1.9942,0.0,2.212,2.2311,2.227,2.2414,2.2388,2.2048,2.1229,2.1103,2.0886,2.0386,2.0167,1.9681,1.8743,1.8711,0.0,0.0,0.0,1.6714,1.6442,1.6429,0.0,0.0,0.0,1.6566,1.7351,0.0,0.0,0.0,1.7043,1.6751,0.0,0.0,0.0,0.0,0.0,0.0,0.0,0.0,0.0,0.0,0.0,0.0,0.0,0.0,0.0,0.0,2.721,2.8938,3.0482,2.9293,2.9048,3.1226,3.1342,3.1206,3.1204,2.9598,2.8106,2.6978,2.5334,2.4414,2.4414,0.0,0.0,0.0,0.0,2.4155,2.4768,2.3703,2.3751,2.4861,2.3657,2.3178,2.3309,2.3178,2.2691,2.207,2.2769,2.2672,2.209,2.2789,2.3178,2.3256,2.3135,2.3178,2.3299,2.325,2.3935,2.4787,2.3828,0.0,0.0,2.407,2.379,2.3818,2.3697,2.2981,2.235,2.267,2.1539,2.061,2.2358,2.223,2.182,2.257,2.1794,2.0769,2.0189,1.9375,1.9126,2.048,2.095,2.153,2.2857,2.2061,2.1336,2.1631,2.2146,2.2046,2.0848,2.1224,2.1146,2.0025,0.0,0.0,1.8342,1.83,1.78,1.6581,1.6951,1.6971,1.6459,1.6413,1.6652,1.7127,1.7194,1.7741,1.8825,1.889,1.954,2.0629,1.8141,1.7526,0.0,0.0,0.0,0.0,0.0,0.0,0.0,0.0,0.0,0.0,0.0,0.0,0.0,0.0,0.0,2.7448,2.9025,3.0394,3.1135,3.0117,2.9971,3.1839,3.0783,3.0295,3.1116,2.8823,2.7162,2.6932,2.5334,2.4414,2.4414,2.44,2.4354,2.4301,2.4262,2.4349,2.4493,2.3951,2.4221,2.5277,0.0,0.0,2.4457,2.3507,2.3003,2.2867,2.3023,2.3003,2.2867,2.3033,2.3637,2.4382,2.3474,2.3671,2.4416,2.4095,2.4655,2.5547,2.5009,2.5196,2.5591,2.5439,2.5612,2.5756,2.4969,2.4566,0.0,2.3539,2.3053,2.2881,2.3251,2.3234,2.2878,2.1915,2.1737,2.1432,2.0202,2.0072,2.0478,2.1479,2.1701,2.2005,2.2932,2.2857,2.2715,2.2765,2.29,2.2584,2.1471,2.1447,2.1257,2.0599,2.0475,2.0034,1.8944,1.8892,1.8235,1.6606,1.6595,1.6811,1.7169,1.7182,1.7429,1.7954,1.8376,1.8722,1.8966,1.9396,1.9989,2.0679,2.0138,2.0013,0.0,0.0,0.0,0.0,0.0,0.0,0.0,0.0,0.0,0.0,0.0,2.5504,2.5873,0.0,2.8599,2.9497,3.0418,3.0982,3.0898,3.1162,3.1558,3.2118,3.0907,3.0582,3.2023,3.0264,2.8811,2.8182,2.6837,2.5708,2.5078,2.5076,2.4961,2.4753,2.4743,2.4652,2.4392,2.3998,2.4048,2.4597,2.3604,2.3387,2.392,2.3343,2.3091,2.3091,2.3091,2.3091,2.3135,2.3714,2.4296,2.4787,2.4808,2.5136,2.565,2.5422,2.601,2.6868,2.6398,2.656,2.6907,2.6638,2.6528,2.6418,2.5908,2.5355,2.484,2.4621,2.3862,2.3306,2.4306,2.4214,2.3826,2.3572,2.3132,2.2489,2.1519,2.0938,2.0846,2.1721,2.1908,2.2168,2.2944,2.3108,2.3108,2.3108,2.2869,2.2393,2.1594,2.1282,2.088,2.0314,2.0042,1.9555,1.8656,1.8382,1.799,1.7398,1.734,1.7488,1.779,1.779,1.8053,1.8581,1.8857,1.9133,1.9384,1.9673,2.0238,2.1106,2.1106,2.1106,0.0,0.0,0.0,0.0,0.0,0.0,0.0,0.0,2.6254,2.6608,2.7115,2.7855,2.8993,2.9609,3.0269,3.1334,3.1719,3.1671,3.1008,3.1969,3.2623,3.2386,3.1534,3.1527,3.3095,3.211,3.0838,2.9498,2.8358,2.717,2.5791,2.5693,2.553,2.5247,2.5245,2.505,2.4676,2.4158,2.3906,2.3906,2.3344,2.3091,2.3091,2.3091,2.3091,2.3091,2.3091,2.3091,2.3222,2.4585,2.5126,2.5252,2.6595,2.7139,2.7098,2.6883,2.7371,2.8076,2.7855,2.7937,2.8034,2.7595,2.7027,2.6499,2.6499,2.5871,2.5222,2.5649,2.4649,2.381,2.5357,2.5179,2.4672,2.5082,2.4385,2.3412,2.2691,2.1783,2.129,2.2002,2.2137,2.2353,2.2975,2.3108,2.3108,2.3108,2.2732,2.2234,2.1568,2.1131,2.0591,1.9874,1.9396,1.8933,1.8405,1.7852,1.7727,1.8179,1.8204,1.8254,1.8355,1.8367,1.8618,1.9146,1.9259,1.9547,1.9974,2.0075,2.0652,2.1644,2.1644,2.1644,2.1578,2.0653,0.0,2.3059,2.4442,2.575,0.0,0.0,3.0533,2.9997,3.1821,3.3157,3.1928,3.3107,3.3916,3.2811,3.3133,3.337,3.288,3.2016,3.1797,3.2895,3.2882,3.3064,3.3746,3.2694,3.1281,2.9532,2.8707,2.7548,2.5801,2.5693,2.5664,2.5614,2.5605,2.5586,2.5535,2.4763,2.4346,2.4336,2.3481,2.3091,2.3091,2.3091,2.3091,2.3091,2.3091,2.3091,2.3266,2.5431,2.6307,2.6513,2.8621,2.9417,2.93,2.8307,2.8016,2.8255,2.9201,2.8913,2.8097,2.8034,2.7341,2.6499,2.6499,2.6411,2.6323,2.6386,2.623,2.6133,2.6327,2.5941,2.5161,2.4005,2.3847,2.3572,2.2279,2.242,2.2854,2.2944,2.2975,2.2975,2.3065,2.3108,2.3108,2.3108,2.3058,2.2631,2.1619,2.1458,2.0991,1.9924,1.9748,1.9497,1.8958,1.843,1.8141,1.8204,1.8204,1.8406,1.8895,1.8907,1.9158,1.971,2.0251,2.0541,2.0591,2.1094,2.1619,2.2221,2.2221,2.2221,2.4534,0.0,0.0,0.0,2.7243,2.9092,2.9372,3.1098,3.2653,3.2756,3.3702,3.4526,3.4646,3.485,3.4854,0.0,3.3993,3.3394,3.2172,3.2465,3.2582,3.2045,3.2655,3.3031,3.293,3.3045,3.2414,3.0576,3.0088,2.9091,2.7355,2.6536,2.5996,2.5693,2.5693,2.5693,2.5693,2.5117,2.4668,2.4414,2.3809,2.3344,2.3091,2.3091,2.3464,2.4135,2.4808,2.5062,2.5189,2.6789,2.7441,2.7574,2.9157,2.9792,2.9753,2.9287,2.9106,2.9157,2.9624,2.9264,2.8499,2.821,2.7582,2.6914,2.6587,2.6499,2.6499,2.6499,2.6499,2.6499,2.6499,2.6311,2.5807,2.4538,2.4375,2.4135,2.2856,2.2854,2.3108,2.3108,2.3108,2.3108,2.3108,2.3108,2.3108,2.3108,2.2832,2.2372,2.1594,2.1232,2.0729,1.9886,1.9509,1.9359,1.9447,1.8958,1.8782,1.9108,1.9133,1.9233,1.9472,1.9472,1.9748,2.0314,2.0566,2.0842,2.1169,2.1408,2.1769,2.2309,2.2309,2.2456,2.5937,0.0,0.0,2.6499,2.9098,3.1309,3.0837,3.2439,3.4188,3.4666,3.4788,3.5055,3.6043,3.5927,3.5547,3.5291,3.4802,3.389,3.2162,3.2945,3.3077,3.1458,3.2055,3.2328,3.1612,3.2968,3.3212,3.1562,3.1236,3.0288,2.8448,2.7101,2.624,2.5879,2.5752,2.5693,2.5693,2.5176,2.4785,2.459,2.3926,2.3506,2.331,2.348,2.4006,2.4872,2.6016,2.6524,2.6595,2.7643,2.8096,2.8215,2.9365,2.9792,2.9792,2.9792,2.9792,2.9792,2.9792,2.9415,2.88,2.8285,2.7733,2.7216,2.6663,2.6499,2.6499,2.6499,2.6499,2.6499,2.6499,2.6273,2.5799,2.5008,2.455,2.4098,2.3283,2.3108,2.3108,2.3108,2.3108,2.3108,2.3108,2.3108,2.3108,2.3108,2.2769,2.2255,2.1581,2.0893,2.0289,1.9849,1.9434,1.9371,1.9773,1.9434,1.9472,2.0012,2.0037,2.0037,2.0037,2.0188,2.0388,2.0679,2.0993,2.1345,2.1719,2.187,2.2146,2.2506,2.2506,2.2732,0.0,0.0,2.5234,2.6854,2.9167,3.1299,3.2297,3.4052,3.5444,3.5474,3.5474,3.5489,3.5534,3.6503,3.6858,3.536,3.5694,3.5602,3.4034,3.342,3.2692,3.1521,3.1436,3.1035,0.0,3.2315,3.3373,3.2156,3.1812,3.0678,2.8303,2.7051,2.6387,2.6367,2.5957,2.5693,2.5693,2.4873,2.4639,2.5077,2.376,2.3335,2.3805,2.4459,2.4787,2.4872,2.6016,2.6524,2.6595,2.7643,2.8096,2.8215,2.9365,2.9792,2.9792,2.9792,2.9792,2.9792,2.9792,2.9415,2.88,2.8285,2.7733,2.7216,2.6663,2.6499,2.6499,2.6499,2.6499,2.6499,2.6499,2.5674,2.4825,2.48,2.396,2.3145,2.3108,2.3108,2.3108,2.3108,2.3108,2.3108,2.3108,2.3108,2.3108,2.3108,2.3095,2.2681,2.1631,2.0514,1.9823,1.9798,1.9786,1.9786,1.9798,1.9786,2.0024,2.0629,2.0666,2.0666,2.0666,2.1182,2.1219,2.0704,2.1719,2.2272,2.2284,2.2794,2.3058,2.3083,2.3083,2.3083,0.0,0.0,2.6678,2.7595,2.9519,3.1222,3.1589,3.315,3.4509,3.4509,3.3984,3.3664,3.4098,3.4173,3.4174,3.4278,3.4325,3.4376,3.4408,3.302,3.1813,3.1436,3.1085,0.0,0.0,0.0,0.0,3.2198,3.2636,3.2296,3.0857,2.9888,2.8693,2.7239,2.7804,2.7757,2.6993,2.744,2.7656,2.7541,2.6432,2.5776,2.5625,2.6558,2.6971,2.7052,2.8199,2.8712,2.8712,2.9079,2.9236,2.9287,2.9663,2.9792,2.9792,2.9792,2.9792,2.9792,2.9792,2.9666,2.9402,2.8837,2.8285,2.772,2.7168,2.6788,2.6499,2.6499,2.6223,2.5887,2.5887,2.536,2.47,2.4356,2.3991,2.3602,2.3195,2.3108,2.3108,2.3108,2.3108,2.3108,2.3108,2.3108,2.2982,2.2606,2.2556,2.2447,2.2083,2.1054,2.0402,2.0402,2.0037,1.9798,1.9798,2.0189,2.0478,2.0679,2.1031,2.1232,2.1232,2.1393,2.1568,2.1757,2.2121,2.2498,2.2832,2.3007,2.3108,2.3108,2.3108,2.3108,0.0,2.6779,2.7758,2.8524,2.9965,3.1217,3.1217,3.2629,3.3853,3.3303,3.2959,3.2727,3.2698,3.252,3.2729,3.3686,3.3402,3.3435,3.4468,3.2934,3.1612,3.1411,3.1097,3.0947,0.0,0.0,0.0,3.2202,3.2644,3.2591,3.1736,3.0835,2.9722,2.8483,2.9082,2.9039,2.8272,2.8873,2.8869,2.824,2.7736,2.7164,2.6524,2.7434,2.7711,2.7573,2.8294,2.8819,2.9138,2.8763,2.9091,2.9753,2.9365,2.9443,2.9792,2.9792,2.9792,2.9792,2.9792,2.9792,2.9666,2.8888,2.8398,2.7959,2.7218,2.6776,2.6499,2.6499,2.6223,2.59,2.59,2.5498,2.5008,2.4657,2.428,2.3891,2.3496,2.3246,2.3005,2.2732,2.2884,2.3017,2.272,2.2914,2.2982,2.2631,2.2581,2.246,2.2071,2.1393,2.0993,2.0993,2.0654,2.0401,2.0401,2.0767,2.1069,2.127,2.1594,2.1782,2.1782,2.197,2.2146,2.2309,2.2481,2.2757,2.3108,2.3108,2.3108,2.3108,2.3108,2.3108,2.7566,2.8195,2.8522,2.9528,3.0482,3.1143,3.1143,3.2508,3.3408,3.1986,3.2353,3.2522,0.0,0.0,3.2328,3.3407,3.2982,3.2995,3.4295,3.3178,3.2018,0.0,0.0,0.0,0.0,0.0,0.0,3.2177,0.0,3.1736,3.1134,3.0045,2.9631,3.0068,2.9734,2.9544,2.9498,2.9184,2.8505,2.7544,2.7922,2.7629,2.6745,2.7166,2.7093,2.6602,2.6565,2.7156,2.8039,2.7057,2.7931,2.9702,2.8597,2.8858,2.9792,2.9792,2.9792,2.9792,2.9792,2.9792,2.9616,2.8549,2.816,2.7908,2.6901,2.6537,2.6499,2.6499,2.6474,2.6449,2.6449,2.6021,2.5548,2.5548,2.4757,2.4004,2.4029,2.3503,2.2836,2.2068,2.2531,2.2823,2.2106,2.2598,2.3108,2.3108,2.3108,2.2732,2.1707,2.1543,2.1531,2.1531,2.1506,2.1493,2.1493,2.1546,2.1757,2.2284,2.2334,2.2347,2.2347,2.2832,2.2857,2.2359,2.2844,2.3108,2.3108,2.3108,2.3108,2.3108,2.3108,2.3108,2.8462,2.9363,3.0319,2.9896,2.9972,3.0139,3.0139,3.0779,3.1091,3.0274,2.9369,2.8665,0.0,0.0,0.0,3.1691,3.2572,0.0,3.4292,3.3501,0.0,3.1521,0.0,3.1336,3.121,3.1687,0.0,0.0,3.2941,3.3138,3.2581,3.2663,3.2159,3.0919,3.1717,3.1689,3.0765,3.1556,3.1657,3.0959,3.1052,3.0575,2.952,2.8833,2.8197,2.7676,2.7698,2.7862,2.812,2.8709,2.9287,2.9753,2.9495,2.9534,2.9792,2.9792,2.9792,2.9792,2.9792,2.9792,2.9741,2.9453,2.8787,2.8059,2.777,2.714,2.6499,2.6499,2.6185,2.5812,2.5812,2.5423,2.4988,2.4988,2.4494,2.4117,2.4519,2.3348,2.2246,2.2452,2.2339,2.2322,2.2732,2.2944,2.3108,2.3108,2.3108,2.3007,2.2719,2.2347,2.2108,2.2108,2.1732,2.1493,2.1493,2.187,2.2159,2.2297,2.2669,2.2895,2.2895,2.3032,2.3045,2.2895,2.3032,2.3108,2.3108,2.3108,2.3108,2.3108,2.3108,2.3108,3.0343,3.0739,3.1068,3.0558,3.0101,2.9603,2.8863,2.9215,2.9245,2.7746,2.7096,0.0,0.0,0.0,0.0,0.0,0.0,0.0,3.3827,3.3407,3.2789,0.0,3.2127,0.0,3.2805,3.3131,3.3206,0.0,3.3081,3.3144,3.3124,3.3131,3.2804,3.2052,3.2754,3.2754,3.2052,3.2493,3.2416,3.1851,3.1851,3.1286,3.0217,2.8838,2.8184,2.8048,0.0,2.7214,2.8098,2.8258,2.8922,2.9753,2.9236,2.9365,2.9792,2.9792,2.9792,2.9792,2.9792,2.9792,2.9754,2.9503,2.8812,2.8059,2.7821,2.7178,2.6499,2.6499,2.626,2.5975,2.5975,2.5762,2.5536,2.5536,2.5109,2.4653,2.4558,2.3329,2.2266,2.2337,2.1784,2.171,2.2884,2.3108,2.3108,2.3108,2.3108,2.3108,2.3108,2.2832,2.2644,2.2644,2.2397,2.2209,2.2209,2.2498,2.2644,2.2644,2.2932,2.3108,2.3108,2.3108,2.3108,2.3108,2.3108,2.3108,2.3108,2.3108,2.3108,2.3108,2.3108,2.3108,3.2577,3.216,3.1482,3.1267,3.043,2.9277,2.7745,2.788,2.7633,2.5284,0.0,2.5629,2.5094,2.6064,2.7619,2.9743,0.0,3.2103,3.2877,3.3051,3.3077,3.3013,3.3031,3.3508,3.4613,3.4587,3.4399,3.4135,3.3144,3.2729,3.3169,3.2704,3.2629,3.3111,3.3124,3.3124,3.3124,3.2503,3.1976,3.1499,3.1424,3.0871,2.9839,2.8239,2.7747,2.7978,2.6069,2.6319,2.804,2.7252,2.8051,2.9702,2.8727,2.8937,2.9792,2.9792,2.9792,2.9792,2.9792,2.9792,2.9704,2.9202,2.8612,2.8034,2.762,2.7052,2.6512,2.6587,2.6549,2.6499,2.6499,2.6499,2.6452,2.6349,2.5843,2.5163,2.4315,2.3226,2.2321,2.1828,2.1005,2.1005,2.2781,2.3017,2.2975,2.3065,2.3108,2.3108,2.3108,2.3108,2.3108,2.3108,2.3108,2.3108,2.3108,2.3108,2.3108,2.3108,2.3108,2.3108,2.3108,2.3108,2.3108,2.3108,2.3108,2.3108,2.3108,2.3108,2.3108,2.3108,2.3108,2.3108,3.4079,3.3466,3.2864,3.1545,3.0121,2.885,2.8134,2.7019,0.0,0.0,2.4192,2.3786,2.4347,2.5063,0.0,2.8232,0.0,0.0,0.0,0.0,3.3351,0.0,0.0,0.0,0.0,0.0,0.0,0.0,3.4605,3.4135,3.3771,3.3658,3.3445,3.3124,3.3124,3.3124,3.3124,3.2503,3.2164,3.2064,3.1599,3.1072,3.043,2.9184,2.8448,2.8083,2.7681,0.0,2.8162,2.8915,2.9456,2.9792,2.9573,2.9624,2.9792,2.9792,2.9792,2.9792,2.9792,2.9792,2.9779,2.9679,2.895,2.8172,2.8536,2.762,2.6587,2.7052,2.6851,2.6499,2.6499,2.6499,2.628,2.5441,2.4856,2.4304,2.3746,2.2311,2.1065,2.0867,2.0107,2.029,2.2689,2.2537,2.231,2.3017,2.3108,2.3108,2.3108,2.3108,2.3108,2.3108,2.3108,2.3108,2.3108,2.3108,2.3108,2.3108,2.3108,2.3108,2.3108,2.3108,2.3108,2.3108,2.3108,2.3108,2.3108,2.3108,2.3108,2.3108,2.3108,2.3108,3.4994,3.4292,3.3501,3.2245,3.0557,2.8713,2.682,0.0,0.0,0.0,2.2447,2.2387,2.2776,0.0,0.0,0.0,0.0,0.0,0.0,0.0,0.0,0.0,0.0,0.0,0.0,0.0,0.0,0.0,3.4713,3.4726,3.4705,3.4211,3.3771,3.3508,3.3275,3.3124,3.3124,3.2503,3.2064,3.1775,3.1248,3.0708,3.0142,2.9012,2.8667,2.8937,2.8347,2.827,2.8572,2.946,2.9616,2.9365,2.9679,2.9792,2.9792,2.9792,2.9792,2.9792,2.9792,2.9792,2.9792,2.9792,2.9227,2.8499,2.8511,2.7745,2.6914,2.6901,2.67,2.6499,2.6499,2.6499,2.6245,2.5229,2.4008,2.2872,2.2212,2.1346,2.054,2.003,1.9944,2.0526,2.2187,2.1772,2.1647,2.2914,2.2732,2.2628,2.3047,2.3108,2.3108,2.3108,2.3108,2.3108,2.3108,2.3108,2.3108,2.3108,2.3108,2.3108,2.3108,2.3108,2.3108,2.3108,2.3108,2.3108,2.3108,2.3108,2.3108,2.3108,2.3108,2.3108,3.5639,3.4978,3.3945,3.2883,3.1032,2.8712,2.5646,2.3998,0.0,0.0,2.1119,2.1343,2.1496,0.0,0.0,0.0,0.0,0.0,0.0,0.0,0.0,0.0,0.0,0.0,0.0,0.0,0.0,0.0,3.4826,3.5215,3.5483,3.4613,3.4022,3.3897,3.337,3.3061,3.2893,3.2315,3.1763,3.1223,3.0683,3.0218,2.9753,2.8858,2.8937,2.9753,2.8846,2.8619,2.8938,2.9553,2.9453,2.895,2.9566,2.9792,2.9792,2.9792,2.9792,2.9792,2.9792,2.9792,2.9792,2.9792,2.9402,2.8838,2.8561,2.7996,2.7369,2.6964,2.6851,2.6788,2.6549,2.6587,2.6348,2.4993,2.3147,2.1497,2.0668,2.041,2.0131,1.941,1.9683,2.0365,2.1428,2.1037,2.1101,2.2628,2.2445,2.2384,2.3005,2.3108,2.3108,2.3108,2.3108,2.3108,2.3108,2.3108,2.3108,2.3108,2.3108,2.3108,2.3108,2.3108,2.3108,2.3108,2.3108,2.3108,2.3108,2.3108,2.317,2.3283,2.3283,2.3346,3.6073,3.5673,3.4558,3.2994,3.1032,2.8817,2.6135,0.0,0.0,2.1656,2.1081,2.0918,2.1393,2.2065,2.293,0.0,0.0,2.5472,0.0,0.0,0.0,0.0,0.0,0.0,0.0,0.0,0.0,0.0,3.6229,3.6019,3.552,3.4931,3.4412,3.3922,3.337,3.283,3.2303,3.1738,3.1198,3.0683,3.0131,2.9842,2.9792,2.9702,2.9702,2.9792,2.9702,2.9376,0.0,2.9553,2.9453,2.895,2.9566,2.9792,2.9792,2.9792,2.9792,2.9792,2.9792,2.9792,2.9792,2.9792,2.9402,2.8976,2.949,2.8888,2.8021,2.7971,2.7959,2.772,2.6751,2.6864,2.6618,2.4212,2.2151,2.0476,1.961,1.9423,1.9417,1.932,1.8721,1.8754,2.043,2.0655,2.091,2.1877,2.2567,2.3005,2.3078,2.3108,2.3108,2.3108,2.3108,2.3108,2.3108,2.3108,2.3108,2.3108,2.3108,2.3108,2.3108,2.3108,2.3108,2.3108,2.3108,2.3108,2.3108,2.3108,2.3371,2.3916,2.3916,2.4192,3.4921,3.4879,3.4123,3.2911,3.0539,2.7919,2.5641,0.0,2.1832,2.0702,2.0603,2.0654,2.0489,2.1204,2.2071,0.0,0.0,0.0,0.0,0.0,0.0,0.0,0.0,0.0,0.0,0.0,0.0,0.0,3.5378,3.5429,3.5495,3.4969,3.4462,3.3922,3.337,3.2968,3.2729,3.1838,3.1286,3.1072,3.0206,2.9792,2.9792,2.9792,2.9792,2.9792,2.9792,2.9277,0.0,2.9415,2.9252,2.8524,2.944,2.9792,2.9792,2.9792,2.9792,2.9792,2.9792,2.9792,2.9792,2.9792,2.9641,2.9428,2.9315,2.8925,2.8499,2.8197,2.7871,2.7507,2.7102,2.6468,2.5517,2.39,2.2451,2.1136,1.9934,1.9882,1.9824,1.9032,1.8836,1.9011,1.9683,1.9365,1.9694,2.1616,2.1741,2.1959,2.2975,2.3108,2.3108,2.3108,2.3108,2.3108,2.3108,2.3108,2.3108,2.3108,2.3108,2.3108,2.3108,2.3108,2.3108,2.3108,2.3446,2.3446,2.3108,2.3785,2.4061,2.4004,2.4343,2.4607,3.3129,3.3543,3.3345,3.2429,3.0015,2.7367,0.0,0.0,2.1217,2.025,2.0402,2.0566,2.0125,2.084,2.1669,2.2221,0.0,2.4455,0.0,0.0,0.0,0.0,0.0,0.0,0.0,0.0,0.0,3.5177,3.5203,3.5303,3.5483,3.4969,3.4462,3.3922,3.337,3.2993,3.283,3.2039,3.1474,3.1148,3.0394,2.9867,2.9541,2.9716,2.9691,2.9553,2.9716,2.9239,0.0,2.9402,2.9227,2.8448,2.9415,2.9792,2.9792,2.9792,2.9792,2.9792,2.9792,2.9792,2.9792,2.9792,2.9792,2.9716,2.9315,2.9189,2.9026,2.8499,2.7833,2.7281,2.7281,2.5947,2.4373,2.3672,2.2515,2.1356,2.0507,2.0295,1.9992,1.9194,1.8957,1.8921,1.8921,1.8811,1.9309,2.0878,2.1259,2.1678,2.2628,2.2944,2.3108,2.3108,2.3108,2.3108,2.3108,2.3108,2.3108,2.3108,2.3108,2.3183,2.3358,2.3195,2.3183,2.3358,2.3791,2.3803,2.3358,2.4324,2.4707,2.4481,2.487,2.5146,3.0781,3.1847,3.2393,3.1462,2.9543,2.7367,0.0,0.0,2.1358,2.0792,2.0691,2.0691,2.0679,2.1131,2.1669,2.2221,2.3251,0.0,0.0,0.0,0.0,0.0,0.0,0.0,0.0,0.0,0.0,3.6392,3.6392,0.0,3.552,3.4969,3.4462,3.3922,3.337,3.2805,3.2227,3.2215,3.1675,3.062,3.062,3.0018,2.8913,2.9528,2.9478,2.8938,2.9541,2.9465,0.0,2.9553,2.9453,2.8938,2.9566,2.9792,2.9792,2.9792,2.9792,2.9792,2.9792,2.9792,2.9792,2.9792,2.9792,2.9792,2.9779,2.9779,2.9666,2.9051,2.8134,2.7281,2.7281,2.5409,2.3514,2.3514,2.201,2.0748,2.1276,2.0295,1.9475,1.9972,1.8957,1.8008,1.8008,1.9431,2.0301,1.9464,2.1479,2.2793,2.2002,2.2598,2.3108,2.3108,2.3108,2.3108,2.3108,2.3108,2.3108,2.3108,2.3108,2.3358,2.3966,2.3409,2.3371,2.3979,2.4004,2.4004,2.3991,2.4556,2.5084,2.5573,2.5586,2.59,2.89,2.9783,3.0038,2.9333,2.7556,2.5494,2.3533,0.0,2.0905,2.0729,2.0691,2.0691,2.0691,2.1144,2.1794,2.2694,2.3502,0.0,0.0,0.0,0.0,0.0,0.0,0.0,0.0,0.0,0.0,3.638,3.5667,3.5328,3.5495,3.4618,3.4085,3.3909,3.337,3.2993,3.2805,3.2416,3.1851,3.1135,3.0783,2.9979,2.8913,2.9528,2.9478,2.8925,2.9541,2.9465,2.8938,2.9553,2.9453,2.895,2.9566,2.9792,2.9792,2.9792,2.9792,2.9792,2.9792,2.9792,2.9792,2.9792,2.9792,2.9792,2.9792,2.9792,2.9591,2.8637,2.8109,2.767,2.6952,2.5632,2.4337,2.3661,2.3036,2.236,2.145,2.0757,2.023,1.9996,1.8889,1.8008,1.8008,1.8462,1.8921,1.9233,2.0483,2.151,2.1846,2.2598,2.3108,2.3108,2.3108,2.3108,2.3108,2.3108,2.3108,2.3108,2.3471,2.3803,2.3991,2.4161,2.4349,2.4525,2.4908,2.4921,2.4537,2.5485,2.6059,2.6223,2.6223,2.6323,2.6419,2.7569,2.809,2.7729,2.6183,0.0,0.0,0.0,2.0809,2.1001,2.1004,2.1006,2.1006,2.143,2.202,2.2681,2.4111,0.0,0.0,0.0,0.0,0.0,0.0,0.0,0.0,0.0,3.5994,3.638,3.573,3.5491,3.583,3.4813,3.4211,3.4211,3.347,3.3124,3.3124,3.2717,3.2252,3.17,3.1373,3.0532,2.9277,2.9842,2.9666,2.8925,2.9541,2.9591,0.0,2.9641,2.9578,2.9289,2.9654,2.9792,2.9792,2.9792,2.9792,2.9792,2.9792,2.9792,2.9792,2.9792,2.9792,2.9792,2.9792,2.9792,2.9515,2.8172,2.7946,2.7846,2.6788,2.5464,2.4373,2.4108,2.3478,2.272,2.1987,2.1286,2.0653,2.0075,1.8923,1.8008,1.8008,1.8269,1.8654,1.921,2.0042,2.091,2.1784,2.2353,2.2763,2.3078,2.3108,2.3108,2.3108,2.3108,2.3195,2.3421,2.3803,2.418,2.4582,2.4745,2.4888,2.5109,2.5435,2.5435,2.5109,2.6047,2.6499,2.6499,2.6499,2.6658,0.0,2.5325,2.6619,2.656,2.5407,2.4216,2.4121,0.0,0.0,2.1549,2.1621,2.1577,2.1627,2.2062,2.2464,2.2568,0.0,0.0,0.0,0.0,0.0,0.0,0.0,0.0,0.0,0.0,3.6499,3.6405,3.6405,3.6392,3.6355,3.5303,3.4655,3.4618,3.3633,3.3124,3.3124,3.3124,3.2754,3.2102,3.2139,3.1286,2.9691,3.0281,2.9955,0.0,2.9541,2.9792,2.9792,2.9792,2.9792,2.9792,2.9792,2.9792,2.9792,2.9792,2.9792,2.9792,2.9792,2.9792,2.9792,2.9792,2.9792,2.9779,2.9741,2.9767,2.9465,2.7846,2.7745,2.7871,2.6876,2.5111,2.3854,2.4826,2.361,2.2349,2.2874,2.1925,2.0828,2.0315,1.906,1.8076,1.8008,1.8721,1.9266,1.921,2.0009,2.0878,2.169,2.1846,2.2199,2.3005,2.3145,2.3158,2.3158,2.3158,2.3396,2.3966,2.4067,2.4556,2.5548,2.5172,2.5172,2.5649,2.5649,2.5649,2.5661,2.6235,2.6499,2.6499,2.6555,2.7007,2.2946,0.0,2.5741,2.5294,2.4875,2.4305,0.0,0.0,0.0,0.0,0.0,0.0,0.0,0.0,0.0,0.0,0.0,0.0,0.0,0.0,0.0,0.0,0.0,0.0,0.0,0.0,3.7322,3.6452,3.6405,3.6182,3.5768,3.509,3.4525,3.411,3.3432,3.3124,3.3124,3.3124,3.2378,3.0997,3.1386,3.0495,2.8536,2.9528,2.9603,2.8925,2.9541,2.9792,2.9792,2.9792,2.9792,2.9792,2.9792,2.9792,2.9792,2.9792,2.9792,2.9792,2.9792,2.9792,2.9792,2.9792,2.9792,2.9704,2.9264,2.944,2.9616,2.8775,2.8335,2.8047,2.7783,2.6189,2.4801,2.5444,2.4941,2.4233,2.3944,2.3361,2.25,2.1319,1.9948,1.8787,1.811,1.8721,1.9077,1.8395,1.9617,2.0655,2.0878,2.1491,2.2199,2.3005,2.3496,2.3791,2.3791,2.3791,2.3853,2.3991,2.477,2.5335,2.5586,2.59,2.6172,2.6285,2.6285,2.6285,2.6298,2.6424,2.6499,2.6499,2.7129,2.7517,2.2694,2.3671,2.4662,2.4534,2.435,2.4057,2.3554,0.0,0.0,0.0,0.0,0.0,0.0,0.0,0.0,0.0,0.0,0.0,0.0,0.0,0.0,0.0,0.0,0.0,0.0,0.0,3.707,3.6452,3.6119,3.6075,3.625,3.5034,3.442,3.4645,3.4135,3.3839,3.3839,3.3839,3.3312,3.2306,3.2432,3.1408,2.9446,2.9947,2.9854,2.9327,2.9377,2.9553,2.9779,2.9503,2.9553,2.9792,2.9792,2.9792,2.9792,2.9792,2.9792,2.9792,2.9792,2.9792,2.9792,2.9792,2.9792,2.9729,2.9415,2.9541,2.9616,2.8787,2.8511,2.836,2.7858,2.6564,2.5505,2.5983,2.5563,2.479,2.4029,2.3367,2.242,2.0765,1.951,1.8563,1.8076,1.8395,1.8892,1.9481,2.0004,2.0874,2.233,2.2591,2.2954,2.3779,2.4161,2.4381,2.4381,2.4594,2.4732,2.4732,2.5272,2.5711,2.6021,2.6336,2.6499,2.6499,2.6499,2.6499,2.6499,2.6499,2.6499,2.6499,2.6939,2.7571,2.2844,2.3297,2.3867,2.4375,2.4197,2.4015,2.4409,0.0,0.0,0.0,0.0,0.0,0.0,0.0,0.0,0.0,0.0,0.0,0.0,0.0,0.0,0.0,0.0,0.0,3.6214,3.6489,3.6675,3.6675,3.6109,3.6186,3.7206,3.5448,3.4753,3.5599,3.515,3.502,3.5183,3.502,3.4699,3.4193,3.3974,3.2905,3.1098,3.0843,3.0441,2.9973,0.0,0.0,2.9754,2.9264,2.9352,2.9792,2.9792,2.9792,2.9792,2.9792,2.9792,2.9792,2.9792,2.9792,2.9792,2.9792,2.9792,2.9792,2.9792,2.9792,2.9591,2.8637,2.8637,2.87,2.7883,2.6844,2.6142,2.6639,2.5961,2.4953,2.4004,2.3068,2.1857,1.9961,1.8862,1.8221,1.8325,1.8436,1.9201,2.123,2.1005,2.1587,2.4247,2.3956,2.3812,2.4723,2.4863,2.4913,2.4913,2.5423,2.5724,2.5724,2.5724,2.5984,2.6474,2.6499,2.6499,2.6499,2.6499,2.6499,2.6499,2.6499,2.6499,2.6499,2.6748,2.7637,2.3465,2.3925,2.4597,2.5242,2.5357,2.5299,2.5375,0.0,0.0,0.0,0.0,0.0,0.0,0.0,0.0,0.0,0.0,0.0,0.0,0.0,0.0,0.0,0.0,3.9587,3.7044,3.7395,3.7848,3.7848,3.7233,3.7157,3.7921,3.7084,3.6457,3.6085,3.6015,3.6422,3.7319,3.6422,3.5187,3.373,3.4101,3.3367,3.1652,3.1293,3.1048,3.0932,0.0,2.9704,2.9779,2.9691,2.9716,2.9792,2.9792,2.9792,2.9792,2.9792,2.9792,2.9792,2.9792,2.9792,2.9792,2.9792,2.9792,2.9792,2.9792,2.9792,2.9754,2.9578,2.9239,2.8963,2.9327,2.8262,2.7214,2.7722,2.7024,2.6093,2.5411,2.4259,2.2846,2.1352,2.0028,1.9235,1.9687,2.0384,2.1141,2.197,2.2591,2.314,2.3634,2.3568,2.3812,2.4723,2.5222,2.5473,2.5473,2.6034,2.6361,2.6361,2.6361,2.6399,2.6499,2.6499,2.6499,2.6499,2.6499,2.6499,2.6499,2.6499,2.6499,2.6521,2.7953,2.8748,2.3476,2.4213,2.5096,2.5378,2.5244,2.5229,2.5839,0.0,0.0,0.0,0.0,0.0,0.0,0.0,0.0,0.0,0.0,0.0,0.0,0.0,0.0,0.0,0.0,3.8642,3.7566,3.6999,3.7078,3.8049,3.6955,3.6999,3.8788,3.7433,3.6754,3.7074,3.706,3.7305,3.7791,3.789,3.7011,3.5181,3.4861,3.3946,3.247,3.1595,3.1217,3.113,0.0,2.9503,2.9767,2.9453,2.9515,2.9792,2.9792,2.9792,2.9792,2.9792,2.9792,2.9792,2.9792,2.9792,2.9792,2.9792,2.9792,2.9792,2.9792,2.9792,2.9729,2.9415,2.9101,2.895,2.9252,2.831,2.7344,2.7607,2.7077,2.6336,2.5724,2.4128,2.2523,2.1586,2.052,1.9807,2.0052,2.107,2.2184,2.3189,2.3692,2.4218,2.5019,2.5124,2.5271,2.5678,2.5946,2.6097,2.6097,2.6336,2.6499,2.6499,2.6499,2.6499,2.6499,2.6499,2.6499,2.6499,2.6499,2.6499,2.6499,2.6499,2.6499,2.6521,2.7736,2.8298,2.3313,2.4301,2.5347,2.5481,2.5229,2.5266,2.6371,0.0,0.0,0.0,0.0,0.0,0.0,0.0,0.0,0.0,0.0,0.0,0.0,0.0,0.0,0.0,3.8226,3.7868,3.8089,3.6778,3.6573,3.8184,3.6807,3.703,3.9628,3.7965,3.7329,3.8144,3.8182,3.8182,3.8182,3.8817,3.8422,3.6926,3.6006,3.4976,3.3862,3.2469,3.1742,3.1436,3.0043,2.9593,2.9754,2.9315,2.939,2.9792,2.9792,2.9792,2.983,3.0037,3.0139,3.0139,3.0394,3.0317,3.0139,3.0139,2.9972,2.9792,2.9792,2.9691,2.9503,2.9013,2.87,2.8537,2.8662,2.8009,2.7281,2.7281,2.6901,2.6298,2.5561,2.373,2.2015,2.134,2.0416,1.992,2.0505,2.1559,2.2914,2.4566,2.4822,2.5232,2.6355,2.6499,2.6499,2.6499,2.6499,2.6499,2.6499,2.6499,2.6499,2.6499,2.6499,2.6499,2.6499,2.6499,2.6499,2.6499,2.6499,2.6499,2.6499,2.6499,2.6499,2.6521,2.7317,2.7703,2.3208,2.4226,2.5282,2.597,2.6109,0.0,2.7293,2.6821,0.0,0.0,0.0,0.0,0.0,0.0,0.0,0.0,0.0,0.0,0.0,0.0,0.0,4.0172,4.0285,3.9935,3.8933,3.7826,3.7647,3.8759,3.7689,3.798,4.0219,3.9601,3.9228,3.9265,3.9265,3.9265,3.9265,3.8745,3.8392,3.8242,3.756,3.6884,3.6212,3.454,3.331,3.2451,3.1459,3.0544,2.9792,2.9741,2.9754,2.9792,2.9792,2.9792,2.9895,3.0758,3.1106,3.1217,3.2105,3.1829,3.1106,3.1106,3.052,2.9792,2.9792,2.9415,2.895,2.89,2.8185,2.7519,2.8034,2.772,2.7281,2.7281,2.6901,2.6197,2.5109,2.3459,2.188,2.0858,1.9586,1.9409,2.165,2.2486,2.3629,2.598,2.6355,2.6368,2.6487,2.6499,2.6499,2.6499,2.6499,2.6499,2.6499,2.6499,2.6499,2.6499,2.6499,2.6499,2.6499,2.6499,2.6499,2.6499,2.6499,2.6499,2.6499,2.6499,2.6499,2.6521,2.7317,2.7703,2.2793,2.3879,2.5001,2.5309,2.6308,0.0,0.0,0.0,0.0,0.0,0.0,0.0,0.0,0.0,0.0,0.0,0.0,0.0,0.0,0.0,4.0127,4.0367,4.051,3.9989,3.8477,3.7986,3.7957,3.8379,3.7854,3.8189,3.971,3.9559,3.923,3.8796,3.9185,3.9388,3.9388,3.8736,3.8392,3.8377,3.733,3.6716,3.6462,3.4753,3.3808,3.338,3.1852,3.1328,3.1439,3.0292,3.0508,3.1549,3.1549,3.1549,3.1586,3.1924,3.2069,3.2141,3.25,3.2393,3.196,3.1389,3.097,3.0493,2.953,2.9063,2.875,2.8097,2.7607,2.7406,2.7959,2.7444,2.6889,2.7241,2.6901,2.6285,2.5473,2.4108,2.2778,2.2034,2.1492,2.1542,2.2794,2.3885,2.5018,2.6308,2.6499,2.6499,2.6499,2.6499,2.6499,2.6499,2.6499,2.6499,2.6499,2.6499,2.6499,2.6499,2.6499,2.6499,2.6499,2.6499,2.6499,2.6499,2.6499,2.6499,2.6499,2.6499,2.6499,2.6521,2.7317,2.7417,2.2427,2.3654,2.4776,0.0,0.0,0.0,0.0,0.0,0.0,0.0,0.0,0.0,0.0,0.0,0.0,0.0,0.0,0.0,0.0,3.908,4.0083,4.0083,4.0365,3.9928,3.8387,3.8277,3.8291,3.8291,3.8008,3.8184,3.9023,3.9095,3.8781,3.8108,3.8736,3.899,3.8781,3.8512,3.8287,3.8063,3.7,3.6492,3.6462,3.5085,3.4279,3.391,3.2629,3.2285,3.25,3.1206,3.1439,3.2593,3.2593,3.2593,3.2629,3.2925,3.3031,3.3101,3.3394,3.3325,3.2961,3.2285,3.173,3.108,2.9785,2.9094,2.8575,2.7589,2.719,2.714,2.7494,2.7065,2.6587,2.6964,2.6763,2.6285,2.5511,2.4377,2.3299,2.2575,2.235,2.2512,2.334,2.4414,2.545,2.6364,2.6499,2.6499,2.6499,2.6499,2.6499,2.6499,2.6499,2.6499,2.6499,2.6499,2.6499,2.6499,2.6499,2.6499,2.6499,2.6499,2.6499,2.6499,2.6499,2.6499,2.6499,2.6499,2.6499,2.6499,2.7074,2.704,2.2209,2.3591,2.4703,0.0,0.0,0.0,0.0,0.0,0.0,0.0,0.0,0.0,0.0,0.0,0.0,0.0,0.0,0.0,0.0,3.8975,3.9373,3.9373,3.9993,3.9958,3.8803,3.8779,3.8765,3.8687,3.815,3.798,3.8372,3.8392,3.8078,3.7419,3.8033,3.8063,3.7419,3.8048,3.8048,3.7389,3.6776,3.6477,3.6462,3.5804,3.4953,3.4027,3.3993,3.3484,3.2629,3.2629,3.2629,3.2593,3.2629,3.2629,3.2749,3.3671,3.4027,3.4177,3.5166,3.4839,3.4027,3.3979,3.2922,3.1466,3.0646,2.9504,2.8328,2.7538,2.6914,2.6499,2.6499,2.6499,2.6499,2.6499,2.6499,2.6185,2.5059,2.412,2.3191,2.2111,2.1535,2.1698,2.324,2.3909,2.4721,2.6261,2.6499,2.6499,2.6499,2.6499,2.6499,2.6499,2.6499,2.6499,2.6499,2.6499,2.6499,2.6499,2.6499,2.6499,2.6499,2.6499,2.6499,2.6499,2.6499,2.6499,2.6499,2.6499,2.6499,2.6499,2.6499,2.6499,2.2209,2.3162,0.0,0.0,0.0,0.0,0.0,0.0,0.0,0.0,0.0,0.0,0.0,0.0,0.0,0.0,0.0,0.0,3.7034,3.8003,3.8691,3.8691,3.9709,3.978,3.8236,3.9197,3.9398,3.8145,3.8611,3.8563,3.7729,3.8138,3.7883,3.6791,3.7375,3.7599,3.7404,3.7165,3.6956,3.6746,3.6103,3.6028,3.6462,3.5804,3.5359,3.5019,3.4312,3.4245,3.4624,3.4624,3.4225,3.3671,3.4375,3.4624,3.4673,3.4953,3.5067,3.51,3.5392,3.5311,3.4879,3.3719,3.303,3.2334,3.0513,2.9275,2.8373,2.7735,2.7067,2.6499,2.6499,2.6499,2.6499,2.6499,2.6185,2.5661,2.4938,2.4315,2.3628,2.2898,2.2978,2.342,2.4275,2.4839,2.5484,2.6377,2.6499,2.6499,2.6499,2.6499,2.6499,2.6499,2.6499,2.6499,2.6499,2.6499,2.6499,2.6499,2.6499,2.6499,2.6499,2.6499,2.6499,2.6499,2.6499,2.6499,2.6499,2.6499,2.6499,2.6499,2.6499,2.6499,2.2857,0.0,0.0,0.0,0.0,0.0,0.0,0.0,0.0,0.0,0.0,0.0,0.0,0.0,0.0,0.0,0.0,3.6492,3.6492,3.736,3.8093,3.8362,3.8871,3.8888,3.8113,3.9009,3.9156,3.8128,3.8868,3.8826,3.7479,3.7778,3.7419,3.6133,3.6701,3.6911,3.6656,3.6552,3.6357,3.6088,3.5684,3.5714,3.6088,3.5684,3.5504,3.5472,3.4872,3.4953,3.5504,3.5504,3.5133,3.4658,3.5246,3.5504,3.5504,3.5504,3.5325,3.51,3.51,3.4921,3.4541,3.3554,3.3086,3.2562,3.0867,2.9836,2.9002,2.8077,2.74,2.6921,2.6657,2.6549,2.6436,2.621,2.585,2.5448,2.4933,2.4556,2.4155,2.3559,2.391,2.4431,2.4725,2.5247,2.5787,2.6411,2.6499,2.6499,2.6499,2.6499,2.6499,2.6499,2.6499,2.6499,2.6499,2.6499,2.6499,2.6499,2.6499,2.6499,2.6499,2.6499,2.6499,2.6499,2.6499,2.6499,2.6499,2.6499,2.6499,2.6499,2.6499,2.6612,2.3906,0.0,0.0,0.0,0.0,0.0,0.0,0.0,0.0,0.0,0.0,0.0,0.0,0.0,0.0,0.0,3.6604,3.6505,3.6505,3.6993,3.7539,3.8138,3.7749,3.7644,3.8242,3.8302,3.8302,3.8302,3.8886,3.8676,3.7404,3.733,3.6761,3.5549,3.6088,3.6118,3.5504,3.6088,3.6088,3.5504,3.5504,3.5504,3.5504,3.5504,3.5504,3.5504,3.5504,3.5504,3.5504,3.5504,3.5504,3.5504,3.5504,3.5504,3.5504,3.5504,3.507,3.4503,3.4503,3.4038,3.3484,3.3425,3.3006,3.2333,3.1489,3.0793,3.0004,2.8516,2.7981,2.7643,2.6918,2.6672,2.6459,2.5894,2.5681,2.5473,2.4996,2.4825,2.4669,2.4167,2.4519,2.4863,2.4863,2.5322,2.585,2.6411,2.6499,2.6499,2.6499,2.6499,2.6499,2.6499,2.6499,2.6499,2.6499,2.6499,2.6499,2.6499,2.6499,2.6499,2.6499,2.6499,2.6499,2.6499,2.6499,2.6499,2.6499,2.6499,2.6499,2.6499,2.6549,2.6839,0.0,2.5861,0.0,0.0,0.0,0.0,0.0,0.0,0.0,0.0,0.0,0.0,0.0,0.0,0.0,0.0,3.6984,3.6583,3.6583,3.6635,3.6731,3.6881,3.7195,3.7464,3.7599,3.7629,3.7629,3.7629,3.7764,3.7509,3.6731,3.6686,3.6327,3.5534,3.5639,3.5654,3.5504,3.5639,3.5639,3.5504,3.5504,3.5504,3.5504,3.5504,3.5504,3.5504,3.5504,3.5504,3.5504,3.5504,3.5504,3.5504,3.5504,3.5504,3.5504,3.5504,3.507,3.4503,3.4503,3.4038,3.341,3.2901,3.2632,3.2378,3.1634,3.091,3.0139,2.9254,2.8873,2.8425,2.724,2.7187,2.7341,2.6947,2.6205,2.5561,2.5448,2.5109,2.4763,2.4637,2.5071,2.5435,2.5435,2.5933,2.6348,2.6474,2.6499,2.6499,2.6499,2.6499,2.6499,2.6499,2.6499,2.6499,2.6499,2.6499,2.6499,2.6499,2.6499,2.6499,2.6499,2.6499,2.6499,2.6499,2.6499,2.6499,2.6499,2.6499,2.6499,2.6499,2.6939,2.7203,0.0,0.0,0.0,0.0,0.0,0.0,0.0,0.0,0.0,0.0,0.0,0.0,0.0,0.0,0.0,3.8386,3.7674,3.7174,3.7174,3.6816,3.6677,3.6997,3.6727,3.6626,3.6941,3.6971,3.6971,3.6971,3.724,3.715,3.6522,3.6492,3.6178,3.5534,3.5504,3.5504,3.5504,3.5504,3.5504,3.5504,3.5504,3.5504,3.5504,3.5504,3.5504,3.5504,3.5504,3.5504,3.5504,3.5504,3.5504,3.5504,3.5504,3.5504,3.5459,3.513,3.4592,3.3994,3.3649,3.3095,3.2467,3.2123,3.2019,3.1959,3.1615,3.1219,3.0661,2.9722,2.9519,2.9315,2.7973,2.7954,2.8278,2.8092,2.7125,2.6232,2.6232,2.5981,2.5691,2.525,2.5636,2.5925,2.5649,2.6109,2.6499,2.6499,2.6499,2.6499,2.6499,2.6499,2.6499,2.6499,2.6499,2.6499,2.6499,2.6499,2.6499,2.6499,2.6499,2.6499,2.6499,2.6499,2.6499,2.6499,2.6499,2.6499,2.6499,2.6499,2.6499,2.6512,2.7065,2.7419,0.0,0.0,0.0,0.0,0.0,0.0,0.0,0.0,0.0,0.0,0.0,0.0,0.0,0.0,0.0,3.9113,3.8469,3.7978,3.7978,3.7293,3.7001,3.7561,3.6485,3.5911,3.6469,3.6412,3.6312,3.6312,3.6791,3.6851,3.6342,3.6312,3.6073,3.5519,3.5504,3.5504,3.5504,3.5504,3.5504,3.5504,3.5504,3.5504,3.5504,3.5504,3.5504,3.5504,3.5504,3.5504,3.5504,3.5504,3.5504,3.5504,3.5504,3.5429,3.525,3.4713,3.3978,3.3245,3.2706,3.2049,3.1511,3.1511,3.1511,3.1511,3.1511,3.1511,3.1227,2.9953,2.9952,3.003,2.8697,2.8705,2.9101,2.9212,2.8359,2.7394,2.712,2.7056,2.6765,2.5903,2.6172,2.6336,2.5824,2.6172,2.6499,2.6499,2.6499,2.6499,2.6499,2.6499,2.6499,2.6499,2.6499,2.6499,2.6499,2.6499,2.6499,2.6499,2.6499,2.6499,2.6499,2.6499,2.6499,2.6499,2.6499,2.6499,2.6499,2.6499,2.6549,2.665,2.7203,2.772,0.0,0.0,0.0,0.0,0.0,0.0,0.0,0.0,0.0,0.0,0.0,0.0,0.0,0.0,0.0,3.9927,3.9262,3.8745,3.8745,3.8104,3.7663,3.7759,3.6996,3.6477,3.6569,3.5999,3.5639,3.5639,3.5714,3.5729,3.5639,3.5639,3.5594,3.5504,3.5504,3.5504,3.5504,3.5504,3.5504,3.5504,3.5504,3.5504,3.5504,3.5504,3.5504,3.5504,3.5504,3.5504,3.5504,3.5504,3.5504,3.5504,3.5504,3.5145,3.4638,3.4533,3.3709,3.2632,3.2542,3.2049,3.1511,3.1511,3.1511,3.1511,3.1511,3.1511,3.1227,2.9953,3.0033,3.0188,2.8881,2.8894,2.9448,3.0115,3.006,2.9423,2.7931,2.7584,2.7366,2.6544,2.6436,2.6461,2.6386,2.6449,2.6499,2.6499,2.6499,2.6499,2.6499,2.6499,2.6499,2.6499,2.6499,2.6499,2.6499,2.6499,2.6499,2.6499,2.6499,2.6499,2.6499,2.6499,2.6499,2.6499,2.6499,2.6499,2.6499,2.6499,2.6738,2.7216,2.7733,2.8298,0.0,0.0,0.0,0.0,0.0,0.0,0.0,0.0,0.0,0.0,0.0,0.0,0.0,0.0,0.0,0.0,3.9808,3.9584,3.9584,3.8897,3.8414,3.8414,3.7732,3.7263,3.7263,3.6965,3.66,3.6134,3.6117,3.5958,3.5537,3.5504,3.5504,3.5504,3.5504,3.5504,3.5504,3.5504,3.5504,3.5504,3.5504,3.5504,3.5504,3.5504,3.5504,3.5504,3.5504,3.5504,3.5504,3.5504,3.5504,3.5474,3.5085,3.4773,3.4414,3.3649,3.3006,3.2437,3.2064,3.175,3.1511,3.1511,3.1511,3.1511,3.1511,3.1511,3.1301,3.0372,3.0567,3.0838,2.9924,3.0106,3.063,3.0962,3.1041,3.0644,2.9411,2.878,2.8051,2.6748,2.6499,2.6499,2.6499,2.6499,2.6499,2.6499,2.6499,2.6499,2.6499,2.6499,2.6499,2.6499,2.6499,2.6499,2.6499,2.6499,2.6499,2.6499,2.6499,2.6499,2.6499,2.6499,2.6499,2.6499,2.6499,2.6499,2.6499,2.6801,2.7077,2.7306,2.816,2.8662,0.0,0.0,0.0,0.0,0.0,0.0,0.0,0.0,0.0,0.0,0.0,0.0,0.0,0.0,0.0,0.0,3.9825,3.9893,4.0079,3.9568,3.9193,3.9193,3.8525,3.8092,3.8092,3.7892,3.7544,3.6934,3.6737,3.6353,3.5814,3.5619,3.5504,3.5504,3.5504,3.5504,3.5504,3.5504,3.5504,3.5504,3.5504,3.5504,3.5504,3.5504,3.5504,3.5504,3.5504,3.5504,3.5504,3.5504,3.54,3.519,3.4713,3.4294,3.3858,3.2886,3.2378,3.2168,3.1675,3.1511,3.1511,3.1511,3.1511,3.1511,3.1511,3.1511,3.1361,3.0702,3.0866,3.1122,3.0642,3.0881,3.1286,3.1466,3.1511,3.1278,3.0464,2.9442,2.8298,2.704,2.6658,2.6499,2.6499,2.6499,2.6499,2.6499,2.6499,2.6499,2.6499,2.6499,2.6499,2.6499,2.6499,2.6499,2.6499,2.6625,2.665,2.6499,2.6625,2.6637,2.6499,2.6499,2.6499,2.6499,2.6499,2.6499,2.6499,2.7052,2.7356,2.7519,2.8473,2.8963,0.0,0.0,0.0,0.0,0.0,0.0,0.0,0.0,0.0,0.0,0.0,0.0,0.0,0.0,0.0,0.0,0.0,3.9317,4.0011,4.007,4.0045,4.0045,3.9342,3.8854,3.8854,3.8206,3.7777,3.7719,3.7024,3.6584,3.6554,3.5894,3.5504,3.5504,3.5504,3.5504,3.5504,3.5504,3.5504,3.5504,3.5504,3.5504,3.5504,3.5504,3.5504,3.5504,3.5504,3.5504,3.5504,3.5504,3.5115,3.4563,3.4518,3.3709,3.2617,3.2542,3.2093,3.1555,3.1511,3.1511,3.1511,3.1511,3.1511,3.1511,3.1511,3.1511,3.1361,3.0702,3.0537,3.0552,3.0507,3.0537,3.0717,3.1346,3.1511,3.1278,3.0464,2.8971,2.7736,2.7637,2.704,2.6499,2.6499,2.6499,2.6499,2.6499,2.6499,2.6499,2.6499,2.6499,2.6499,2.6499,2.6499,2.6499,2.6499,2.6977,2.7052,2.6524,2.6989,2.704,2.6512,2.6499,2.6499,2.6499,2.6499,2.6499,2.6499,2.7052,2.7557,2.8072,2.8624,2.9227,0.0,0.0,0.0,0.0,0.0,0.0,0.0,0.0,0.0,0.0,0.0,0.0,0.0,0.0,0.0,0.0,0.0,3.9887,3.945,4.0085,4.0497,4.0146,3.985,3.9662,3.9662,3.9428,3.9049,3.8553,3.6912,3.6158,3.664,3.5042,3.4776,3.6202,3.5768,3.5502,3.5504,3.5504,3.5504,3.5504,3.5504,3.5504,3.5504,3.5504,3.5504,3.5504,3.5504,3.5504,3.5474,3.5026,3.4728,3.4414,3.3544,3.2931,3.2437,3.2004,3.1705,3.1511,3.1511,3.1511,3.1511,3.1511,3.1511,3.1511,3.1511,3.1511,3.1451,3.1212,3.1137,3.1137,3.1137,3.1137,3.1067,3.0808,3.0748,3.0644,3.0359,2.8939,2.7703,2.7703,2.704,2.6499,2.6499,2.6499,2.6499,2.6499,2.6499,2.6499,2.6499,2.6499,2.6499,2.6499,2.6499,2.6499,2.6499,2.6675,2.67,2.6512,2.6688,2.67,2.6499,2.6839,2.7014,2.7014,2.7014,2.6851,2.6499,2.7369,2.7908,2.8134,2.9051,2.9591,0.0,0.0,0.0,0.0,0.0,0.0,0.0,0.0,0.0,0.0,0.0,0.0,0.0,0.0,0.0,0.0,0.0,0.0,3.9606,4.0498,4.1064,4.0696,4.0473,4.0368,4.0368,3.9983,3.9505,3.8949,3.7091,0.0,3.6664,3.5027,3.4754,3.6282,3.582,3.5638,3.5906,3.5624,3.5762,3.6258,3.5733,3.5651,3.5863,3.5619,3.5504,3.5489,3.5265,3.516,3.513,3.4666,3.4249,3.3724,3.2856,3.2348,3.2108,3.166,3.1511,3.1511,3.1511,3.1511,3.1511,3.1511,3.1511,3.1511,3.1511,3.1511,3.1511,3.1511,3.1511,3.1511,3.1511,3.1511,3.138,3.0837,3.0703,3.0614,3.0359,2.8939,2.7855,2.846,2.767,2.6905,2.6905,2.6905,2.6816,2.6521,2.6499,2.6499,2.6499,2.6499,2.6499,2.6499,2.6499,2.6499,2.6499,2.6663,2.6826,2.6884,2.7071,2.722,2.733,2.74,2.7683,2.8196,2.791,2.7855,2.8025,2.8079,2.8197,2.8398,2.9352,2.9792,0.0,0.0,0.0,0.0,0.0,0.0,2.3212,0.0,3.1166,0.0,0.0,0.0,0.0,0.0,0.0,0.0,0.0,0.0,4.0477,4.1258,4.1796,4.1793,4.1268,4.0903,4.0903,3.9751,3.8988,3.8988,3.7528,3.6642,3.6692,3.6028,3.5612,3.5612,3.5628,3.5963,3.6662,3.5917,3.6307,3.7761,3.6274,3.5943,3.6615,3.5863,3.5537,3.5492,3.4803,3.4503,3.4474,3.4459,3.3664,3.2512,3.2497,3.2064,3.1511,3.1511,3.1511,3.1511,3.1511,3.1511,3.1511,3.1511,3.1511,3.1511,3.1511,3.1511,3.1511,3.1511,3.1511,3.1511,3.1511,3.1511,3.1511,3.1467,3.1467,3.1248,3.0464,2.8939,2.8247,2.9919,2.8907,2.7736,2.7736,2.7736,2.7451,2.6658,2.6521,2.6521,2.6499,2.6499,2.6499,2.6499,2.6499,2.6499,2.6499,2.7012,2.7423,2.7676,2.8204,2.8665,2.8998,2.8208,2.8504,2.9979,2.9228,2.9524,3.1054,2.9116,2.8435,2.8938,2.9515,2.9792,1.5935,0.0,0.0,0.0,0.0,0.0,2.1677,2.4076,2.6003,0.0,0.0,0.0,0.0,0.0,0.0,0.0,0.0,0.0,3.9804,4.0788,4.1584,4.1782,4.1268,4.0903,4.0903,3.9751,3.8988,0.0,3.6575,3.5602,3.6716,3.6575,3.6199,3.5612,3.6127,3.6222,3.5903,3.6213,3.6591,3.6997,3.7117,3.7265,3.7456,3.6661,3.6306,3.6244,3.5011,3.4234,3.3724,3.3245,3.2841,3.2437,3.1959,3.166,3.1511,3.1511,3.1511,3.1511,3.1511,3.1511,3.1511,3.1511,3.1511,3.1511,3.1511,3.1511,3.1511,3.1511,3.1511,3.1511,3.1511,3.1511,3.1351,3.0777,3.0614,3.0584,3.0359,2.9442,2.878,2.9286,2.8971,2.8652,2.8652,2.8652,2.833,2.7517,2.7384,2.7162,2.6555,2.6499,2.6499,2.6499,2.6499,2.6499,2.6499,2.7182,2.7607,2.7683,2.8414,2.8912,2.9016,2.9616,3.0151,3.0582,3.0808,3.133,3.2131,3.0547,2.9855,2.9988,2.9847,2.9792,0.0,0.0,0.0,0.0,0.0,0.0,1.8979,2.1584,2.3845,0.0,2.762,0.0,0.0,0.0,0.0,0.0,0.0,0.0,0.0,4.0601,4.147,4.1966,4.1484,4.1147,4.1256,4.0101,3.9109,3.8572,3.662,3.5729,3.6265,3.6299,3.6081,3.5607,3.6022,3.6199,3.6109,3.6188,3.6572,3.719,3.6973,3.7054,3.7332,3.6869,3.6452,3.609,3.5294,3.456,3.3829,3.2901,3.2333,3.2034,3.1645,3.1511,3.1511,3.1511,3.1511,3.1511,3.1511,3.1511,3.1511,3.1511,3.1511,3.1511,3.1511,3.1511,3.1511,3.1511,3.1511,3.1511,3.1511,3.1511,3.138,3.0896,3.0807,3.0703,3.0359,3.0178,3.0042,3.0042,2.9766,2.9535,2.9535,2.9535,2.9254,2.8363,2.792,2.755,2.7074,2.6714,2.6499,2.6499,2.6499,2.6499,2.6499,2.7229,2.7855,2.8214,2.9066,2.9817,3.0428,3.0556,3.1005,3.19,3.1962,3.2368,3.3171,3.1697,3.1101,3.1308,3.1085,3.0959,0.0,0.0,0.0,0.0,0.0,0.0,1.6231,1.9752,2.3215,2.3319,2.599,0.0,0.0,0.0,0.0,0.0,0.0,0.0,0.0,4.0357,4.1203,4.1858,4.1541,4.1347,4.16,4.0368,3.9101,3.8065,3.7242,3.6434,3.5633,3.56,3.56,3.56,3.56,3.5943,3.666,3.6039,3.6405,3.7763,3.6483,3.6243,3.6949,3.6875,3.6429,3.5762,3.5639,3.5171,3.4414,3.3051,3.2138,3.16,3.1525,3.1511,3.1511,3.1511,3.1511,3.1511,3.1511,3.1511,3.1511,3.1511,3.1511,3.1511,3.1511,3.1511,3.1511,3.1511,3.1511,3.1511,3.1511,3.1511,3.1511,3.1511,3.1511,3.1307,3.0584,3.0999,3.1511,3.1511,3.0925,3.0419,3.0419,3.0419,3.0133,2.9286,2.8492,2.792,2.7736,2.7061,2.6589,2.6499,2.6499,2.6499,2.6499,2.7229,2.8084,2.8939,2.9827,3.0936,3.2318,3.1276,3.1554,3.3469,3.2903,3.3082,3.4177,3.2726,3.2257,3.2593,3.2593,3.2593,0.0,0.0,0.0,0.0,0.0,0.0,1.7409,1.8805,2.015,0.0,2.2898,0.0,0.0,0.0,0.0,0.0,0.0,0.0,0.0,0.0,4.0013,3.9667,4.0115,4.0454,4.0504,3.8963,3.81,3.8451,3.7422,3.6434,3.5633,3.56,3.56,3.56,3.56,3.5667,3.5819,3.6335,3.6723,3.7009,3.7321,3.7835,3.853,3.7883,3.7501,3.7292,3.6093,3.5171,3.4414,3.3051,3.2407,3.2243,3.1705,3.1511,3.1511,3.1511,3.1511,3.1511,3.1511,3.1511,3.1511,3.1511,3.1511,3.1511,3.1511,3.1511,3.1511,3.1511,3.1511,3.1511,3.1511,3.1511,3.1511,3.1511,3.1511,3.1467,3.1307,3.138,3.1511,3.1511,3.138,3.1278,3.1278,3.1278,3.0999,3.0178,2.9889,2.9286,2.7887,2.7571,2.7229,2.6555,2.6499,2.6499,2.6499,2.7229,2.8084,2.8939,2.9827,3.0702,3.1661,3.2467,3.3063,3.3484,3.4388,3.4961,3.5198,3.4129,3.3232,3.2593,3.2593,3.2593,0.0,0.0,0.0,1.7,0.0,0.0,0.0,1.768,1.8832,1.9468,2.0725,0.0,0.0,0.0,0.0,0.0,0.0,0.0,0.0,0.0,0.0,3.8404,3.9164,3.9806,4.0148,3.9394,3.8629,3.8079,3.691,3.6028,3.5616,3.56,3.56,3.56,3.56,3.56,3.56,3.6011,3.6197,3.6214,3.6586,3.6935,3.7307,3.7676,3.7436,3.6713,3.6703,3.5873,3.4429,3.341,3.2811,3.2422,3.1765,3.1511,3.1511,3.1511,3.1511,3.1511,3.1511,3.1739,3.2064,3.2064,3.2064,3.2104,3.2434,3.2312,3.212,3.2461,3.2048,3.1582,3.1951,3.1768,3.1511,3.1511,3.1511,3.1511,3.1511,3.1511,3.1511,3.1511,3.1511,3.1511,3.1511,3.1511,3.1351,3.097,3.0554,2.9981,2.9097,2.862,2.8019,2.7196,2.7095,2.6939,2.6521,2.7229,2.7887,2.833,2.9566,3.077,3.1805,3.26,3.332,3.3978,3.4651,3.516,3.5504,3.4986,3.4509,3.4056,3.4056,3.4056,0.0,0.0,0.0,0.0,0.0,1.6754,0.0,0.0,0.0,0.0,0.0,0.0,0.0,0.0,0.0,0.0,0.0,0.0,0.0,0.0,0.0,3.6379,3.7054,3.7711,3.8742,3.9013,3.8604,3.7376,3.6376,3.5752,3.56,3.56,3.56,3.56,3.56,3.56,3.56,3.56,3.56,3.56,3.56,3.5667,3.5893,3.728,3.7061,3.568,3.7025,3.6341,3.4264,3.3712,3.3096,3.2422,3.1765,3.1511,3.1511,3.1511,3.1511,3.1524,3.1668,3.2007,3.2437,3.2695,3.2722,3.2722,3.3391,3.3145,3.2749,3.3417,3.2691,3.1853,3.2465,3.2064,3.1511,3.1511,3.1511,3.1511,3.1511,3.1511,3.1511,3.1511,3.1511,3.1511,3.1511,3.1511,3.1511,3.1511,3.097,3.0494,3.0329,2.969,2.8907,2.8051,2.7802,2.7451,2.6782,2.7196,2.7537,2.7703,2.9034,3.0449,3.1942,3.2564,3.3455,3.4683,3.4698,3.4951,3.5504,3.5504,3.5504,3.5504,3.5504,3.5504,0.0,0.0,0.0,0.0,1.9042,0.0,0.0,0.0,1.8574,1.7653,0.0,0.0,0.0,0.0,0.0,0.0,0.0,0.0,2.382,0.0,0.0,3.1496,3.1278,3.1668,3.3776,3.4761,3.5601,3.6471,3.662,3.6349,3.5633,3.56,3.56,3.56,3.56,3.56,3.56,3.56,3.56,3.56,3.56,3.5977,3.6694,3.7516,3.7086,3.5715,3.6565,3.5665,3.3606,3.3521,3.3099,3.2422,3.1765,3.1511,3.1511,3.1511,3.1511,3.1582,3.2244,3.2092,3.1824,3.3077,3.3093,3.2722,3.3391,3.3145,3.2749,3.3417,3.3066,3.2477,3.2574,3.2064,3.1511,3.1511,3.1511,3.1511,3.1511,3.1511,3.1511,3.1511,3.1511,3.1511,3.1511,3.1511,3.1511,3.1511,3.1409,3.1117,3.0389,3.0208,2.9827,2.8939,2.8149,2.767,2.7571,2.7007,2.6939,2.7637,2.7887,2.9003,3.1202,3.3216,3.4607,3.537,3.5385,3.5429,3.5504,3.5504,3.5504,3.5504,3.5504,3.5504,0.0,0.0,0.0,0.0,0.0,0.0,1.9841,0.0,1.8769,0.0,0.0,0.0,0.0,0.0,0.0,0.0,1.9448,0.0,0.0,0.0,0.0,0.0,0.0,0.0,3.3361,3.2841,3.279,3.3718,3.4417,3.4489,3.3728,3.489,3.56,3.56,3.56,3.56,3.56,3.56,3.56,3.56,3.56,3.5769,3.6129,3.6907,3.6464,3.5091,3.5849,3.4932,3.2961,3.3361,3.3121,3.2558,3.2679,3.2228,3.1511,3.1511,3.1511,3.1524,3.1853,3.2035,3.2244,3.2841,3.3365,3.3735,3.3633,3.3684,3.3887,3.4568,3.3726,3.2695,3.3093,3.2339,3.1611,3.2035,3.2148,3.2148,3.2148,3.2148,3.2007,3.1582,3.1511,3.1511,3.1511,3.1511,3.1511,3.1511,3.1511,3.138,3.1029,3.0999,3.0673,2.9858,2.9442,2.9002,2.8492,2.767,2.7481,2.8118,2.9376,3.0754,3.222,3.4085,3.5205,3.5504,3.5504,3.5504,3.5504,3.5504,3.5504,3.5504,3.5504,3.5504,2.6034,0.0,0.0,0.0,0.0,0.0,0.0,0.0,0.0,0.0,0.0,0.0,0.0,0.0,0.0,0.0,0.0,1.8623,0.0,0.0,0.0,0.0,0.0,0.0,0.0,3.0715,3.0455,3.1079,0.0,3.3085,3.2344,3.4404,3.56,3.56,3.56,3.56,3.56,3.56,3.56,3.56,3.56,3.56,3.5616,3.6222,3.5696,3.4356,3.4913,3.416,3.2564,3.3256,3.3263,3.2949,3.3608,3.3024,3.1796,3.1796,3.1653,3.1524,3.1739,3.2272,3.2841,3.2668,3.3391,3.426,3.3962,3.4211,3.4736,3.5407,3.4415,3.3261,3.3735,3.2837,3.1923,3.2449,3.2586,3.2586,3.2586,3.2734,3.2652,3.1951,3.1796,3.1754,3.1524,3.1511,3.1511,3.1511,3.1511,3.1511,3.1511,3.1307,3.097,3.0359,2.9858,2.9442,2.9034,2.7986,2.7585,2.8131,3.0438,3.2087,3.2705,3.4515,3.5504,3.5504,3.5504,3.5504,3.5504,3.5504,3.5504,3.5504,3.5504,3.5504,0.0,0.0,0.0,2.5286,0.0,0.0,0.0,0.0,2.0327,0.0,0.0,0.0,0.0,0.0,0.0,0.0,0.0,0.0,0.0,0.0,0.0,0.0,0.0,0.0,0.0,2.7521,2.8752,0.0,3.1803,3.3085,3.2344,3.4404,3.56,3.56,3.56,3.56,3.56,3.56,3.56,3.56,3.56,3.56,3.5594,3.5682,3.4962,3.3636,3.374,3.332,3.2645,3.3319,3.3588,3.3633,3.4309,3.3735,3.2559,3.2559,3.2104,3.1611,3.2327,3.3013,3.3469,3.2815,3.3066,3.3735,3.4382,3.4576,3.4736,3.5407,3.5075,3.4528,3.4552,3.3556,3.2559,3.2586,3.2586,3.2586,3.2586,3.3119,3.3365,3.2695,3.2559,3.2327,3.1611,3.1511,3.1511,3.1511,3.1511,3.1511,3.1511,3.0807,3.0329,3.0299,2.878,2.8117,2.8939,2.7484,2.676,2.7314,3.0153,3.1799,3.1833,3.4189,3.5504,3.5504,3.5504,3.5504,3.5504,3.5504,3.5504,3.5504,3.5504,3.5504,0.0,0.0,2.9169,2.9213,0.0,0.0,0.0,0.0,0.0,0.0,0.0,0.0,0.0,0.0,0.0,0.0,0.0,0.0,0.0,0.0,0.0,0.0,0.0,0.0,0.0,0.0,0.0,0.0,0.0,0.0,2.8183,3.1507,3.3643,3.4112,3.5092,3.56,3.56,3.56,3.56,3.56,3.5144,3.4941,3.4918,3.4496,3.3822,3.2922,3.2956,3.2831,3.2641,3.3313,3.3862,3.4284,3.4503,3.4062,3.3224,3.2761,3.2148,3.1539,3.1796,3.202,3.2173,3.1951,3.2367,3.3066,3.3735,3.426,3.4664,3.4871,3.4759,3.4503,3.4062,3.3261,3.2722,3.3172,3.3261,3.3261,3.3261,3.3443,3.3391,3.2749,3.2203,3.1796,3.1524,3.1511,3.1511,3.1511,3.1511,3.1511,3.1511,3.0807,3.0299,3.0299,2.9254,2.8684,2.8971,2.8625,2.8756,2.9548,3.1314,3.2619,3.324,3.4688,3.5504,3.5504,3.5504,3.528,3.4831,3.528,3.5265,3.4863,3.5295,3.5504,3.1429,3.1184,0.0,3.1212,2.9872,0.0,2.8039,0.0,0.0,0.0,0.0,0.0,0.0,0.0,0.0,0.0,0.0,0.0,0.0,1.7074,0.0,0.0,0.0,0.0,0.0,0.0,0.0,0.0,0.0,0.0,0.0,2.9784,3.2411,3.2651,3.456,3.5362,3.4887,3.5138,3.5121,3.4887,3.4431,3.4235,3.4211,3.3556,3.3013,3.2602,3.2327,3.2355,3.2641,3.3066,3.3633,3.426,3.4503,3.4186,3.3521,3.2841,3.2148,3.1511,3.1511,3.1511,3.1511,3.1511,3.2007,3.2722,3.3391,3.3912,3.4333,3.4823,3.4783,3.4552,3.4374,3.3811,3.3365,3.3556,3.3582,3.3531,3.3287,3.3443,3.3391,3.2749,3.2372,3.2053,3.1569,3.1705,3.1765,3.154,3.1511,3.1511,3.1511,3.0807,3.0178,2.9858,2.9066,2.8524,2.8524,2.9376,3.0166,3.0764,3.2242,3.338,3.3993,3.4953,3.5504,3.5504,3.5504,3.5295,3.4846,3.5295,3.528,3.4861,3.5295,3.5504]}]]